[[{"header":{"parameterUnit":"m.s-1","parameterCategory":1,"la1":30.6,"la2":29.2853,"lo1":-89.7004,"lo2":-87.6739,"dy":0.0162,"dx":0.0183,"nx":112,"ny":82,"refTime":"2024-05-05T12:00:00:Z","depth":0,"parameterNumber":2,"parameterNumberName":"U-component_of_WINDS"},"data":[0.0,0.0,0.0,0.0,0.0,0.0,0.0,0.0,0.0,0.0,0.0,0.0,0.0,0.0,0.0,0.0,0.0,0.0,0.0,0.0,0.0,0.0,0.0,0.0,0.0,0.0,0.0,0.0,0.0,0.0,0.0,0.0,0.0,0.0,0.0,0.0,0.0,0.0,0.0,0.0,0.0,0.0,0.0,0.0,0.0,0.0,0.0,0.0,0.0,0.0,0.0,0.0,0.0,0.0,0.0,0.0,0.0,0.0,0.0,0.0,0.0,0.0,0.0,0.0,0.0,0.0,0.0,0.0,0.0,0.0,0.0,0.0,0.0,0.0,0.0,0.0,0.0,0.0,0.0,0.0,0.0,0.0,0.0,0.0,0.0,0.0,0.0,0.0,0.0,0.0,0.0,3.0241,3.0304,3.034,3.0398,2.8856,2.7903,2.7894,0.0,0.0,0.0,0.0,0.0,0.0,0.0,0.0,0.0,0.0,0.0,0.0,0.0,0.0,0.0,0.0,0.0,0.0,0.0,0.0,0.0,0.0,0.0,0.0,0.0,0.0,0.0,0.0,0.0,0.0,0.0,0.0,0.0,0.0,0.0,0.0,0.0,0.0,0.0,0.0,0.0,0.0,0.0,0.0,0.0,0.0,0.0,0.0,0.0,0.0,0.0,0.0,0.0,0.0,0.0,0.0,0.0,0.0,0.0,0.0,0.0,0.0,0.0,0.0,0.0,0.0,0.0,0.0,0.0,0.0,0.0,0.0,0.0,0.0,0.0,0.0,0.0,0.0,0.0,0.0,0.0,0.0,0.0,0.0,0.0,0.0,0.0,0.0,0.0,0.0,0.0,0.0,0.0,0.0,0.0,0.0,0.0,0.0,0.0,0.0,0.0,0.0,0.0,0.0,3.0163,3.0375,3.0375,3.0398,3.0469,2.8898,2.7894,2.7894,0.0,0.0,0.0,0.0,0.0,0.0,0.0,0.0,0.0,0.0,0.0,0.0,0.0,0.0,0.0,0.0,0.0,0.0,0.0,0.0,0.0,0.0,0.0,0.0,0.0,0.0,0.0,0.0,0.0,0.0,0.0,0.0,0.0,0.0,0.0,0.0,0.0,0.0,0.0,0.0,0.0,0.0,0.0,0.0,0.0,0.0,0.0,0.0,0.0,0.0,0.0,0.0,0.0,0.0,0.0,0.0,0.0,0.0,0.0,0.0,0.0,0.0,0.0,0.0,0.0,0.0,0.0,0.0,0.0,0.0,0.0,0.0,0.0,0.0,0.0,0.0,0.0,0.0,0.0,0.0,0.0,0.0,0.0,0.0,0.0,0.0,0.0,0.0,0.0,0.0,0.0,0.0,0.0,0.0,0.0,0.0,0.0,0.0,0.0,0.0,0.0,0.0,0.0,2.989,3.0375,3.0458,3.0458,3.0469,3.05,2.8956,2.7961,2.7941,2.4791,0.0,0.0,0.0,0.0,0.0,0.0,0.0,0.0,0.0,0.0,0.0,0.0,0.0,0.0,0.0,0.0,0.0,0.0,0.0,0.0,0.0,0.0,0.0,0.0,0.0,0.0,0.0,0.0,0.0,0.0,0.0,0.0,0.0,0.0,0.0,0.0,0.0,0.0,0.0,0.0,0.0,0.0,0.0,0.0,0.0,0.0,0.0,0.0,0.0,0.0,0.0,0.0,0.0,0.0,0.0,0.0,0.0,0.0,0.0,0.0,0.0,0.0,0.0,0.0,0.0,0.0,0.0,0.0,0.0,0.0,0.0,0.0,0.0,0.0,0.0,0.0,0.0,0.0,0.0,0.0,0.0,0.0,0.0,0.0,0.0,0.0,0.0,0.0,0.0,0.0,0.0,0.0,0.0,0.0,0.0,0.0,0.0,0.0,0.0,0.0,0.0,0.0,3.0409,3.0458,3.049,3.05,3.051,3.053,2.8994,2.8006,2.8014,2.4803,0.0,0.0,0.0,0.0,0.0,0.0,0.0,0.0,0.0,0.0,0.0,0.0,0.0,0.0,0.0,0.0,0.0,0.0,0.0,0.0,0.0,0.0,0.0,0.0,0.0,0.0,0.0,0.0,0.0,0.0,0.0,0.0,0.0,0.0,0.0,0.0,0.0,0.0,0.0,0.0,0.0,0.0,0.0,0.0,0.0,0.0,0.0,0.0,0.0,0.0,0.0,0.0,0.0,0.0,0.0,0.0,0.0,0.0,0.0,0.0,0.0,0.0,0.0,0.0,0.0,0.0,0.0,0.0,0.0,0.0,0.0,0.0,0.0,0.0,0.0,0.0,0.0,0.0,0.0,0.0,0.0,0.0,0.0,0.0,0.0,0.0,0.0,0.0,0.0,0.0,0.0,0.0,0.0,0.0,0.0,0.0,0.0,0.0,0.0,0.0,0.0,0.0,3.0479,3.049,3.051,3.0579,3.0607,3.0595,2.9063,2.8102,2.8078,2.4888,0.0,0.0,0.0,0.0,0.0,0.0,0.0,0.0,0.0,0.0,0.0,0.0,0.0,0.0,0.0,0.0,0.0,0.0,0.0,0.0,0.0,0.0,0.0,0.0,0.0,0.0,0.0,0.0,0.0,0.0,0.0,0.0,0.0,0.0,0.0,0.0,0.0,0.0,0.0,0.0,0.0,0.0,0.0,0.0,0.0,0.0,0.0,0.0,0.0,0.0,0.0,0.0,0.0,0.0,0.0,0.0,0.0,0.0,0.0,0.0,0.0,0.0,0.0,0.0,0.0,0.0,0.0,0.0,0.0,0.0,0.0,0.0,0.0,0.0,0.0,0.0,0.0,0.0,0.0,0.0,0.0,0.0,0.0,0.0,0.0,0.0,0.0,0.0,0.0,0.0,0.0,0.0,0.0,0.0,0.0,0.0,0.0,0.0,0.0,0.0,0.0,0.0,3.0559,3.054,0.0,3.0586,3.0604,3.0613,2.9582,2.8683,2.8117,0.0,0.0,0.0,0.0,0.0,0.0,0.0,0.0,0.0,0.0,0.0,0.0,0.0,0.0,0.0,0.0,0.0,0.0,0.0,0.0,0.0,0.0,0.0,0.0,0.0,0.0,0.0,0.0,0.0,0.0,0.0,0.0,0.0,0.0,0.0,0.0,0.0,0.0,0.0,0.0,0.0,0.0,0.0,0.0,0.0,0.0,0.0,0.0,0.0,0.0,0.0,0.0,0.0,0.0,0.0,0.0,0.0,0.0,0.0,0.0,0.0,0.0,0.0,0.0,0.0,0.0,0.0,0.0,0.0,0.0,0.0,0.0,0.0,0.0,0.0,0.0,0.0,0.0,0.0,0.0,0.0,0.0,0.0,0.0,0.0,0.0,0.0,0.0,0.0,0.0,0.0,0.0,0.0,0.0,0.0,0.0,0.0,0.0,0.0,0.0,0.0,0.0,3.082,3.0994,3.1137,0.0,3.1172,3.1025,3.1025,3.0032,2.9062,2.8179,0.0,0.0,0.0,0.0,0.0,0.0,0.0,0.0,0.0,0.0,0.0,0.0,0.0,0.0,0.0,0.0,0.0,0.0,0.0,0.0,0.0,0.0,0.0,0.0,0.0,0.0,0.0,0.0,0.0,0.0,0.0,0.0,0.0,0.0,0.0,0.0,0.0,0.0,0.0,0.0,0.0,0.0,0.0,0.0,0.0,0.0,0.0,0.0,0.0,0.0,0.0,0.0,0.0,0.0,0.0,0.0,0.0,0.0,0.0,0.0,0.0,0.0,0.0,0.0,0.0,0.0,0.0,0.0,0.0,0.0,0.0,0.0,0.0,0.0,0.0,0.0,0.0,0.0,0.0,0.0,0.0,0.0,0.0,0.0,0.0,0.0,0.0,0.0,0.0,0.0,0.0,0.0,0.0,0.0,0.0,0.0,0.0,0.0,0.0,0.0,0.0,0.0,3.1792,3.1909,3.2266,3.3119,3.2399,3.1911,3.1911,3.0386,2.9072,0.0,0.0,0.0,0.0,0.0,0.0,0.0,0.0,0.0,0.0,0.0,0.0,0.0,0.0,0.0,0.0,0.0,0.0,0.0,0.0,0.0,0.0,0.0,0.0,0.0,0.0,0.0,0.0,0.0,0.0,0.0,0.0,0.0,0.0,0.0,0.0,0.0,0.0,0.0,0.0,0.0,0.0,0.0,0.0,0.0,0.0,0.0,0.0,0.0,0.0,0.0,0.0,0.0,0.0,0.0,0.0,0.0,0.0,0.0,0.0,0.0,0.0,0.0,0.0,0.0,0.0,0.0,0.0,0.0,0.0,0.0,0.0,0.0,0.0,0.0,0.0,0.0,0.0,0.0,0.0,0.0,0.0,0.0,0.0,0.0,0.0,0.0,0.0,0.0,0.0,0.0,0.0,0.0,0.0,0.0,0.0,0.0,0.0,0.0,0.0,0.0,0.0,0.0,0.0,3.243,3.2951,3.3247,3.2485,3.1948,3.1961,3.0957,2.9706,2.8294,0.0,0.0,0.0,0.0,0.0,0.0,0.0,0.0,0.0,0.0,0.0,0.0,0.0,0.0,0.0,0.0,0.0,0.0,0.0,0.0,0.0,0.0,0.0,0.0,0.0,0.0,0.0,0.0,0.0,0.0,0.0,0.0,0.0,0.0,0.0,0.0,0.0,0.0,0.0,0.0,0.0,0.0,0.0,0.0,0.0,0.0,0.0,0.0,0.0,0.0,0.0,0.0,0.0,0.0,0.0,0.0,0.0,0.0,0.0,0.0,0.0,0.0,0.0,0.0,0.0,0.0,0.0,0.0,0.0,0.0,0.0,0.0,0.0,0.0,0.0,0.0,0.0,0.0,0.0,0.0,0.0,0.0,0.0,0.0,0.0,0.0,0.0,0.0,0.0,0.0,0.0,0.0,0.0,0.0,0.0,0.0,0.0,0.0,0.0,0.0,0.0,0.0,3.2881,3.3441,3.393,3.4294,3.3563,3.2908,3.2558,3.1747,3.038,2.8327,0.0,0.0,0.0,0.0,0.0,0.0,0.0,0.0,0.0,0.0,0.0,0.0,0.0,0.0,0.0,0.0,0.0,0.0,0.0,0.0,0.0,0.0,0.0,0.0,0.0,0.0,0.0,0.0,0.0,0.0,0.0,0.0,0.0,0.0,0.0,0.0,0.0,0.0,0.0,0.0,0.0,0.0,0.0,0.0,0.0,0.0,0.0,0.0,0.0,0.0,0.0,0.0,0.0,0.0,0.0,0.0,0.0,0.0,0.0,0.0,0.0,0.0,0.0,0.0,0.0,0.0,0.0,0.0,0.0,0.0,0.0,0.0,0.0,0.0,0.0,0.0,0.0,0.0,0.0,0.0,0.0,0.0,0.0,0.0,0.0,0.0,0.0,0.0,0.0,0.0,0.0,0.0,0.0,0.0,0.0,0.0,0.0,0.0,0.0,0.0,0.0,0.0,3.4418,3.4665,3.5029,3.5807,3.5107,3.4244,3.3368,3.2577,3.1014,2.8469,0.0,0.0,0.0,0.0,0.0,0.0,0.0,0.0,0.0,0.0,0.0,0.0,0.0,0.0,0.0,0.0,0.0,0.0,0.0,0.0,0.0,0.0,0.0,0.0,0.0,0.0,0.0,0.0,0.0,0.0,0.0,0.0,0.0,0.0,0.0,0.0,0.0,0.0,0.0,0.0,0.0,0.0,0.0,0.0,0.0,0.0,0.0,0.0,0.0,0.0,0.0,0.0,0.0,0.0,0.0,0.0,0.0,0.0,0.0,0.0,4.3069,0.0,0.0,0.0,0.0,0.0,0.0,0.0,0.0,0.0,0.0,0.0,0.0,0.0,0.0,0.0,0.0,0.0,0.0,0.0,0.0,0.0,0.0,0.0,0.0,0.0,0.0,0.0,0.0,0.0,0.0,0.0,0.0,0.0,0.0,0.0,0.0,0.0,0.0,0.0,0.0,0.0,3.4549,3.5217,3.5691,3.5859,3.5132,3.428,3.3457,3.2605,3.1291,2.9347,0.0,0.0,0.0,0.0,0.0,0.0,0.0,0.0,0.0,0.0,0.0,0.0,0.0,0.0,0.0,0.0,0.0,0.0,0.0,0.0,0.0,0.0,0.0,0.0,0.0,0.0,0.0,0.0,0.0,0.0,0.0,0.0,0.0,0.0,0.0,0.0,0.0,0.0,0.0,0.0,0.0,0.0,0.0,0.0,0.0,0.0,0.0,0.0,0.0,0.0,0.0,0.0,0.0,0.0,0.0,0.0,0.0,0.0,0.0,0.0,0.0,4.4526,0.0,0.0,0.0,0.0,0.0,0.0,0.0,0.0,0.0,0.0,0.0,0.0,0.0,0.0,0.0,0.0,0.0,0.0,0.0,0.0,0.0,0.0,0.0,0.0,0.0,0.0,0.0,0.0,0.0,0.0,0.0,0.0,0.0,0.0,0.0,0.0,0.0,0.0,0.0,0.0,3.5165,3.5599,3.5922,3.5938,3.5549,3.493,3.4111,3.3244,3.1963,3.0242,2.9347,0.0,0.0,0.0,0.0,0.0,0.0,0.0,0.0,0.0,0.0,0.0,0.0,0.0,0.0,0.0,0.0,0.0,0.0,0.0,0.0,0.0,0.0,0.0,0.0,0.0,0.0,0.0,0.0,0.0,0.0,0.0,0.0,0.0,0.0,0.0,0.0,0.0,0.0,0.0,0.0,0.0,0.0,0.0,0.0,0.0,0.0,0.0,0.0,0.0,0.0,0.0,0.0,0.0,0.0,0.0,5.2232,5.2232,5.2232,5.2029,4.9005,4.7431,4.6995,0.0,0.0,0.0,0.0,0.0,0.0,0.0,0.0,0.0,0.0,0.0,0.0,0.0,0.0,0.0,0.0,0.0,0.0,0.0,0.0,0.0,0.0,0.0,0.0,0.0,3.8735,3.7825,0.0,0.0,0.0,0.0,0.0,0.0,0.0,0.0,0.0,0.0,0.0,0.0,3.6245,3.6333,3.6304,3.6235,3.6235,3.5802,3.4788,3.4033,3.2872,3.115,3.0214,2.9003,0.0,0.0,0.0,0.0,0.0,0.0,0.0,0.0,0.0,0.0,0.0,0.0,0.0,0.0,0.0,0.0,0.0,0.0,0.0,0.0,0.0,0.0,0.0,0.0,0.0,0.0,0.0,0.0,0.0,0.0,0.0,0.0,3.5444,3.5796,0.0,0.0,0.0,0.0,0.0,0.0,0.0,0.0,0.0,0.0,0.0,0.0,0.0,0.0,5.1999,5.2227,5.3091,5.4534,5.4612,5.5081,5.5815,5.5815,5.5815,5.5737,5.4528,0.0,5.0572,4.9792,0.0,0.0,0.0,0.0,0.0,0.0,0.0,0.0,0.0,0.0,0.0,0.0,0.0,0.0,0.0,0.0,0.0,0.0,0.0,0.0,0.0,0.0,4.0648,4.0655,4.0078,3.9416,0.0,3.8245,3.7716,3.7721,0.0,0.0,0.0,0.0,0.0,0.0,0.0,0.0,3.8146,3.8146,3.7873,3.7123,3.7097,3.6473,3.4842,3.4601,3.3763,3.2051,3.1153,2.994,2.8181,2.6583,0.0,0.0,0.0,0.0,0.0,0.0,0.0,0.0,0.0,0.0,0.0,0.0,0.0,0.0,0.0,0.0,0.0,0.0,0.0,0.0,0.0,0.0,0.0,0.0,0.0,0.0,0.0,0.0,0.0,3.5916,3.7828,3.8765,4.0288,4.1807,0.0,0.0,0.0,0.0,0.0,0.0,0.0,0.0,0.0,5.1542,5.2356,5.3214,5.4111,5.458,5.5432,5.668,5.7148,5.7577,5.7967,5.7967,5.7967,5.7928,5.7577,5.6751,5.5489,5.315,5.1941,5.1434,0.0,0.0,0.0,0.0,0.0,4.7768,4.7255,0.0,0.0,0.0,0.0,0.0,0.0,0.0,0.0,0.0,0.0,0.0,0.0,0.0,0.0,4.252,4.2214,4.1947,4.1953,4.1668,4.0799,0.0,3.8444,3.8488,3.8488,0.0,0.0,0.0,0.0,0.0,3.851,3.851,3.8358,3.8007,3.7585,3.6999,3.6243,3.524,3.4359,3.3629,3.2301,3.105,2.9794,2.8546,2.7023,0.0,0.0,0.0,0.0,0.0,0.0,0.0,0.0,0.0,0.0,0.0,0.0,0.0,0.0,0.0,0.0,0.0,0.0,0.0,0.0,0.0,0.0,0.0,0.0,0.0,0.0,0.0,0.0,3.8297,3.9858,4.1576,4.2747,4.3997,0.0,0.0,0.0,0.0,0.0,0.0,5.1063,5.1913,5.2689,5.3352,5.4162,5.5015,5.5879,5.6503,5.7395,5.8487,5.9111,5.9541,5.9775,5.9775,5.9775,5.9736,5.9541,5.9424,5.9189,5.5906,5.4222,5.3643,5.3169,5.2629,0.0,5.1297,5.0946,5.0673,5.0009,4.9235,4.8449,4.8242,0.0,4.6872,4.6859,0.0,0.0,0.0,0.0,4.4949,4.4922,0.0,4.4928,4.5006,4.4655,4.4343,4.4353,4.4007,4.2915,0.0,3.9833,3.9841,3.9837,0.0,0.0,0.0,0.0,3.9178,3.9185,3.9185,3.911,3.8961,3.8336,3.7792,3.7331,3.612,3.5188,3.4726,3.3476,3.2187,3.0936,3.0271,2.8826,2.6405,0.0,0.0,0.0,0.0,0.0,0.0,0.0,0.0,0.0,0.0,0.0,0.0,0.0,0.0,0.0,0.0,0.0,0.0,0.0,0.0,0.0,0.0,0.0,0.0,0.0,0.0,0.0,0.0,0.0,4.3372,4.5051,0.0,0.0,0.0,0.0,5.1141,5.1999,5.2897,5.3756,5.4615,5.5123,5.5162,5.602,5.684,5.766,5.7699,5.8597,6.0276,6.0315,6.0783,6.1559,6.1559,6.1559,6.152,6.0705,6.0315,6.0115,5.7479,5.6329,5.6134,5.4495,5.3793,5.3754,5.3715,5.3247,5.2551,5.2512,5.1927,5.1068,5.0243,4.9385,4.8683,4.8683,4.8644,0.0,0.0,4.8527,4.8527,4.8527,4.8527,4.8527,4.8527,4.7279,4.6069,4.6069,4.4831,4.3669,0.0,4.3431,4.3431,4.3422,0.0,4.2217,4.2217,4.1491,4.0952,4.0952,4.0952,4.0678,3.9937,3.9819,3.9088,3.7421,3.7226,3.6445,3.4805,3.4609,3.3476,3.1016,3.0859,3.0,2.8203,2.7342,0.0,0.0,0.0,0.0,0.0,0.0,0.0,0.0,0.0,0.0,0.0,0.0,0.0,0.0,0.0,0.0,0.0,0.0,0.0,0.0,0.0,0.0,0.0,0.0,0.0,0.0,0.0,0.0,4.5288,4.7354,0.0,0.0,5.1609,5.2975,5.3834,5.4186,5.4732,5.563,5.5435,5.5552,5.6138,5.6957,5.7777,5.8636,5.9183,6.008,6.1252,6.1252,6.1408,6.172,6.172,6.172,6.1681,6.1369,6.1252,6.1134,5.962,5.8679,5.8119,5.7495,5.7255,5.7177,5.6631,5.5889,5.5109,5.4567,5.3787,5.3001,5.2723,5.2361,5.1999,5.1453,5.0912,5.0366,4.9775,4.9229,4.8806,4.8816,4.8816,4.8816,4.8864,4.8396,4.7927,4.7932,4.7467,4.7038,4.7038,4.5242,4.3716,4.3716,4.3443,4.3251,4.3225,4.2956,4.2763,4.2763,4.2288,4.1813,4.154,4.0537,3.9648,3.9014,3.796,3.7024,3.6404,3.531,3.4295,3.3396,3.2264,3.1131,2.9998,2.91,2.8242,0.0,0.0,0.0,0.0,0.0,0.0,0.0,0.0,0.0,0.0,0.0,0.0,0.0,0.0,0.0,0.0,0.0,0.0,0.0,0.0,0.0,0.0,0.0,0.0,0.0,0.0,4.7059,4.7913,4.9511,5.0992,5.2156,5.36,5.481,5.5669,5.602,5.6567,5.7387,5.6918,5.684,5.7426,5.7972,5.8675,5.9534,6.0119,6.0827,6.169,6.169,6.169,6.169,6.169,6.169,6.169,6.169,6.1686,6.1642,6.1069,6.0487,5.9937,5.9343,5.9104,5.9026,5.8441,5.7894,5.7348,5.6762,5.5825,5.4888,5.4879,5.444,5.385,5.3303,5.2757,5.2172,5.1586,5.1001,5.0538,5.0542,5.0352,5.0117,5.0165,4.9739,4.9316,4.9316,4.9082,4.8886,4.888,4.6814,4.5021,4.5021,4.4546,4.4156,4.4128,4.3904,4.3711,4.3711,4.32,4.2724,4.2412,4.1406,4.0502,3.9939,3.8843,3.8068,3.7764,3.6396,3.5458,3.5146,3.374,3.2608,3.1749,3.0616,2.9445,2.8273,0.0,0.0,0.0,0.0,0.0,0.0,0.0,0.0,0.0,0.0,0.0,0.0,0.0,0.0,0.0,0.0,0.0,0.0,0.0,0.0,0.0,0.0,0.0,4.6367,4.7109,4.8593,5.1089,5.1439,5.2177,5.3877,5.4849,5.5747,5.6606,5.7465,5.8285,5.9109,5.9109,5.9109,5.9109,5.9148,5.9538,6.0393,6.0432,6.0874,6.1709,6.1709,6.1709,6.1709,6.1709,6.1709,6.1709,6.1709,6.1701,6.172,6.172,6.1694,6.1514,5.9855,5.9183,5.9183,5.9183,5.9143,5.9143,5.9109,5.805,5.6684,5.6645,5.5513,5.4108,5.4108,5.4068,5.4029,5.4033,5.4033,5.3994,5.3994,5.337,5.2745,5.2741,5.1467,5.0227,5.0188,4.9564,4.9016,4.8965,4.827,4.7651,4.7651,4.6234,4.5093,4.5093,4.4335,0.0,4.3798,4.3745,4.3437,4.2578,4.2414,4.1735,4.0132,3.9937,3.9546,3.869,3.7828,3.697,3.6069,3.521,3.4312,3.3417,3.1816,3.0135,2.8455,0.0,0.0,0.0,0.0,0.0,0.0,0.0,0.0,0.0,0.0,0.0,0.0,0.0,0.0,0.0,0.0,0.0,0.0,0.0,0.0,0.0,0.0,4.8672,4.7422,4.8555,4.9961,5.1249,5.2538,5.371,5.4842,5.628,5.7525,5.8345,5.8619,5.9123,5.9986,5.9439,5.9087,5.9087,5.9712,6.0142,6.0415,6.1026,6.1447,6.169,6.1713,6.1718,6.1718,6.1718,6.1718,6.1718,6.1718,6.1709,6.172,6.172,6.1701,6.1639,6.1162,6.1001,6.1001,6.1001,6.061,5.9947,5.9322,5.8814,5.8306,5.7721,5.7213,5.6705,5.608,5.5455,5.4948,5.4948,5.4479,5.401,5.401,5.3815,5.3656,5.3647,5.3273,5.2734,5.2101,5.1792,5.1483,5.0859,4.9999,4.9216,4.8621,4.7614,4.6875,4.6875,0.0,0.0,4.5597,4.5018,4.4555,4.4321,4.3144,4.2204,4.1735,4.06,3.978,0.0,3.8687,3.7867,3.697,3.6111,3.4937,3.3417,3.2949,3.2478,0.0,0.0,0.0,0.0,0.0,0.0,0.0,0.0,0.0,0.0,0.0,0.0,0.0,0.0,0.0,0.0,0.0,0.0,0.0,0.0,0.0,0.0,4.9219,5.0078,4.9766,5.0625,5.1562,5.2383,5.3711,5.4883,5.5742,5.6756,5.7848,5.9059,5.9137,5.9684,6.0895,6.0465,6.0193,6.0193,6.0662,6.0935,6.0935,6.1436,6.1707,6.1707,6.1717,6.1719,6.1719,6.1719,6.1719,0.0,6.1719,6.1716,6.1707,6.1707,6.1713,0.0,0.0,0.0,0.0,0.0,6.1363,6.0856,6.0348,5.9959,5.9568,5.9098,5.8707,5.8278,5.7418,5.6793,5.6325,5.5934,5.5468,5.5077,5.5077,5.4804,5.4531,5.4528,5.4258,5.3862,5.3334,5.2944,5.2563,5.2055,0.0,0.0,5.0048,4.8922,4.8147,4.815,4.7408,4.6856,0.0,4.6066,4.5402,4.5051,4.4106,4.3205,4.2463,4.1527,0.0,0.0,0.0,3.8717,3.7854,3.6957,0.0,0.0,0.0,3.3757,0.0,0.0,0.0,0.0,3.0971,3.1443,0.0,0.0,0.0,0.0,0.0,0.0,0.0,0.0,0.0,0.0,0.0,0.0,0.0,0.0,0.0,0.0,5.0351,5.1016,5.25,5.2851,5.3281,5.4062,5.4844,5.5625,5.6523,5.668,5.7422,5.9062,5.9297,6.0039,6.1601,0.0,0.0,0.0,0.0,6.1719,6.1719,6.1719,6.1719,6.1719,6.1719,6.1719,6.1719,6.1719,6.1719,6.1719,6.1719,6.1719,6.1719,6.1719,6.1719,6.1719,6.1719,6.1719,6.1719,6.1719,6.1719,0.0,0.0,0.0,0.0,6.0429,5.9922,5.9179,5.8281,5.8047,5.7851,5.7109,5.6827,5.6766,5.6762,5.611,5.5458,5.5458,5.4872,5.4281,5.4186,5.3522,5.2936,5.2741,5.2073,5.1527,5.141,5.0083,4.9029,4.9032,4.8287,0.0,4.7588,4.6924,4.6105,4.5238,0.0,0.0,4.2793,4.2598,4.2169,4.131,4.0335,3.9438,3.8692,3.7795,3.7015,3.6317,3.5537,3.4757,3.3973,3.3973,3.3981,3.3988,3.3763,3.3695,0.0,0.0,0.0,0.0,0.0,0.0,0.0,0.0,0.0,0.0,0.0,0.0,0.0,0.0,0.0,5.0072,5.1288,5.2344,5.2656,5.3906,5.4844,5.5039,5.5195,5.5625,5.6523,5.7226,5.8086,5.9101,5.9805,6.0625,6.164,6.1719,0.0,6.1719,6.1719,6.1719,6.1719,6.1719,6.1719,6.1719,0.0,0.0,6.1719,6.1719,6.1719,6.1719,6.1719,6.1719,6.1719,6.1719,6.1719,6.1719,6.1719,6.1719,6.1719,6.1719,6.1719,6.1719,6.1719,6.1596,6.1342,6.064,6.0298,5.9993,5.9134,5.886,0.0,5.8665,5.8155,5.7642,5.7664,5.7001,5.6337,5.6337,5.622,5.5907,5.5201,5.4879,5.4328,5.2962,5.2523,5.2161,5.1497,5.0533,4.9879,4.9879,4.9128,4.8309,4.7627,4.7354,4.6913,4.6047,4.5332,4.4787,4.446,4.3802,4.3066,4.2208,4.0686,3.9711,3.9555,3.8692,3.8185,3.8029,3.7834,3.7678,3.7522,3.7522,3.7522,3.7488,3.6141,3.5486,0.0,0.0,0.0,0.0,0.0,0.0,0.0,0.0,0.0,0.0,0.0,4.833,4.8759,0.0,5.1414,5.1385,5.2487,5.3509,5.3942,5.4765,5.5312,5.5312,5.5703,5.6133,5.6562,5.7383,5.8242,5.914,5.9961,6.0781,6.164,6.1719,6.1719,6.1719,6.1719,6.1719,6.1719,6.1719,6.1719,6.1719,6.1719,6.1719,6.1719,6.1719,6.1719,6.1719,6.1719,6.1719,6.1719,6.1719,6.1719,6.1719,6.1719,6.1719,6.1719,6.1719,6.1717,6.1709,6.1709,6.1704,6.1616,6.1174,6.1061,6.0877,6.0015,5.9741,5.9663,5.9234,5.8808,5.8414,5.7977,5.7538,5.7104,5.6636,5.6553,5.643,5.6001,5.5527,5.4937,5.4117,5.3214,5.2467,5.2077,5.1297,5.0712,5.0762,5.0015,4.9274,4.8855,4.804,4.7328,4.6891,4.6059,4.5365,4.4949,4.413,4.3467,4.3033,4.1785,4.1039,4.1033,3.9779,3.9084,3.9096,3.8706,3.8511,3.8516,3.8516,3.8483,3.8488,3.8073,3.7656,0.0,0.0,0.0,0.0,0.0,0.0,0.0,0.0,4.7276,4.8174,4.954,5.0672,5.0828,5.1999,5.2936,5.2936,5.3678,5.4502,5.5182,5.5464,5.5546,5.5547,5.6172,5.668,5.6836,5.7656,5.8515,5.9375,6.0195,6.0976,6.164,6.1719,6.1719,6.1719,6.1719,6.1719,6.1719,6.1719,6.1719,6.1719,6.1719,6.1719,6.1719,6.1719,6.1719,6.1719,6.1719,6.1719,6.1719,6.1718,6.1717,6.1717,6.1718,6.1718,6.1718,6.1717,6.1709,6.1686,6.1681,6.1694,6.1704,6.1686,6.172,6.1564,6.0856,6.0661,6.0505,5.9802,5.949,5.9178,5.8475,5.8036,5.7635,5.6932,5.6608,5.6485,5.6485,5.5932,5.5386,5.523,5.4053,5.2994,5.2643,5.2005,5.1498,5.1408,5.0784,5.027,5.0114,4.8866,4.7846,4.7501,4.6831,4.6091,4.5195,4.4331,4.3817,4.3841,4.3023,4.2549,4.2533,4.121,4.0478,4.0454,3.9831,3.9487,3.95,3.95,3.9507,3.9519,4.0226,3.997,4.0604,4.1902,4.3284,4.4324,4.523,4.6132,0.0,0.0,4.993,5.0789,5.1726,5.2663,5.3405,5.3717,5.3834,5.3834,5.4576,5.5201,5.5283,5.5986,5.6468,5.6445,5.6523,5.6914,5.7695,5.8555,5.9375,6.0195,6.1055,6.1601,6.168,6.1719,6.1719,6.1719,6.1719,6.1719,6.1719,6.1719,6.1719,6.1719,6.1719,6.1719,6.1719,6.1719,6.1719,6.1719,6.1719,6.1719,6.1718,6.1701,6.1686,6.169,6.1707,6.1711,6.1709,6.1694,6.1697,6.1704,6.1686,6.1681,6.1681,6.1681,6.172,6.1681,6.1564,6.1564,6.152,6.1431,6.084,6.0216,6.0119,5.8942,5.7772,5.7694,5.707,5.6485,5.6485,5.6432,5.6145,5.5365,5.4991,5.4342,5.2862,5.2485,5.2143,5.1427,5.1218,5.0899,5.0112,4.9839,4.913,4.7579,4.7337,4.6909,4.6044,4.5187,4.4681,4.4681,4.3895,4.3467,4.3458,4.3264,4.3147,4.3155,4.3078,4.3039,4.3039,4.3039,4.3039,4.3039,4.314,4.2318,4.3059,4.4553,0.0,0.0,4.7089,4.8118,4.9489,5.0356,5.1258,5.2624,5.321,5.3561,5.3912,5.442,5.4771,0.0,5.5474,5.6059,5.6059,5.6372,5.661,5.6588,5.7068,5.75,5.7851,5.8672,5.9531,6.0351,6.1211,6.1719,6.1719,6.1719,6.1719,6.1719,6.1719,6.1719,6.1719,6.1719,6.1719,6.1719,6.1719,6.1719,6.1719,6.1719,6.1717,6.1704,6.1704,6.1709,6.1715,6.1704,6.1694,6.1681,6.169,6.1694,6.1694,6.1686,6.1686,6.1694,6.1681,6.172,6.172,6.172,6.172,6.172,6.172,6.1715,6.1705,6.1699,6.142,6.0984,6.0503,5.9833,5.8999,5.8031,5.7471,5.7073,5.655,5.6425,5.6338,5.5969,5.5483,5.4733,5.3526,5.2855,5.2193,5.1373,5.1256,5.1101,5.0766,5.0274,4.9313,4.7582,4.7397,4.7047,4.6152,4.5763,4.5568,4.555,4.4772,4.4296,4.4317,4.3811,4.3548,4.3558,4.3519,4.3566,4.3614,4.3614,4.3614,4.3614,4.3583,4.3491,4.574,0.0,0.0,4.8425,4.9028,4.9942,5.1708,5.2303,5.2815,5.4108,5.4537,5.4732,5.4732,5.524,5.5669,5.5669,5.6177,5.6606,5.6606,5.6606,5.6684,5.6918,5.7489,5.8085,5.8555,5.914,5.9883,6.0703,6.1328,6.1719,6.1719,6.1719,6.1719,6.1719,6.1719,6.1719,6.1719,6.1719,6.1719,6.1719,6.1719,6.1718,6.1715,6.1715,6.1709,6.169,6.1681,6.169,6.1704,6.1704,6.1694,6.172,6.172,6.172,6.172,6.172,6.172,6.172,6.172,6.172,6.172,6.172,6.1715,6.1715,6.1715,6.1705,6.1654,6.1687,6.1634,6.1471,6.0878,6.0512,5.9949,5.8468,5.7905,5.7449,5.6583,5.6417,5.6417,5.6397,5.588,5.5169,5.4274,5.3408,5.2552,5.1647,5.1346,5.1181,5.1217,5.0471,4.9498,4.8204,4.767,4.7126,4.6474,4.6192,4.6027,4.6046,4.5463,4.5103,4.5082,4.4499,4.416,4.4181,4.4181,4.419,4.4248,4.4258,4.4258,4.4258,4.4267,4.4587,4.8429,0.0,4.9145,5.0764,5.1193,5.1713,5.3498,5.4518,5.5109,5.524,5.5942,5.6528,5.6528,5.6528,5.6567,5.6567,5.6567,5.6606,5.6606,5.6606,5.6879,5.766,5.7855,5.8538,0.0,6.0351,6.0703,6.1601,6.168,6.1719,6.1719,6.1719,6.1719,6.1719,6.1719,6.1719,6.1719,6.1719,6.1719,6.1719,6.1719,6.1713,6.1681,6.1681,6.1694,6.1707,6.169,6.172,6.1681,6.1681,6.172,6.172,6.172,6.172,6.172,6.172,6.172,6.172,6.172,6.172,6.172,6.172,6.171,6.1699,6.1699,6.1648,6.1595,6.1612,6.1603,6.1595,6.1578,6.0926,6.0087,5.9192,5.8276,5.7398,5.6581,5.6386,5.6386,5.6386,5.6325,5.5991,5.5097,5.4257,5.3378,5.2486,5.1644,5.1147,5.1201,5.0459,4.987,4.9843,4.8305,4.7272,4.7272,4.6434,4.5917,4.5917,4.5879,4.5879,4.5879,4.584,4.584,4.584,4.5902,4.5925,4.5925,4.5908,4.5929,4.5929,4.5988,4.6037,5.0221,0.0,5.1593,5.2731,5.3019,5.3345,5.4521,5.5003,5.5366,5.5967,5.6319,5.6558,5.6602,5.6606,5.6606,5.6606,5.6606,5.6801,5.7309,5.7387,5.7699,5.8558,5.9183,0.0,0.0,0.0,0.0,6.164,6.1719,6.1719,6.1719,6.1719,6.1719,6.1719,6.1719,6.1719,6.1719,6.1719,6.1719,6.1719,6.1711,6.1694,6.172,6.172,6.1686,6.169,6.1681,6.172,6.172,6.172,6.172,6.172,6.172,6.172,6.172,6.172,6.172,6.172,6.172,6.172,6.1715,6.171,6.1705,6.1699,6.1648,6.1627,6.1612,6.1603,6.1578,6.152,6.1549,6.1323,6.0873,6.0016,5.911,5.8243,5.7364,5.6741,5.6314,5.6329,5.6265,5.5968,5.5061,5.4685,5.3998,5.2563,5.1632,5.1113,5.1127,5.0869,5.0468,4.9899,4.9304,4.871,4.8167,4.7262,4.6758,4.6758,4.6215,4.5905,4.5905,4.5905,4.5905,4.5905,4.5917,4.5929,4.5929,4.5941,4.5941,4.5941,4.6596,4.6918,5.1974,5.2645,5.3268,5.4164,5.4367,5.4578,5.5482,5.5645,5.5815,5.638,5.6503,5.6509,5.6558,5.6563,5.6684,5.6996,5.7035,5.7309,5.8168,5.8246,5.8597,5.9456,6.0041,0.0,0.0,0.0,0.0,6.164,6.1719,6.1719,6.1719,6.1719,6.1719,6.1719,6.1719,6.1719,6.1719,6.1719,6.1718,6.1713,6.1694,6.172,6.172,6.172,6.172,6.172,6.172,6.172,6.172,6.172,6.172,6.172,6.172,6.172,6.172,6.172,6.172,6.172,6.172,6.1715,6.171,6.1699,6.1693,6.168,6.1627,6.1612,6.1586,6.1578,6.152,6.1489,6.1518,6.1495,6.1226,6.0409,5.9515,5.8635,5.7767,5.69,5.6265,5.6278,5.6238,5.6029,5.5472,5.4861,5.3955,5.251,5.1593,5.1037,5.1097,5.1111,5.0893,5.0325,4.9963,4.9536,4.898,4.8128,4.7611,4.7611,4.7107,4.6797,4.6797,4.6797,4.6797,4.6797,4.6771,4.6784,4.6784,4.6836,4.6836,4.6836,4.7442,4.7714,5.3719,5.397,5.4164,5.5061,5.5256,5.5489,5.6293,5.6488,5.6496,5.6517,5.6497,5.6503,0.0,0.0,5.6879,5.766,5.7816,5.8128,5.9026,5.9183,5.9495,0.0,0.0,0.0,0.0,0.0,0.0,6.1719,0.0,6.1719,6.1719,6.1719,6.1719,6.1719,6.1719,6.1719,6.1719,6.1719,6.1713,6.172,6.172,6.172,6.172,6.172,6.172,6.172,6.172,6.172,6.172,6.172,6.172,6.172,6.172,6.172,6.172,6.172,6.172,6.1715,6.1715,6.171,6.1699,6.1699,6.1634,6.1603,6.1603,6.1586,6.1559,6.1539,6.1489,6.1479,6.1484,6.146,6.1201,6.0424,5.9543,5.8661,5.7845,5.6925,5.6238,5.6199,5.6209,5.618,5.618,5.4793,5.3344,5.2496,5.1571,5.0967,5.1099,5.1106,5.1097,5.1087,5.0284,4.9766,4.9766,4.8948,4.8469,4.8469,4.843,4.8392,4.8392,4.8392,4.8392,4.8392,4.8382,4.8396,4.8396,4.8476,4.849,4.849,4.8528,4.8567,5.4558,5.481,5.51,5.5957,5.6152,5.623,5.6433,5.6511,5.6519,5.6496,5.6503,5.6517,0.0,0.0,0.0,5.766,5.7816,0.0,5.9846,6.008,0.0,0.0,0.0,6.1447,6.1681,6.169,0.0,0.0,6.1719,6.1719,6.1719,6.1719,6.1719,6.1719,6.1719,6.1719,6.1719,6.1719,6.1713,6.172,6.172,6.172,6.172,6.172,6.172,6.172,6.172,6.172,6.172,6.172,6.172,6.172,6.172,6.172,6.172,6.172,6.171,6.1705,6.1705,6.1699,6.1693,6.1627,6.1612,6.1595,6.1586,6.1559,6.15,6.1489,6.1456,6.1421,6.1408,6.1421,6.1356,6.1161,6.0434,5.9551,5.8697,5.7776,5.6931,5.6311,5.6164,5.6117,5.6046,5.5194,5.4188,5.3259,5.236,5.1592,5.1006,5.0945,5.0945,5.0929,5.0735,5.0549,5.0532,4.9727,4.9225,4.9225,4.8684,4.8337,4.8337,4.8337,4.8337,4.8337,4.8346,4.8323,4.8323,4.8406,4.8421,4.8421,4.9069,4.9393,5.5453,5.5706,5.5879,5.6386,5.6503,5.6503,5.6503,5.6503,5.6511,5.6519,5.6488,0.0,5.6485,0.0,0.0,0.0,0.0,0.0,6.0198,6.0744,6.1134,0.0,6.172,0.0,6.172,6.172,6.169,0.0,6.1717,6.1719,6.1719,6.1719,6.1719,6.1719,6.1719,6.1719,6.1719,6.1715,6.1707,6.1694,6.1686,6.172,6.172,6.172,6.172,6.172,0.0,6.172,6.172,6.172,6.172,6.172,6.172,6.172,6.172,6.171,6.1705,6.1699,6.168,6.1673,6.1634,6.1612,6.1595,6.1586,6.1559,6.1539,6.1489,6.1456,6.1421,6.1396,6.1408,6.1381,6.1352,6.1352,6.0701,5.9817,5.8925,5.8041,5.7156,5.6288,5.6062,5.6029,5.6016,5.5299,5.4581,5.4022,5.2872,5.1931,5.1503,5.1095,5.088,5.0863,5.0846,5.0846,5.0791,5.0349,5.0079,5.0079,4.9654,4.9384,4.9384,4.9384,4.9384,4.9384,4.9418,4.9379,4.9379,4.9451,4.9467,4.9467,5.0001,5.0225,5.6184,5.6446,5.6503,5.6503,5.6503,5.6503,5.6503,5.6503,5.6503,5.6503,0.0,5.6488,5.6496,5.6478,5.6776,5.764,0.0,5.9412,6.0276,6.1134,6.172,6.172,6.172,6.172,6.172,6.172,6.172,6.172,6.1711,6.1718,6.1719,6.1719,6.1719,6.1719,6.1719,6.1719,6.1719,6.1701,6.169,6.1707,6.169,6.172,6.172,6.172,6.172,6.172,0.0,0.0,6.172,6.172,6.172,6.172,6.172,6.1715,6.1715,6.1705,6.1693,6.1687,6.1612,6.1603,6.1595,6.1595,6.1586,6.1607,6.15,6.1489,6.1479,6.1421,6.1396,6.1421,6.1381,6.1352,6.1322,6.1306,6.0732,5.9924,5.9033,5.807,5.7091,5.6167,5.5995,5.5977,5.598,5.5362,5.48,5.4607,5.334,5.2319,5.2088,5.1316,5.0812,5.0812,5.0812,5.0812,5.0794,5.0794,5.0794,5.0794,5.0794,5.0794,5.0794,5.0794,5.0794,5.0794,5.0812,5.0812,5.0812,5.0812,5.0812,5.0773,5.0863,5.088,5.6358,5.6437,5.6503,5.6503,5.6503,5.6503,5.6503,5.6503,0.0,0.0,5.6511,5.6519,5.6488,5.6496,5.679,5.7674,0.0,0.0,0.0,0.0,6.172,0.0,0.0,0.0,0.0,0.0,0.0,0.0,0.0,0.0,6.1719,6.1719,6.1719,6.1719,6.1719,6.1719,6.1719,6.1701,6.1681,6.1686,6.1681,6.172,6.172,6.172,6.172,6.172,0.0,0.0,6.172,6.172,6.172,6.172,6.172,6.171,6.1705,6.1699,6.1641,6.1612,6.1603,6.1586,6.1616,6.1616,6.1607,6.1607,6.15,6.1518,6.1484,6.1408,6.1408,6.1381,6.1337,6.1322,6.1306,6.1314,6.1164,6.0726,5.9891,5.8445,5.7056,5.6152,5.598,5.598,5.5924,5.5808,5.5403,5.4651,5.4264,5.3549,5.2127,5.1277,5.0756,5.072,5.072,5.074,5.0741,5.0741,5.0741,5.0741,5.0741,5.0741,5.0741,5.0741,5.0741,5.0741,5.074,5.072,5.072,5.0756,5.0812,5.0812,5.0829,5.0829,5.6386,5.6466,5.6503,5.6503,5.6503,5.6503,5.6503,0.0,0.0,0.0,5.5801,5.5801,5.5809,5.6176,0.0,5.7063,5.7863,0.0,0.0,0.0,0.0,0.0,0.0,0.0,0.0,0.0,0.0,0.0,0.0,0.0,6.1719,6.1719,6.1719,6.1719,6.1719,6.1719,6.1719,6.1709,6.169,6.172,6.172,6.172,6.172,6.172,6.172,6.172,0.0,0.0,6.172,6.172,6.172,6.172,6.171,6.1705,6.1699,6.168,6.1619,6.1603,6.1586,6.1616,6.1607,6.1607,6.1607,6.1598,6.1518,6.1495,6.1472,6.1421,6.1394,6.1366,6.1337,6.1306,6.1275,6.1281,6.0881,6.0419,5.9994,5.8488,5.7137,5.6714,5.627,5.5924,5.5847,5.5847,5.5673,5.5188,5.478,5.4199,5.3315,5.2087,5.1164,5.0741,5.0683,5.0644,5.0663,5.0642,5.0584,5.0584,5.0584,5.0584,5.0584,5.0584,5.0584,5.0584,5.0624,5.0664,5.0664,5.0721,5.074,5.074,5.0758,5.0738,5.6114,5.631,5.6464,5.6503,5.6347,5.623,5.623,5.5567,0.0,5.4905,5.4905,5.4983,5.5178,0.0,5.6293,0.0,5.7226,5.8103,5.8967,5.9837,6.0705,0.0,0.0,0.0,0.0,0.0,0.0,0.0,0.0,0.0,6.1719,6.1719,6.1719,6.1719,6.1719,6.1718,6.1717,6.1711,6.1701,6.172,6.172,6.172,6.172,6.172,6.172,6.172,0.0,0.0,0.0,6.172,6.1715,6.1715,6.1705,6.1693,6.1687,6.1612,6.1595,6.1595,6.1616,6.1607,6.1607,6.1607,6.1607,6.1549,6.1534,6.1472,6.146,6.1394,6.1419,6.1366,6.1322,6.1291,6.1281,6.1191,6.0634,6.0094,5.99,5.8587,5.739,5.7236,5.6464,5.5865,5.5787,5.5768,5.5748,5.5682,5.516,5.4655,5.4418,5.3174,5.2043,5.1278,5.0814,5.0563,5.0563,5.0521,5.05,5.05,5.05,5.05,5.05,5.05,5.05,5.05,5.0542,5.0563,5.0563,5.0604,5.0682,5.0682,5.0837,5.0933,5.5208,5.5784,5.6437,5.6464,5.5918,5.5333,5.5333,0.0,5.4009,5.4009,5.4009,5.4281,5.5061,5.5256,0.0,0.0,5.7212,5.8091,5.8967,5.9837,6.0705,6.1603,0.0,0.0,0.0,0.0,0.0,0.0,0.0,0.0,0.0,6.1719,6.1719,6.1719,6.1719,6.1715,6.1686,6.1704,6.1701,6.172,6.172,6.172,6.172,6.172,6.172,6.172,0.0,0.0,0.0,6.172,6.171,6.1699,6.1699,6.168,6.1603,6.1603,6.1586,6.1607,6.1607,6.1607,6.1607,6.1607,6.1559,6.1528,6.1495,6.146,6.1396,6.1394,6.1419,6.1405,6.133,6.1297,6.1281,6.1155,6.1003,6.0713,5.9978,5.8993,5.8045,5.7271,5.6424,5.5787,5.5724,5.5724,5.5682,5.5646,5.5547,5.5216,5.4426,5.4158,5.3721,5.29,5.1442,5.05,5.05,5.05,5.05,5.05,5.05,5.05,5.05,5.05,5.05,5.05,5.05,5.05,5.05,5.0521,5.0521,5.056,5.1352,5.1718,5.4313,5.4577,5.484,5.4935,5.4671,5.4437,5.4437,5.3736,5.3112,5.3112,5.3112,5.3385,5.4281,5.4866,5.5489,5.6355,5.6808,5.7329,5.8169,5.9084,5.9954,6.0822,0.0,0.0,0.0,0.0,0.0,0.0,0.0,0.0,0.0,6.1719,6.1717,6.1704,6.1704,6.1704,6.1701,6.1694,6.169,6.172,6.172,6.172,6.172,6.172,6.172,6.172,0.0,0.0,0.0,6.171,6.1705,6.1699,6.1673,6.1619,6.1603,6.1586,6.1616,6.1607,6.1607,6.1607,6.1607,6.1607,6.1549,6.1489,6.1495,6.1472,6.1447,6.1394,6.1366,6.1337,6.1314,6.1264,6.1173,6.1118,6.1041,6.0925,6.0577,5.9783,5.8852,5.7983,5.7114,5.634,5.578,5.5665,5.5621,5.5585,5.5566,5.5427,5.5006,5.4532,5.4073,5.368,5.2196,5.1223,5.1223,5.068,5.039,5.039,5.039,5.039,5.039,5.0887,5.1155,5.1155,5.1698,5.1928,5.1928,5.1973,5.1995,5.1995,5.2363,5.2538,5.3418,5.3594,5.3818,5.3883,5.3697,5.3541,5.3541,5.284,5.2216,5.2216,5.2216,5.2567,5.3697,5.4398,5.5178,5.6308,5.648,5.6815,5.7694,5.8565,5.9402,0.0,0.0,0.0,0.0,0.0,0.0,0.0,0.0,0.0,0.0,6.1717,6.1711,6.1681,6.172,6.169,6.1701,6.169,6.172,6.172,6.172,6.172,6.172,6.172,6.172,0.0,0.0,0.0,0.0,6.1705,6.1699,6.1687,6.1619,6.1595,6.1586,6.1616,6.1607,6.1607,6.1607,6.1607,6.1607,6.1607,6.1559,6.1539,6.1495,6.1472,6.146,6.1394,6.1337,6.1291,6.1297,6.1173,6.1079,6.1099,6.1022,6.0982,6.0962,6.0222,5.9386,5.877,5.7764,5.6819,5.6186,5.5797,5.5577,5.5552,5.5492,5.5467,5.5415,5.4905,5.4536,5.4486,5.3211,5.2279,5.2035,5.1415,5.1047,5.1047,5.1047,5.1047,5.1047,5.162,5.1964,5.1964,5.2585,5.2877,5.2877,5.2924,5.2947,5.2947,5.3215,5.3468,5.2523,5.3156,5.3828,5.3875,5.3268,5.2606,5.2606,5.1943,5.132,5.132,5.132,5.1826,5.358,5.3931,5.4476,5.623,5.648,5.6815,5.7694,5.8565,5.9402,0.0,0.0,0.0,0.0,0.0,0.0,0.0,0.0,0.0,0.0,6.1701,6.1701,6.172,6.172,6.172,6.172,6.172,6.172,6.172,6.172,6.172,6.172,6.172,0.0,0.0,0.0,0.0,0.0,6.1705,6.1648,6.1595,6.1612,6.1586,6.1607,6.1607,6.1607,6.1607,6.1607,6.1607,6.1607,6.1607,6.1607,6.1598,6.1507,6.146,6.1396,6.1381,6.1361,6.1297,6.1247,6.1155,6.106,6.1022,6.1,6.0976,6.0933,6.0173,5.9511,5.9473,5.8127,5.6973,5.69,5.6153,5.5552,5.5428,5.5403,5.5403,5.5403,5.5403,5.5403,5.5403,5.4523,5.3646,5.2843,5.2766,5.2766,5.2766,5.2766,5.2766,5.2766,5.2766,5.2805,5.2805,5.2805,5.2805,5.2805,5.2805,5.2805,5.2805,5.3757,5.4671,5.0703,5.1356,5.2038,5.2113,5.1935,5.171,5.171,5.1515,5.132,5.132,5.132,5.1826,5.358,5.3892,5.4476,5.623,5.6511,5.68,0.0,0.0,0.0,0.0,0.0,0.0,0.0,0.0,0.0,0.0,0.0,0.0,0.0,0.0,6.1686,6.172,6.172,6.172,6.172,6.172,6.172,6.172,6.172,6.172,6.172,6.172,0.0,0.0,0.0,0.0,0.0,6.1648,6.1634,6.1612,6.1586,6.1616,6.1607,6.1607,6.1607,6.1607,6.1607,6.1607,6.1607,6.1607,6.1607,6.1598,6.1528,6.1495,6.1447,6.1376,6.1314,6.1281,6.1155,6.106,6.1022,6.1002,6.098,6.0933,6.0911,6.0635,6.0204,5.9627,5.9027,5.8258,5.7071,5.6606,5.6129,5.5479,5.5403,5.5403,5.5403,5.5403,5.5339,5.5275,5.5019,5.4497,5.3684,5.3022,5.2653,5.2653,5.2653,5.2653,5.2653,5.3225,5.3529,5.3529,5.4063,5.4394,5.4394,5.4394,5.4421,5.4473,5.483,5.5173,4.9332,5.0052,5.0734,5.0772,5.1062,5.1312,5.132,5.132,5.132,5.132,5.132,5.1826,5.358,5.3892,5.4476,5.623,5.6503,0.0,0.0,0.0,0.0,0.0,0.0,0.0,0.0,0.0,0.0,0.0,0.0,0.0,0.0,0.0,6.172,6.172,6.172,6.172,6.172,6.172,6.172,6.172,6.172,6.172,6.172,6.172,0.0,0.0,0.0,0.0,0.0,6.1634,6.1612,6.1603,6.1616,6.1607,6.1607,6.1607,6.1607,6.1607,6.1607,6.1607,6.1607,6.1607,6.1559,6.1549,6.1518,6.1495,6.1434,6.1345,6.1297,6.1281,6.1137,6.1041,6.1002,6.1021,6.0938,6.0911,6.0888,6.0804,6.0627,6.0089,5.9681,5.9042,5.7981,5.7186,5.6499,5.5938,5.5594,5.5377,5.5339,5.5313,5.5275,5.5157,5.513,5.4912,5.4417,5.3857,5.3552,5.3552,5.3552,5.3552,5.3552,5.4085,5.4351,5.4351,5.4846,5.5113,5.5113,5.5113,5.5102,5.5157,5.5248,5.5301,0.0,4.9109,4.9819,4.9945,5.0625,5.1217,5.1273,5.132,0.0,5.132,5.1359,5.1904,5.358,5.397,5.4554,5.623,0.0,0.0,0.0,0.0,0.0,0.0,0.0,0.0,0.0,0.0,0.0,0.0,0.0,0.0,0.0,0.0,6.172,6.172,6.172,6.172,6.172,6.172,6.172,6.172,6.172,6.172,6.172,6.172,0.0,0.0,0.0,0.0,0.0,6.1619,6.1603,6.1595,6.1616,6.1607,6.1607,6.1607,6.1607,6.1607,6.1607,6.1607,6.1607,6.1607,6.1549,6.1528,6.1495,6.146,6.1369,6.133,6.1297,6.1281,6.1137,6.1041,6.0982,6.0997,6.0955,6.0888,6.0804,6.0781,6.0781,6.0781,6.0104,5.9442,5.9332,5.7953,5.6804,5.6625,5.595,5.5415,5.5248,5.5183,5.5157,5.5113,5.5057,5.5,5.5,5.5057,5.5113,5.5113,5.5113,5.5113,5.5113,5.5113,5.5113,5.5113,5.5113,5.5113,5.5113,5.5113,5.5113,5.5075,5.5157,5.5183,4.6396,0.0,4.907,4.9751,5.0121,5.049,0.0,5.1295,5.1304,5.132,5.1826,5.2606,5.3697,5.4437,5.5256,0.0,0.0,0.0,0.0,0.0,0.0,0.0,0.0,0.0,0.0,0.0,0.0,0.0,0.0,0.0,0.0,0.0,6.172,6.172,6.172,6.172,6.172,6.172,6.172,6.172,6.172,6.172,6.172,6.172,0.0,0.0,0.0,0.0,6.1602,6.1612,6.1595,6.1616,6.1607,6.1607,6.1607,6.1607,6.1607,6.1607,6.1607,6.1607,6.1607,6.1607,6.1607,6.1549,6.1534,6.146,6.1369,6.133,6.1297,6.1264,6.106,6.1021,6.0997,6.0933,6.0888,6.0804,6.0781,6.0781,6.0781,6.0742,6.0512,6.008,5.9332,5.8819,5.8088,5.679,5.6382,5.6011,5.5298,5.513,5.5113,5.5028,5.5,5.4971,5.4912,5.4912,5.4941,5.4941,5.4941,5.4941,5.4941,5.4941,5.4941,5.4941,5.4941,5.4941,5.4941,5.5,5.5028,5.5028,5.5113,5.5102,4.5763,4.6978,4.8194,4.9109,4.9624,5.0189,5.1074,5.123,5.1356,5.1754,5.223,5.2979,5.4225,5.4857,0.0,0.0,0.0,0.0,0.0,0.0,0.0,0.0,0.0,0.0,0.0,0.0,0.0,0.0,0.0,0.0,0.0,0.0,6.172,6.172,6.172,6.172,6.172,6.172,6.172,6.172,6.172,6.172,6.172,6.172,0.0,0.0,0.0,0.0,6.1595,6.1603,6.1616,6.1607,6.1607,6.1607,6.1607,6.1607,6.1607,6.1607,6.1607,6.1607,6.1607,6.1607,6.1607,6.1598,6.1518,6.1484,6.1434,6.1345,6.1297,6.1225,6.1041,6.1,6.0976,6.0933,6.0866,6.0781,6.0781,6.0781,6.0742,6.0704,6.0627,6.0402,5.9894,5.9442,5.8814,5.7859,5.703,5.6328,5.5843,5.5341,5.5028,5.4941,5.4941,5.4941,5.4882,5.489,5.489,5.492,5.492,5.492,5.492,5.492,5.492,5.492,5.492,5.492,5.492,5.4912,5.4941,5.4941,5.5028,5.5057,4.5608,4.654,4.7512,4.8399,4.9137,4.9964,5.0967,5.1278,5.159,5.2339,0.0,5.3428,5.483,5.5277,0.0,0.0,0.0,0.0,0.0,0.0,0.0,0.0,0.0,0.0,0.0,0.0,0.0,0.0,0.0,0.0,0.0,0.0,0.0,6.172,6.172,6.172,6.172,6.172,6.172,6.172,6.172,6.172,6.172,6.172,0.0,0.0,0.0,0.0,6.1595,6.1586,6.1607,6.1607,6.1607,6.1607,6.1607,6.1607,6.1607,6.1607,6.1607,6.1559,6.1559,6.1559,6.1559,6.1559,6.1539,6.1507,6.146,6.1361,6.1314,6.1264,6.1041,6.1,6.0976,6.0911,6.0827,6.0781,6.0781,6.0742,6.0704,6.0681,6.0604,6.0493,6.0502,5.9807,5.9272,5.912,5.7805,5.6796,5.6597,5.575,5.516,5.511,5.4996,5.492,5.489,5.4829,5.4829,5.489,5.489,5.489,5.489,5.489,5.489,5.489,5.489,5.489,5.489,5.492,5.492,5.4882,5.4941,5.4971,4.4753,4.6113,4.7512,4.8366,4.8688,4.9232,5.082,5.1763,5.2347,5.2485,0.0,0.0,0.0,5.5696,0.0,0.0,0.0,0.0,0.0,0.0,0.0,0.0,0.0,0.0,0.0,0.0,0.0,0.0,0.0,0.0,0.0,0.0,0.0,6.172,6.172,6.172,6.172,6.172,6.172,6.172,6.172,6.172,6.172,6.172,6.172,0.0,0.0,6.1595,6.1595,6.1586,6.1607,6.1607,6.1607,6.1607,6.1607,6.1607,6.1607,6.1607,6.1549,6.1539,6.1539,6.1539,6.1539,6.15,6.1489,6.1507,6.1472,6.1419,6.1345,6.1264,6.1059,6.0997,6.0976,6.0827,6.0781,6.0781,6.0781,6.0742,6.0681,6.0635,6.0533,6.0482,6.0436,6.0293,5.9922,5.914,5.8749,5.8234,5.7422,5.6535,5.5981,5.5981,5.5337,5.489,5.4829,5.4799,5.4767,5.4736,5.4736,5.4736,5.4736,5.4736,5.4736,5.4736,5.4767,5.4799,5.4799,5.489,5.492,5.492,5.4882,5.495,4.4559,4.6035,4.7512,4.8366,4.8949,4.9737,5.1458,5.2158,5.2702,5.3647,0.0,0.0,0.0,0.0,0.0,0.0,0.0,0.0,0.0,0.0,0.0,0.0,0.0,0.0,0.0,0.0,0.0,0.0,0.0,0.0,0.0,0.0,0.0,0.0,6.172,6.172,6.172,6.172,6.172,6.172,6.172,6.172,6.172,6.172,6.172,6.1715,0.0,6.1595,6.1595,6.1586,6.1607,6.1607,6.1607,6.1607,6.1607,6.1607,6.1607,6.1607,6.15,6.1489,6.1489,6.1507,6.1507,6.1507,6.1507,6.1495,6.1511,6.1433,6.1361,6.1264,6.106,6.1018,6.0955,6.0804,6.0781,6.0781,6.0742,6.0704,6.0642,6.0556,6.0508,6.0453,6.0436,6.038,6.0208,5.976,5.9185,5.8677,5.8266,5.7408,5.6853,5.6791,5.6034,5.5473,5.5416,5.4899,5.4673,5.4673,5.4673,5.4673,5.4673,5.4673,5.4673,5.4673,5.4705,5.4736,5.4736,5.4799,5.486,5.486,5.5345,5.5602,4.4326,4.6035,4.7745,4.8444,4.926,5.0348,5.2018,5.2562,5.3183,0.0,0.0,0.0,0.0,0.0,0.0,0.0,0.0,0.0,0.0,0.0,0.0,0.0,0.0,0.0,0.0,0.0,0.0,0.0,0.0,0.0,0.0,0.0,0.0,0.0,6.172,6.172,6.172,6.172,6.172,6.172,6.172,6.172,6.172,6.172,6.1715,6.1715,6.1648,6.1595,6.1588,6.1586,6.1607,6.1607,6.1607,6.1607,6.1607,6.1607,6.1607,6.1559,6.1528,6.1479,6.1468,6.1484,6.1472,6.1472,6.1523,6.1484,6.1511,6.1433,6.1361,6.1242,6.1041,6.1,6.0955,6.0804,6.0781,6.0781,6.0704,6.0642,6.058,6.0512,6.0444,6.0408,6.0408,6.0323,6.0303,6.0264,5.9574,5.9102,5.9071,5.8249,5.7655,5.7559,5.6803,5.6204,5.5885,5.5216,5.4731,5.4646,5.4608,5.4608,5.4608,5.4608,5.4608,5.4608,5.4641,5.4641,5.4641,5.4925,5.507,5.5101,5.6034,5.6443,4.3588,4.5997,4.8522,4.8561,4.926,5.0348,5.2018,5.3028,0.0,5.5864,0.0,0.0,0.0,0.0,0.0,0.0,0.0,0.0,0.0,0.0,0.0,0.0,0.0,0.0,0.0,0.0,0.0,0.0,0.0,0.0,0.0,0.0,0.0,0.0,0.0,6.172,6.172,6.172,6.172,6.172,6.172,6.172,6.172,6.172,6.171,6.1699,6.1641,6.1588,6.1603,6.1616,6.1607,6.1607,6.1607,6.1607,6.1607,6.1607,6.1559,6.1489,6.1495,6.1472,6.1408,6.1396,6.1396,6.1408,6.1472,6.1484,6.1511,6.1433,6.1352,6.1236,6.106,6.1,6.0955,6.0804,6.0781,6.0781,6.0704,6.0647,6.0597,6.0527,6.0444,6.0408,6.0408,6.0352,6.0264,6.0099,6.0,5.9868,5.9842,5.9089,5.8565,5.8462,5.7673,5.6814,5.5894,5.5642,5.5197,5.448,5.4443,5.4443,5.4443,5.4443,5.4443,5.4443,5.4472,5.4505,5.4505,5.5395,5.5837,5.5933,5.6803,5.7245,4.35,4.5997,4.8599,4.8599,5.0037,0.0,0.0,5.431,5.567,5.6874,5.7768,0.0,0.0,0.0,0.0,0.0,0.0,0.0,0.0,0.0,0.0,0.0,0.0,0.0,0.0,0.0,0.0,0.0,0.0,0.0,0.0,0.0,0.0,0.0,0.0,6.172,6.172,6.172,6.172,6.172,6.172,6.172,6.172,6.172,6.171,6.1699,6.1641,6.1588,6.1603,6.1616,6.1607,6.1607,6.1607,6.1607,6.1607,6.1607,6.1549,6.1489,6.1495,6.146,6.1396,6.1408,6.1394,6.1408,6.1408,6.146,6.1408,6.1352,6.1268,6.1203,6.1041,6.1,6.0955,6.0804,6.0781,6.0781,6.0666,6.0647,6.0585,6.0456,6.0414,6.038,6.037,6.0235,6.0137,6.0038,5.9982,5.9918,5.9885,5.9625,5.9299,5.9194,5.8339,5.7441,5.6582,5.6472,5.6286,5.5986,5.4972,5.4409,5.4409,5.4409,5.4409,5.4409,5.4931,5.5157,5.5194,5.6124,5.6606,5.6639,5.7602,5.8084,4.3451,4.5986,4.8677,4.8949,0.0,0.0,5.4271,5.5437,5.6602,5.7729,5.8869,0.0,0.0,0.0,0.0,0.0,0.0,0.0,0.0,0.0,0.0,0.0,0.0,0.0,0.0,0.0,0.0,0.0,0.0,0.0,0.0,0.0,0.0,0.0,0.0,0.0,6.172,6.172,6.172,6.172,6.172,6.172,6.172,6.172,6.1671,6.1654,6.1602,6.158,6.1586,6.1616,6.1607,6.1607,6.1607,6.1607,6.1607,6.1607,6.1549,6.1518,6.1495,6.146,6.1408,6.1381,6.1419,6.1419,6.1366,6.1366,6.1366,6.1291,6.122,6.1169,6.1022,6.098,6.0955,6.0804,6.0781,6.0742,6.0627,6.0594,6.0546,6.0425,6.0408,6.038,6.0319,6.0175,6.0068,6.0013,5.995,5.9885,5.9853,5.9824,5.9723,5.9581,5.8911,5.8164,5.7338,5.7263,5.7187,5.6925,5.5836,5.5197,5.5197,5.5197,5.5197,5.5197,5.5723,5.6023,5.6023,5.692,5.7369,5.7404,5.8404,5.885,4.3391,4.5936,4.8794,4.9687,0.0,0.0,5.5903,5.6291,5.6796,5.8467,0.0,6.1484,0.0,0.0,0.0,0.0,0.0,0.0,0.0,0.0,0.0,0.0,0.0,0.0,0.0,0.0,0.0,0.0,0.0,0.0,0.0,0.0,0.0,0.0,0.0,0.0,6.172,6.172,6.172,6.172,6.172,6.172,6.172,6.172,6.1666,6.1595,6.1595,6.1612,6.1607,6.1607,6.1607,6.1607,6.1607,6.1607,6.1607,6.1607,6.1578,6.1484,6.1484,6.1473,6.1419,6.1419,6.1419,6.1405,6.1337,6.1352,6.1391,6.1264,6.1229,6.1194,6.1078,6.1036,6.0993,6.0843,6.0742,6.0666,6.0627,6.055,6.0479,6.0387,6.0408,6.038,6.0319,6.0175,6.0068,6.0013,5.995,5.989,5.9791,5.9828,5.9723,5.9547,5.9401,5.899,5.8201,5.8126,5.7788,5.6962,5.6925,5.6925,5.6887,5.6887,5.6887,5.6887,5.6887,5.6887,5.6887,5.7713,5.8125,5.8232,5.9166,5.965,4.3397,4.5953,0.0,4.9625,0.0,0.0,0.0,5.7224,0.0,0.0,6.1085,0.0,0.0,0.0,0.0,0.0,0.0,0.0,0.0,0.0,0.0,0.0,0.0,0.0,0.0,0.0,0.0,0.0,0.0,0.0,0.0,0.0,0.0,0.0,0.0,0.0,6.172,6.172,6.172,6.172,6.172,6.172,6.172,6.172,6.1671,6.1654,6.1602,6.158,6.1595,6.1616,6.1607,6.1607,6.1607,6.1607,6.1607,6.1607,6.1578,6.1484,6.1484,6.1473,6.1419,6.1419,6.1352,6.1453,6.202,6.2222,6.2289,6.2819,6.2936,6.2877,6.2712,6.2706,6.2375,6.1112,6.0742,6.0681,6.0622,6.0556,6.0479,6.0387,6.0361,6.0273,6.0175,6.0076,6.0013,5.995,5.9918,5.982,5.9685,5.9618,5.9547,5.9401,5.929,5.9215,5.8952,5.8952,5.884,5.8614,5.8577,5.8089,5.6962,5.6887,5.6887,5.6887,5.745,5.7751,5.7751,5.8539,5.8952,5.8951,5.9395,5.9616,4.34,4.5917,0.0,4.9588,5.1735,5.4272,5.6717,0.0,0.0,0.0,0.0,0.0,0.0,0.0,0.0,0.0,0.0,0.0,0.0,0.0,0.0,0.0,0.0,0.0,0.0,0.0,0.0,0.0,0.0,0.0,0.0,0.0,0.0,0.0,0.0,0.0,6.172,6.172,6.172,6.172,6.172,6.172,6.172,6.172,6.171,6.1699,6.1634,6.1612,6.1586,6.1616,6.1607,6.1607,6.1607,6.1607,6.1607,6.1607,6.1539,6.1495,6.1484,6.1447,6.1394,6.1381,6.1585,6.1904,6.2416,6.2754,6.307,6.3535,6.359,6.3527,6.3438,6.3392,6.3099,6.205,6.1728,6.1627,6.1595,6.1518,6.1339,6.0961,6.081,6.0646,6.019,6.0045,5.9975,5.9918,5.982,5.9719,5.9581,5.9474,5.9401,5.929,5.929,5.929,5.929,5.929,5.929,5.929,5.929,5.884,5.7865,5.7863,5.7863,5.7863,5.8351,5.8577,5.8577,5.9065,5.929,5.929,5.951,5.9616,4.3376,4.588,0.0,4.9588,5.1837,0.0,0.0,0.0,0.0,0.0,0.0,0.0,0.0,0.0,0.0,0.0,0.0,0.0,0.0,0.0,0.0,0.0,0.0,0.0,0.0,0.0,0.0,0.0,0.0,0.0,0.0,0.0,0.0,0.0,0.0,0.0,6.172,6.172,6.172,0.0,6.172,6.172,6.172,6.172,6.171,6.1699,6.1619,6.1595,6.1607,6.1607,6.1607,6.1607,6.1607,6.1607,6.1607,6.1607,6.1549,6.1489,6.1495,6.146,6.1396,6.1394,6.1934,6.2587,6.2616,6.3201,6.3826,6.3804,6.378,6.3714,6.3646,6.3599,6.3551,6.3526,6.3306,6.3113,6.3105,6.2974,6.2672,6.1879,6.1649,6.1306,6.0475,6.0172,6.0051,5.9918,5.9719,5.9581,5.9512,5.9401,5.929,5.929,5.929,5.929,5.929,5.9253,5.9177,5.9177,5.9177,5.9177,5.9177,5.929,5.929,5.929,5.929,5.929,5.929,5.929,5.929,5.929,5.951,5.9616,4.3337,4.588,0.0,0.0,5.2715,5.618,5.8234,0.0,0.0,0.0,0.0,0.0,0.0,0.0,0.0,0.0,0.0,0.0,0.0,0.0,0.0,0.0,0.0,0.0,0.0,0.0,0.0,0.0,0.0,0.0,0.0,0.0,0.0,0.0,0.0,6.172,6.172,6.172,6.172,0.0,6.172,6.172,6.172,6.172,6.171,6.1699,6.1641,6.1619,6.1595,6.1616,6.1607,6.1607,6.1607,6.1607,6.1607,6.1607,6.1549,6.1489,6.1489,6.1445,6.1396,6.1383,6.1895,6.2654,6.3313,6.4056,6.4831,6.5324,6.5473,6.545,6.537,6.532,6.5359,6.5282,6.4142,6.3079,6.3027,6.2978,6.2833,6.268,6.25,6.2319,6.2091,6.1386,6.0633,5.9923,5.9685,5.9583,5.951,5.9364,5.929,5.929,5.929,5.929,5.929,5.9253,5.9177,5.9177,5.91,5.91,5.9177,5.929,5.929,5.929,5.929,5.929,5.929,5.929,5.929,5.929,5.951,5.9616,4.3208,0.0,0.0,5.0898,0.0,5.6078,5.817,0.0,0.0,0.0,0.0,0.0,0.0,0.0,0.0,0.0,0.0,0.0,0.0,0.0,0.0,0.0,0.0,0.0,0.0,0.0,0.0,0.0,0.0,0.0,0.0,0.0,0.0,0.0,6.172,6.172,6.172,6.172,6.172,6.172,6.172,6.172,6.172,6.172,6.171,6.1699,6.1654,6.1634,6.1619,6.1603,6.1595,6.1586,6.1586,6.1616,6.1607,6.1607,6.1559,6.1549,6.15,6.1468,6.1445,6.1408,6.2182,6.3253,6.3662,6.4619,6.5582,6.592,6.599,6.5982,6.5923,6.5897,6.5872,6.5728,6.4983,6.4277,6.4227,6.4164,6.3978,6.3604,6.3359,6.307,6.2644,6.1771,6.0936,6.0411,5.9908,5.9545,5.94,5.9327,5.929,5.929,5.929,5.929,5.9253,5.9177,5.91,5.9059,5.8982,5.8982,5.91,5.9215,5.929,5.929,5.929,5.929,5.929,5.929,5.929,5.929,5.951,5.9616,4.3053,0.0,4.8237,5.2105,5.3807,0.0,5.7598,5.8952,0.0,0.0,0.0,0.0,0.0,0.0,0.0,0.0,0.0,0.0,0.0,0.0,0.0,0.0,0.0,0.0,0.0,0.0,0.0,0.0,0.0,0.0,0.0,0.0,6.172,6.172,6.172,6.172,6.172,6.172,6.172,6.172,6.172,6.172,6.172,6.172,6.1715,6.1705,6.1699,6.1654,6.1602,6.1595,6.1588,6.1612,6.1612,6.1595,6.1578,6.1616,6.1616,6.1568,6.1549,6.15,6.1479,6.1421,6.256,6.3883,6.3834,6.4871,6.6102,6.6036,6.6005,6.5996,6.5923,6.5897,6.5872,6.5635,6.558,6.5552,6.5475,6.5427,6.5222,6.4543,6.4215,6.3791,6.2924,6.2088,6.1392,6.0974,6.0282,5.9698,5.9365,5.929,5.929,5.929,5.929,5.929,5.9213,5.9061,5.8982,5.8899,5.8859,5.894,5.8984,5.91,5.9215,5.929,5.929,5.929,5.929,5.929,5.929,5.929,5.951,5.9616,4.3053,0.0,4.8701,0.0,5.2453,5.4155,0.0,0.0,0.0,0.0,0.0,0.0,0.0,0.0,0.0,0.0,0.0,0.0,0.0,0.0,0.0,0.0,0.0,0.0,0.0,0.0,0.0,0.0,0.0,0.0,0.0,6.172,6.172,6.172,6.172,6.172,6.172,6.172,6.172,6.172,6.172,6.172,6.172,6.172,6.1715,6.1715,6.1705,6.1699,6.1693,6.1602,6.1595,6.1595,6.1595,6.1588,6.1588,6.1603,6.1595,6.1595,6.1568,6.1549,6.1489,6.1484,6.2588,6.3876,6.3834,6.4909,6.6144,6.6036,6.6005,6.5996,6.5923,6.5897,6.5872,6.5635,6.5597,6.5569,6.5435,6.5413,6.5337,6.5184,6.4971,6.4544,6.3643,6.3378,6.2732,6.1164,6.0818,6.0378,5.9403,5.929,5.929,5.929,5.929,5.929,5.9213,5.9061,5.8982,5.8899,5.8818,5.8821,5.8984,5.9024,5.9101,5.929,5.929,5.929,5.929,5.929,5.929,5.929,5.951,5.9616,4.3556,4.6187,4.8817,0.0,5.1834,5.3343,5.5509,0.0,0.0,0.0,0.0,0.0,0.0,0.0,0.0,0.0,0.0,0.0,0.0,0.0,0.0,0.0,0.0,0.0,0.0,0.0,0.0,0.0,0.0,0.0,6.1654,6.1654,6.1654,6.1654,6.1654,6.1654,6.1654,6.1666,6.171,6.172,6.172,6.172,6.172,6.172,6.172,6.172,6.1715,6.171,6.171,6.1666,6.166,6.1648,6.1648,6.1641,6.1595,6.1588,6.158,6.158,6.1612,6.1595,6.1568,6.1539,6.2289,6.3298,6.3728,6.4599,6.5505,6.5881,6.5982,6.5947,6.5897,6.5897,6.5833,6.5624,6.5597,6.5542,6.5405,6.5413,6.5352,6.5237,6.5107,6.485,6.4398,6.3909,6.3303,6.2429,6.1464,6.0679,6.0116,5.9628,5.929,5.929,5.929,5.9253,5.9215,5.9061,5.902,5.8942,5.8899,5.8902,5.91,5.91,5.9177,5.929,5.929,5.929,5.929,5.929,5.929,5.929,5.951,5.9616,0.0,0.0,4.843,4.99,5.1061,5.2414,0.0,0.0,0.0,0.0,0.0,0.0,0.0,0.0,0.0,0.0,0.0,0.0,0.0,0.0,0.0,0.0,0.0,0.0,0.0,0.0,0.0,0.0,0.0,0.0,6.1595,6.1595,6.1595,6.1595,6.1595,6.1595,6.1595,6.1648,6.166,6.1671,6.1671,6.1671,6.1671,6.1671,6.1671,6.1671,6.1676,6.172,6.172,6.172,6.1715,6.1705,6.1705,6.166,6.1648,6.1641,6.1641,6.1602,6.1595,6.1588,6.1603,6.1586,6.2112,6.2873,6.3658,6.4307,6.4981,6.5804,6.5958,6.5897,6.5897,6.5897,6.5833,6.564,6.5613,6.5569,6.5405,6.5375,6.5359,6.5224,6.5078,6.4964,6.4926,6.436,6.3795,6.3419,6.2333,6.1319,6.0679,6.0041,5.9553,5.9328,5.929,5.9253,5.9215,5.91,5.9059,5.8984,5.8942,5.902,5.9177,5.9177,5.9215,5.929,5.929,5.929,5.929,5.929,5.929,5.9327,5.9545,5.9616,4.3324,4.522,0.0,4.8314,4.9745,0.0,0.0,0.0,0.0,0.0,0.0,0.0,0.0,0.0,0.0,0.0,0.0,0.0,0.0,0.0,0.0,0.0,0.0,0.0,0.0,0.0,0.0,0.0,0.0,0.0,6.1595,6.1595,6.1595,6.1595,6.1595,6.1595,6.1595,6.1595,6.1595,6.1602,6.1602,6.1602,6.1602,6.1602,6.1602,6.1602,6.1671,6.172,6.172,6.172,6.172,6.1715,6.1715,6.1715,6.1676,6.1705,6.1699,6.1693,6.1602,6.1595,6.1588,6.1612,6.2153,6.2947,6.3701,6.436,6.5062,6.5804,6.5958,6.5897,6.5897,6.5897,6.5859,6.5667,6.5603,6.5589,6.5435,6.5337,6.5283,6.5186,6.5078,6.4964,6.4926,6.485,6.4512,6.3568,6.3314,6.2632,6.083,6.0566,6.0229,5.9365,5.929,5.9253,5.9215,5.9178,5.9139,5.8984,5.8984,5.9061,5.9177,5.9177,5.9215,5.929,5.929,5.929,5.929,5.929,5.9365,5.9512,5.9581,5.965,4.3285,0.0,0.0,4.7502,4.8856,5.0364,0.0,0.0,0.0,0.0,0.0,0.0,0.0,0.0,0.0,0.0,0.0,0.0,0.0,0.0,0.0,0.0,0.0,0.0,0.0,0.0,0.0,0.0,0.0,0.0,6.1549,6.1549,6.1549,6.1549,6.1549,6.1559,6.1539,6.1586,6.1603,6.1612,6.1588,6.1595,6.1595,6.1595,6.1595,6.1595,6.1648,6.1654,6.1654,6.1654,6.1654,6.1654,6.1654,6.1654,6.1654,6.1648,6.1648,6.1641,6.1602,6.1588,6.1612,6.158,6.1772,6.2223,6.3521,6.399,6.4347,6.5655,6.5943,6.5897,6.5897,6.5897,6.5846,6.5618,6.559,6.5523,6.5444,6.5337,6.5268,6.522,6.5099,6.4964,6.4926,6.4888,6.4737,6.4247,6.3728,6.2891,6.1541,6.0943,6.0266,5.9365,5.929,5.929,5.9253,5.9215,5.9214,5.9178,5.9177,5.9177,5.929,5.929,5.929,5.929,5.929,5.929,5.929,5.929,5.9365,5.9512,5.9581,5.965,4.3272,4.4949,4.6728,0.0,0.0,4.9126,0.0,0.0,0.0,0.0,0.0,0.0,0.0,0.0,0.0,0.0,0.0,0.0,0.0,0.0,0.0,0.0,0.0,0.0,0.0,0.0,0.0,0.0,0.0,0.0,6.1447,6.146,6.1472,6.1484,6.1484,6.1495,6.1518,6.1528,6.1705,6.1997,6.2015,6.2141,6.2414,6.2414,6.2414,6.2414,6.2414,6.2118,6.1595,6.1595,6.1595,6.1595,6.1595,6.1595,6.1595,6.1595,6.1595,6.1595,6.1595,6.1588,6.1612,6.158,6.1772,6.2184,6.3482,6.3967,6.429,6.5638,6.5943,6.5897,6.5897,6.5859,6.5808,6.5638,6.552,6.549,6.5413,6.5375,6.5307,6.5238,6.5133,6.504,6.4926,6.4888,6.485,6.4626,6.4143,6.3343,6.2026,6.1356,6.0604,5.9403,5.929,5.929,5.929,5.9253,5.9253,5.929,5.9253,5.9253,5.929,5.929,5.929,5.929,5.929,5.929,5.9365,5.9365,5.9438,5.951,5.9616,5.9757,0.0,0.0,0.0,0.0,0.0,0.0,0.0,0.0,0.0,0.0,0.0,0.0,0.0,0.0,0.0,0.0,0.0,0.0,0.0,0.0,0.0,0.0,0.0,0.0,0.0,0.0,0.0,0.0,0.0,6.1381,6.1381,6.1408,6.1447,6.1472,6.1472,6.1511,6.1511,6.1511,6.199,6.2846,6.2846,6.3235,6.4013,6.4013,6.4013,6.4013,6.4013,6.3107,6.1673,6.1673,6.1673,6.1673,6.1673,6.1673,6.1673,6.1673,6.1673,6.1673,6.1673,6.1673,6.1666,6.1681,6.2192,6.2986,6.3701,6.4394,6.5045,6.5793,6.5943,6.5897,6.5897,6.5859,6.5795,6.5635,6.5571,6.549,6.5413,6.5413,6.5383,6.5264,6.5179,6.5116,6.4926,6.4888,6.485,6.4737,6.4634,6.3949,6.222,6.1883,6.1168,5.9478,5.929,5.929,5.929,5.929,5.929,5.929,5.929,5.929,5.929,5.929,5.929,5.929,5.929,5.9365,5.9512,5.9512,5.951,5.9616,5.9757,5.9824,4.4075,0.0,0.0,0.0,0.0,0.0,0.0,4.8469,0.0,0.0,0.0,0.0,0.0,0.0,0.0,0.0,0.0,0.0,0.0,0.0,0.0,0.0,0.0,0.0,0.0,0.0,0.0,0.0,6.0375,6.0647,6.1291,6.1345,6.1361,6.1376,6.1376,6.1632,6.2215,6.2284,6.2726,6.358,6.3609,6.3754,6.4014,6.4014,6.3988,6.4013,6.4013,6.3764,6.332,6.332,6.332,6.332,6.332,6.332,6.332,6.332,6.332,6.332,6.332,6.332,6.333,6.3369,6.348,6.374,6.4605,6.4882,6.5064,6.5788,6.5996,6.5936,6.5897,6.5897,6.5833,6.5635,6.559,6.5541,6.5444,6.5413,6.5375,6.5276,6.5242,6.5154,6.5002,6.4926,6.485,6.4737,6.4668,6.403,6.2259,6.1958,6.1281,5.9478,5.929,5.929,5.929,5.929,5.929,5.929,5.929,5.929,5.929,5.929,5.929,5.929,5.9401,5.9438,5.9512,5.9512,5.9583,5.9757,5.9857,5.9885,4.4415,4.5047,4.5696,4.575,0.0,0.0,4.6993,4.7457,0.0,0.0,0.0,0.0,0.0,0.0,0.0,0.0,0.0,0.0,0.0,0.0,0.0,0.0,0.0,0.0,0.0,0.0,0.0,0.0,5.9426,5.9791,6.0683,6.107,6.1281,6.1297,6.1297,6.153,6.1995,6.2361,6.2998,6.3851,6.4233,6.4598,6.5017,6.4993,6.5008,6.4998,6.5012,6.5064,6.5064,6.5064,6.4649,6.4013,6.4013,6.4001,6.3988,6.3988,6.3975,6.3962,6.3962,6.3962,6.3962,6.4014,6.4206,6.4481,6.497,6.5291,6.5529,6.5903,6.5996,6.5936,6.5897,6.5897,6.5872,6.5728,6.5646,6.559,6.5435,6.5444,6.5375,6.5314,6.5237,6.5145,6.5034,6.4961,6.4888,6.4813,6.4474,6.3686,6.2259,6.1695,6.0867,5.944,5.929,5.929,5.929,5.929,5.929,5.929,5.929,5.929,5.929,5.929,5.929,5.929,5.9438,5.9547,5.9618,5.9618,5.9688,5.9857,5.9853,5.995,4.4575,4.5109,4.568,0.0,0.0,0.0,4.6684,4.6838,4.7108,0.0,0.0,0.0,0.0,0.0,0.0,0.0,0.0,0.0,0.0,0.0,0.0,0.0,0.0,0.0,0.0,0.0,5.7366,5.8255,5.8488,5.8931,5.9702,6.0592,6.1092,6.1126,6.1242,6.132,6.1397,6.2134,6.2986,6.3917,6.473,6.5544,6.6376,6.6411,6.6406,6.6406,6.6493,6.6508,6.6508,6.6508,6.562,6.4273,6.4273,6.4247,6.4259,6.4259,6.4231,6.4202,6.4202,6.4202,6.4186,6.4194,6.4643,6.5209,6.5139,6.5643,6.6167,6.6058,6.5958,6.5923,6.5897,6.5897,6.5872,6.582,6.5701,6.558,6.5523,6.5435,6.5413,6.5321,6.5264,6.5161,6.5023,6.4958,6.4888,6.4888,6.4098,6.3194,6.2255,6.1317,6.0341,5.944,5.929,5.929,5.929,5.929,5.929,5.929,5.929,5.929,5.929,5.929,5.929,5.929,5.9438,5.9618,5.9791,5.9791,5.9857,5.9885,5.9918,5.9988,0.0,0.0,0.0,0.0,0.0,0.0,4.5912,4.5951,4.6182,0.0,0.0,0.0,0.0,0.0,0.0,0.0,0.0,0.0,0.0,0.0,0.0,0.0,0.0,0.0,0.0,0.0,5.5552,5.6437,5.7791,5.8642,5.8854,5.9666,6.0169,6.0187,6.0807,6.1485,6.2181,6.2336,6.3187,6.4793,6.4948,6.547,6.6322,6.6376,6.6411,6.6406,6.6493,6.6508,6.6508,6.6508,6.6329,6.6018,6.6018,6.5965,6.5918,6.5918,6.594,6.5907,6.5907,6.5907,6.5907,6.589,6.5971,6.6069,6.605,6.6109,6.6165,6.6059,6.5972,6.5958,6.5923,6.5897,6.5872,6.582,6.5793,6.5701,6.5523,6.5494,6.5465,6.5413,6.5321,6.5264,6.5161,6.5061,6.4958,6.4888,6.4133,6.3265,6.24,6.1425,6.0488,5.9587,5.9365,5.929,5.929,5.929,5.929,5.929,5.929,5.929,5.929,5.9401,5.9438,5.9438,5.9653,5.9791,5.9853,5.9853,5.9885,5.9885,5.995,6.0387,0.0,0.0,0.0,4.5736,0.0,0.0,0.0,4.5654,4.577,0.0,0.0,0.0,0.0,0.0,0.0,0.0,0.0,0.0,0.0,0.0,0.0,0.0,0.0,0.0,0.0,0.0,5.4434,5.5281,5.6536,5.7482,5.7946,5.8797,5.9455,5.988,6.0306,6.0886,6.1737,6.2201,6.2859,6.371,6.4135,6.4812,6.5645,6.5702,6.595,6.6411,6.6461,6.6493,6.6508,6.6508,6.6508,6.6508,6.6508,6.6439,6.6406,6.6373,6.6376,6.634,6.6322,6.6303,6.6303,6.6303,6.6284,6.6264,6.6245,6.6205,6.6144,6.6067,6.602,6.5982,6.5972,6.5923,6.5897,6.5846,6.582,6.5767,6.5674,6.5552,6.5494,6.5435,6.507,6.4863,6.522,6.4785,6.4419,6.4351,6.3217,6.2163,6.1681,6.0891,6.0141,5.9621,5.9474,5.9401,5.9401,5.9365,5.929,5.929,5.929,5.9327,5.9401,5.9438,5.9547,5.9653,5.9723,5.9824,5.9885,5.995,5.995,5.995,6.0399,6.095,0.0,0.0,0.0,0.0,0.0,4.5586,0.0,0.0,0.0,0.0,0.0,0.0,0.0,0.0,0.0,0.0,0.0,0.0,0.0,0.0,0.0,0.0,0.0,0.0,0.0,0.0,5.3356,5.4357,5.5088,5.5879,5.6786,5.7637,5.8488,5.9377,5.9725,6.019,6.0847,6.1737,6.224,6.2433,6.3091,6.3903,6.4754,6.4928,6.541,6.6144,6.6351,6.6422,6.6508,6.6508,6.6508,6.6508,6.6508,6.6439,6.6389,6.6394,6.6358,6.6303,6.6205,6.6185,6.6185,6.6185,6.6185,6.6185,6.6185,6.6147,6.6126,6.6102,6.6052,6.602,6.5996,6.5947,6.5897,6.5897,6.5846,6.582,6.5793,6.5559,6.5293,6.5264,6.4556,6.4191,6.4908,6.4247,6.3579,6.3546,6.2151,6.1098,6.1035,6.032,5.9757,5.965,5.9545,5.951,5.951,5.9438,5.9364,5.9364,5.9364,5.9401,5.951,5.9547,5.9653,5.9824,5.9824,5.9857,5.9885,5.9982,6.0013,6.0013,6.0919,6.1507,0.0,0.0,0.0,0.0,4.6163,0.0,0.0,0.0,0.0,0.0,0.0,0.0,0.0,0.0,0.0,0.0,0.0,0.0,0.0,0.0,0.0,0.0,0.0,0.0,0.0,0.0,0.0,5.343,5.3623,5.4104,5.5045,5.5857,5.6708,5.7559,5.9106,5.9919,6.0035,6.0847,6.166,6.2394,6.2511,6.3013,6.3864,6.4657,6.51,6.5291,6.6079,6.6422,6.6508,6.6508,6.6508,6.6508,6.6508,6.6439,6.6389,6.6394,6.6358,6.6303,6.6205,6.6185,6.6185,6.6185,6.6185,6.6185,6.6185,6.6185,6.6165,6.614,6.6036,6.599,6.602,6.5947,6.5897,6.5897,6.5897,6.5872,6.582,6.5152,6.4561,6.4451,6.3733,6.3332,6.4024,6.3459,6.2864,6.2667,6.1874,6.1235,6.1098,6.0316,5.9791,5.9757,5.965,5.9581,5.9581,5.9581,5.9581,5.9581,5.9581,5.9581,5.9581,5.9723,5.9791,5.9885,5.9885,5.9885,5.9885,5.9982,6.0013,6.0013,6.1005,6.1895,0.0,0.0,0.0,0.0,0.0,0.0,0.0,0.0,4.5355,0.0,0.0,0.0,0.0,0.0,0.0,0.0,0.0,0.0,0.0,0.0,0.0,0.0,0.0,0.0,0.0,0.0,0.0,0.0,0.0,5.2541,5.3928,5.4834,5.5702,5.6515,5.7753,5.8874,5.988,6.0228,6.0809,6.166,6.166,6.2085,6.2975,6.3303,6.3785,6.4399,6.5269,6.5669,6.577,6.6275,6.6508,6.6508,6.6508,6.6493,6.6439,6.6389,6.6394,6.634,6.6284,6.6205,6.6185,6.6185,6.6185,6.6185,6.6185,6.6185,6.6185,6.6183,6.6102,6.6036,6.6029,6.5958,6.5832,6.5282,6.5166,6.5013,6.4462,6.4014,6.3732,6.3679,6.2908,6.2327,6.2615,6.2337,6.2018,6.1919,6.114,6.0545,6.0475,6.0113,5.9857,5.9857,5.9791,5.9723,5.9723,5.965,5.9616,5.9616,5.965,5.9723,5.9723,5.9824,5.9853,5.9885,5.9885,5.9918,5.995,6.0539,6.0829,6.089,6.1827,6.2727,5.0375,0.0,0.0,0.0,0.0,0.0,0.0,0.0,0.0,0.0,0.0,0.0,0.0,0.0,0.0,4.2393,0.0,0.0,0.0,0.0,0.0,0.0,0.0,0.0,0.0,0.0,0.0,0.0,0.0,0.0,5.2657,5.3829,5.4813,5.5664,5.6747,5.7907,5.9184,5.9648,6.019,6.077,6.1002,6.1427,6.2046,6.2278,6.2799,6.3469,6.436,6.4799,6.4955,6.5809,6.6159,6.6159,6.6392,6.6508,6.6508,6.6422,6.6389,6.6394,6.6322,6.6264,6.6185,6.6185,6.6185,6.6185,6.6185,6.6185,6.6185,6.6185,6.6144,6.6041,6.5765,6.5681,6.5442,6.4484,6.4268,6.4075,6.3435,6.3078,6.29,6.2874,6.2106,6.1414,6.136,6.1287,6.12,6.1171,6.0548,6.0076,6.0013,5.995,5.9918,5.9885,5.9857,5.9824,5.9824,5.9719,5.9685,5.9685,5.9791,5.9824,5.9824,5.9853,5.9885,5.9885,5.9918,6.0064,6.0355,6.1057,6.1683,6.2201,6.2879,6.352,0.0,0.0,0.0,4.9317,0.0,0.0,0.0,0.0,4.5124,0.0,0.0,0.0,0.0,0.0,4.0585,4.0585,4.0585,0.0,0.0,0.0,0.0,0.0,0.0,0.0,0.0,0.0,0.0,0.0,0.0,0.0,5.0919,5.263,5.3923,5.4813,5.6437,5.7327,5.7404,5.9068,5.9919,5.9957,6.0731,6.1118,6.1157,6.2008,6.2451,6.2577,6.3469,6.3906,6.41,6.4916,6.5226,6.5343,6.6159,6.6508,6.6508,6.6422,6.6406,6.6389,6.634,6.6264,6.6185,6.6185,6.6185,6.6185,6.6185,6.6185,6.6185,6.6185,6.6144,6.5908,6.5136,6.49,6.4602,6.3669,6.3453,6.3392,6.332,6.2704,6.2103,6.2054,6.1338,6.0674,6.0545,6.0502,6.0418,6.0332,6.0332,6.0235,6.0045,6.0013,5.9982,5.9885,5.9885,5.9885,5.9885,5.9885,5.9885,5.9885,5.9885,5.9885,5.9885,5.9885,5.9885,5.9885,5.9982,6.0393,6.1267,6.1424,6.2315,6.3917,6.4084,6.4153,0.0,0.0,5.0678,4.9605,0.0,0.0,0.0,0.0,0.0,0.0,0.0,0.0,0.0,4.0893,4.0508,4.0508,4.0508,4.0315,0.0,0.0,0.0,0.0,0.0,0.0,0.0,0.0,0.0,0.0,0.0,0.0,0.0,5.1112,5.242,5.3884,5.5045,5.6167,5.7288,5.8449,5.9339,5.9919,6.0731,6.1118,6.1118,6.1427,6.1599,6.1763,6.2577,6.3014,6.3206,6.4061,6.4411,6.445,6.4721,6.5188,6.5732,6.626,6.6422,6.6389,6.6301,6.6303,6.6264,6.6205,6.6185,6.6185,6.6185,6.6185,6.6108,6.5566,6.5391,6.5178,6.4268,6.3994,6.378,6.2827,6.2551,6.2413,6.1851,6.1458,6.1243,6.1219,6.0902,6.0685,6.0635,6.0533,6.0425,6.038,6.0323,6.0264,6.0205,6.0076,6.0013,5.9982,5.9918,5.9885,5.9885,5.9885,5.9885,5.9885,5.9885,5.9885,5.9885,5.9885,5.9918,5.9982,6.0545,6.1064,6.1454,6.259,6.349,6.4161,6.4785,6.5044,5.287,5.2165,0.0,0.0,4.9276,0.0,4.7453,0.0,0.0,0.0,0.0,0.0,0.0,0.0,4.0508,4.0508,4.0508,4.02,0.0,3.8546,0.0,0.0,0.0,0.0,0.0,0.0,0.0,0.0,0.0,0.0,0.0,0.0,5.1554,5.2978,5.4194,5.5316,5.6399,5.7559,5.8565,5.9455,6.0267,6.0809,6.1118,6.1118,6.1155,6.1281,6.184,6.2105,6.226,6.3168,6.3556,6.3556,6.3867,6.4333,6.4877,6.5732,6.6206,6.6389,6.6338,6.634,6.6303,6.6264,6.6051,6.576,6.576,6.5566,6.518,6.4677,6.4522,6.4329,6.3399,6.3147,6.2954,6.2004,6.1747,6.1549,6.1026,6.0866,6.0781,6.0781,6.0757,6.071,6.071,6.061,6.0506,6.0464,6.038,6.0323,6.0294,6.0137,6.0045,6.0013,5.995,5.9885,5.9885,5.9885,5.9885,5.9885,5.9885,5.9885,5.9885,5.9918,6.0102,6.0469,6.1064,6.1728,6.2391,6.3528,6.4245,6.4649,6.5235,6.5523]},{"header":{"parameterUnit":"m.s-1","parameterCategory":1,"la1":30.6,"la2":29.2853,"lo1":-89.7004,"lo2":-87.6739,"dy":0.0162,"dx":0.0183,"nx":112,"ny":82,"refTime":"2024-05-05T12:00:00:Z","depth":0,"parameterNumber":3,"parameterNumberName":"V-component_of_WINDS"},"data":[0.0,0.0,0.0,0.0,0.0,0.0,0.0,0.0,0.0,0.0,0.0,0.0,0.0,0.0,0.0,0.0,0.0,0.0,0.0,0.0,0.0,0.0,0.0,0.0,0.0,0.0,0.0,0.0,0.0,0.0,0.0,0.0,0.0,0.0,0.0,0.0,0.0,0.0,0.0,0.0,0.0,0.0,0.0,0.0,0.0,0.0,0.0,0.0,0.0,0.0,0.0,0.0,0.0,0.0,0.0,0.0,0.0,0.0,0.0,0.0,0.0,0.0,0.0,0.0,0.0,0.0,0.0,0.0,0.0,0.0,0.0,0.0,0.0,0.0,0.0,0.0,0.0,0.0,0.0,0.0,0.0,0.0,0.0,0.0,0.0,0.0,0.0,0.0,0.0,0.0,0.0,-0.5741,-0.5617,-0.5418,-0.5087,-0.4829,-0.4607,-0.4418,0.0,0.0,0.0,0.0,0.0,0.0,0.0,0.0,0.0,0.0,0.0,0.0,0.0,0.0,0.0,0.0,0.0,0.0,0.0,0.0,0.0,0.0,0.0,0.0,0.0,0.0,0.0,0.0,0.0,0.0,0.0,0.0,0.0,0.0,0.0,0.0,0.0,0.0,0.0,0.0,0.0,0.0,0.0,0.0,0.0,0.0,0.0,0.0,0.0,0.0,0.0,0.0,0.0,0.0,0.0,0.0,0.0,0.0,0.0,0.0,0.0,0.0,0.0,0.0,0.0,0.0,0.0,0.0,0.0,0.0,0.0,0.0,0.0,0.0,0.0,0.0,0.0,0.0,0.0,0.0,0.0,0.0,0.0,0.0,0.0,0.0,0.0,0.0,0.0,0.0,0.0,0.0,0.0,0.0,0.0,0.0,0.0,0.0,0.0,0.0,0.0,0.0,0.0,0.0,-0.5522,-0.5219,-0.5219,-0.5087,-0.4894,-0.4577,-0.4418,-0.4418,0.0,0.0,0.0,0.0,0.0,0.0,0.0,0.0,0.0,0.0,0.0,0.0,0.0,0.0,0.0,0.0,0.0,0.0,0.0,0.0,0.0,0.0,0.0,0.0,0.0,0.0,0.0,0.0,0.0,0.0,0.0,0.0,0.0,0.0,0.0,0.0,0.0,0.0,0.0,0.0,0.0,0.0,0.0,0.0,0.0,0.0,0.0,0.0,0.0,0.0,0.0,0.0,0.0,0.0,0.0,0.0,0.0,0.0,0.0,0.0,0.0,0.0,0.0,0.0,0.0,0.0,0.0,0.0,0.0,0.0,0.0,0.0,0.0,0.0,0.0,0.0,0.0,0.0,0.0,0.0,0.0,0.0,0.0,0.0,0.0,0.0,0.0,0.0,0.0,0.0,0.0,0.0,0.0,0.0,0.0,0.0,0.0,0.0,0.0,0.0,0.0,0.0,0.0,-0.527,-0.5219,-0.496,-0.496,-0.4894,-0.4694,-0.4457,-0.4241,-0.4114,-0.4037,0.0,0.0,0.0,0.0,0.0,0.0,0.0,0.0,0.0,0.0,0.0,0.0,0.0,0.0,0.0,0.0,0.0,0.0,0.0,0.0,0.0,0.0,0.0,0.0,0.0,0.0,0.0,0.0,0.0,0.0,0.0,0.0,0.0,0.0,0.0,0.0,0.0,0.0,0.0,0.0,0.0,0.0,0.0,0.0,0.0,0.0,0.0,0.0,0.0,0.0,0.0,0.0,0.0,0.0,0.0,0.0,0.0,0.0,0.0,0.0,0.0,0.0,0.0,0.0,0.0,0.0,0.0,0.0,0.0,0.0,0.0,0.0,0.0,0.0,0.0,0.0,0.0,0.0,0.0,0.0,0.0,0.0,0.0,0.0,0.0,0.0,0.0,0.0,0.0,0.0,0.0,0.0,0.0,0.0,0.0,0.0,0.0,0.0,0.0,0.0,0.0,0.0,-0.502,-0.496,-0.4761,-0.4694,-0.4628,-0.4495,-0.4204,-0.3936,-0.3875,-0.3707,0.0,0.0,0.0,0.0,0.0,0.0,0.0,0.0,0.0,0.0,0.0,0.0,0.0,0.0,0.0,0.0,0.0,0.0,0.0,0.0,0.0,0.0,0.0,0.0,0.0,0.0,0.0,0.0,0.0,0.0,0.0,0.0,0.0,0.0,0.0,0.0,0.0,0.0,0.0,0.0,0.0,0.0,0.0,0.0,0.0,0.0,0.0,0.0,0.0,0.0,0.0,0.0,0.0,0.0,0.0,0.0,0.0,0.0,0.0,0.0,0.0,0.0,0.0,0.0,0.0,0.0,0.0,0.0,0.0,0.0,0.0,0.0,0.0,0.0,0.0,0.0,0.0,0.0,0.0,0.0,0.0,0.0,0.0,0.0,0.0,0.0,0.0,0.0,0.0,0.0,0.0,0.0,0.0,0.0,0.0,0.0,0.0,0.0,0.0,0.0,0.0,0.0,-0.4827,-0.4761,-0.4628,-0.4434,-0.4233,-0.4028,-0.3697,-0.3513,-0.3697,-0.3664,0.0,0.0,0.0,0.0,0.0,0.0,0.0,0.0,0.0,0.0,0.0,0.0,0.0,0.0,0.0,0.0,0.0,0.0,0.0,0.0,0.0,0.0,0.0,0.0,0.0,0.0,0.0,0.0,0.0,0.0,0.0,0.0,0.0,0.0,0.0,0.0,0.0,0.0,0.0,0.0,0.0,0.0,0.0,0.0,0.0,0.0,0.0,0.0,0.0,0.0,0.0,0.0,0.0,0.0,0.0,0.0,0.0,0.0,0.0,0.0,0.0,0.0,0.0,0.0,0.0,0.0,0.0,0.0,0.0,0.0,0.0,0.0,0.0,0.0,0.0,0.0,0.0,0.0,0.0,0.0,0.0,0.0,0.0,0.0,0.0,0.0,0.0,0.0,0.0,0.0,0.0,0.0,0.0,0.0,0.0,0.0,0.0,0.0,0.0,0.0,0.0,0.0,-0.4567,-0.4428,0.0,-0.4095,-0.3961,-0.3894,-0.3632,-0.3585,-0.3702,0.0,0.0,0.0,0.0,0.0,0.0,0.0,0.0,0.0,0.0,0.0,0.0,0.0,0.0,0.0,0.0,0.0,0.0,0.0,0.0,0.0,0.0,0.0,0.0,0.0,0.0,0.0,0.0,0.0,0.0,0.0,0.0,0.0,0.0,0.0,0.0,0.0,0.0,0.0,0.0,0.0,0.0,0.0,0.0,0.0,0.0,0.0,0.0,0.0,0.0,0.0,0.0,0.0,0.0,0.0,0.0,0.0,0.0,0.0,0.0,0.0,0.0,0.0,0.0,0.0,0.0,0.0,0.0,0.0,0.0,0.0,0.0,0.0,0.0,0.0,0.0,0.0,0.0,0.0,0.0,0.0,0.0,0.0,0.0,0.0,0.0,0.0,0.0,0.0,0.0,0.0,0.0,0.0,0.0,0.0,0.0,0.0,0.0,0.0,0.0,0.0,0.0,-0.44,-0.4287,-0.4099,0.0,-0.3827,-0.3741,-0.3741,-0.3488,-0.3375,-0.3522,0.0,0.0,0.0,0.0,0.0,0.0,0.0,0.0,0.0,0.0,0.0,0.0,0.0,0.0,0.0,0.0,0.0,0.0,0.0,0.0,0.0,0.0,0.0,0.0,0.0,0.0,0.0,0.0,0.0,0.0,0.0,0.0,0.0,0.0,0.0,0.0,0.0,0.0,0.0,0.0,0.0,0.0,0.0,0.0,0.0,0.0,0.0,0.0,0.0,0.0,0.0,0.0,0.0,0.0,0.0,0.0,0.0,0.0,0.0,0.0,0.0,0.0,0.0,0.0,0.0,0.0,0.0,0.0,0.0,0.0,0.0,0.0,0.0,0.0,0.0,0.0,0.0,0.0,0.0,0.0,0.0,0.0,0.0,0.0,0.0,0.0,0.0,0.0,0.0,0.0,0.0,0.0,0.0,0.0,0.0,0.0,0.0,0.0,0.0,0.0,0.0,0.0,-0.3904,-0.3918,-0.389,-0.3993,-0.3763,-0.3565,-0.3565,-0.3127,-0.2927,0.0,0.0,0.0,0.0,0.0,0.0,0.0,0.0,0.0,0.0,0.0,0.0,0.0,0.0,0.0,0.0,0.0,0.0,0.0,0.0,0.0,0.0,0.0,0.0,0.0,0.0,0.0,0.0,0.0,0.0,0.0,0.0,0.0,0.0,0.0,0.0,0.0,0.0,0.0,0.0,0.0,0.0,0.0,0.0,0.0,0.0,0.0,0.0,0.0,0.0,0.0,0.0,0.0,0.0,0.0,0.0,0.0,0.0,0.0,0.0,0.0,0.0,0.0,0.0,0.0,0.0,0.0,0.0,0.0,0.0,0.0,0.0,0.0,0.0,0.0,0.0,0.0,0.0,0.0,0.0,0.0,0.0,0.0,0.0,0.0,0.0,0.0,0.0,0.0,0.0,0.0,0.0,0.0,0.0,0.0,0.0,0.0,0.0,0.0,0.0,0.0,0.0,0.0,0.0,-0.3838,-0.3754,-0.3568,-0.3343,-0.3217,-0.3078,-0.2913,-0.286,-0.2849,0.0,0.0,0.0,0.0,0.0,0.0,0.0,0.0,0.0,0.0,0.0,0.0,0.0,0.0,0.0,0.0,0.0,0.0,0.0,0.0,0.0,0.0,0.0,0.0,0.0,0.0,0.0,0.0,0.0,0.0,0.0,0.0,0.0,0.0,0.0,0.0,0.0,0.0,0.0,0.0,0.0,0.0,0.0,0.0,0.0,0.0,0.0,0.0,0.0,0.0,0.0,0.0,0.0,0.0,0.0,0.0,0.0,0.0,0.0,0.0,0.0,0.0,0.0,0.0,0.0,0.0,0.0,0.0,0.0,0.0,0.0,0.0,0.0,0.0,0.0,0.0,0.0,0.0,0.0,0.0,0.0,0.0,0.0,0.0,0.0,0.0,0.0,0.0,0.0,0.0,0.0,0.0,0.0,0.0,0.0,0.0,0.0,0.0,0.0,0.0,0.0,0.0,-0.3674,-0.3589,-0.3417,-0.3302,-0.3158,-0.3024,-0.2992,-0.2847,-0.2792,-0.2915,0.0,0.0,0.0,0.0,0.0,0.0,0.0,0.0,0.0,0.0,0.0,0.0,0.0,0.0,0.0,0.0,0.0,0.0,0.0,0.0,0.0,0.0,0.0,0.0,0.0,0.0,0.0,0.0,0.0,0.0,0.0,0.0,0.0,0.0,0.0,0.0,0.0,0.0,0.0,0.0,0.0,0.0,0.0,0.0,0.0,0.0,0.0,0.0,0.0,0.0,0.0,0.0,0.0,0.0,0.0,0.0,0.0,0.0,0.0,0.0,0.0,0.0,0.0,0.0,0.0,0.0,0.0,0.0,0.0,0.0,0.0,0.0,0.0,0.0,0.0,0.0,0.0,0.0,0.0,0.0,0.0,0.0,0.0,0.0,0.0,0.0,0.0,0.0,0.0,0.0,0.0,0.0,0.0,0.0,0.0,0.0,0.0,0.0,0.0,0.0,0.0,0.0,-0.3238,-0.3109,-0.2988,-0.3054,-0.2994,-0.2996,-0.314,-0.2779,-0.2713,-0.3055,0.0,0.0,0.0,0.0,0.0,0.0,0.0,0.0,0.0,0.0,0.0,0.0,0.0,0.0,0.0,0.0,0.0,0.0,0.0,0.0,0.0,0.0,0.0,0.0,0.0,0.0,0.0,0.0,0.0,0.0,0.0,0.0,0.0,0.0,0.0,0.0,0.0,0.0,0.0,0.0,0.0,0.0,0.0,0.0,0.0,0.0,0.0,0.0,0.0,0.0,0.0,0.0,0.0,0.0,0.0,0.0,0.0,0.0,0.0,0.0,-0.3863,0.0,0.0,0.0,0.0,0.0,0.0,0.0,0.0,0.0,0.0,0.0,0.0,0.0,0.0,0.0,0.0,0.0,0.0,0.0,0.0,0.0,0.0,0.0,0.0,0.0,0.0,0.0,0.0,0.0,0.0,0.0,0.0,0.0,0.0,0.0,0.0,0.0,0.0,0.0,0.0,0.0,-0.3099,-0.3081,-0.3044,-0.2901,-0.2688,-0.2547,-0.256,-0.2423,-0.2188,-0.1988,0.0,0.0,0.0,0.0,0.0,0.0,0.0,0.0,0.0,0.0,0.0,0.0,0.0,0.0,0.0,0.0,0.0,0.0,0.0,0.0,0.0,0.0,0.0,0.0,0.0,0.0,0.0,0.0,0.0,0.0,0.0,0.0,0.0,0.0,0.0,0.0,0.0,0.0,0.0,0.0,0.0,0.0,0.0,0.0,0.0,0.0,0.0,0.0,0.0,0.0,0.0,0.0,0.0,0.0,0.0,0.0,0.0,0.0,0.0,0.0,0.0,-0.3798,0.0,0.0,0.0,0.0,0.0,0.0,0.0,0.0,0.0,0.0,0.0,0.0,0.0,0.0,0.0,0.0,0.0,0.0,0.0,0.0,0.0,0.0,0.0,0.0,0.0,0.0,0.0,0.0,0.0,0.0,0.0,0.0,0.0,0.0,0.0,0.0,0.0,0.0,0.0,0.0,-0.2768,-0.2724,-0.2591,-0.2356,-0.233,-0.2213,-0.2161,-0.2252,-0.2095,-0.1386,-0.1281,0.0,0.0,0.0,0.0,0.0,0.0,0.0,0.0,0.0,0.0,0.0,0.0,0.0,0.0,0.0,0.0,0.0,0.0,0.0,0.0,0.0,0.0,0.0,0.0,0.0,0.0,0.0,0.0,0.0,0.0,0.0,0.0,0.0,0.0,0.0,0.0,0.0,0.0,0.0,0.0,0.0,0.0,0.0,0.0,0.0,0.0,0.0,0.0,0.0,0.0,0.0,0.0,0.0,0.0,0.0,-0.3423,-0.3423,-0.3423,-0.3524,-0.3642,-0.3733,-0.3802,0.0,0.0,0.0,0.0,0.0,0.0,0.0,0.0,0.0,0.0,0.0,0.0,0.0,0.0,0.0,0.0,0.0,0.0,0.0,0.0,0.0,0.0,0.0,0.0,0.0,-0.3644,-0.3725,0.0,0.0,0.0,0.0,0.0,0.0,0.0,0.0,0.0,0.0,0.0,0.0,-0.2455,-0.2302,-0.2141,-0.1978,-0.1978,-0.2033,-0.1975,-0.2156,-0.1939,-0.1156,-0.1121,-0.1076,0.0,0.0,0.0,0.0,0.0,0.0,0.0,0.0,0.0,0.0,0.0,0.0,0.0,0.0,0.0,0.0,0.0,0.0,0.0,0.0,0.0,0.0,0.0,0.0,0.0,0.0,0.0,0.0,0.0,0.0,0.0,0.0,-0.1315,-0.1328,0.0,0.0,0.0,0.0,0.0,0.0,0.0,0.0,0.0,0.0,0.0,0.0,0.0,0.0,-0.2725,-0.2851,-0.2782,-0.2858,-0.2862,-0.2887,-0.3047,-0.3047,-0.3047,-0.3043,-0.2977,0.0,-0.3647,-0.3591,0.0,0.0,0.0,0.0,0.0,0.0,0.0,0.0,0.0,0.0,0.0,0.0,0.0,0.0,0.0,0.0,0.0,0.0,0.0,0.0,0.0,0.0,-0.3288,-0.32,-0.3066,-0.3016,0.0,-0.343,-0.3632,-0.3134,0.0,0.0,0.0,0.0,0.0,0.0,0.0,0.0,-0.2083,-0.2083,-0.2068,-0.2189,-0.1944,-0.1911,-0.236,-0.1813,-0.1327,-0.1119,-0.1088,-0.1111,-0.1107,-0.0986,0.0,0.0,0.0,0.0,0.0,0.0,0.0,0.0,0.0,0.0,0.0,0.0,0.0,0.0,0.0,0.0,0.0,0.0,0.0,0.0,0.0,0.0,0.0,0.0,0.0,0.0,0.0,0.0,0.0,-0.1254,-0.1321,-0.1354,-0.1407,-0.1551,0.0,0.0,0.0,0.0,0.0,0.0,0.0,0.0,0.0,-0.2476,-0.2629,-0.2672,-0.2717,-0.2741,-0.2905,-0.297,-0.2995,-0.3017,-0.3038,-0.3038,-0.3038,-0.3036,-0.3017,-0.3098,-0.3272,-0.3134,-0.3063,-0.3033,0.0,0.0,0.0,0.0,0.0,-0.2817,-0.289,0.0,0.0,0.0,0.0,0.0,0.0,0.0,0.0,0.0,0.0,0.0,0.0,0.0,0.0,-0.288,-0.2767,-0.2657,-0.2566,-0.2731,-0.2853,0.0,-0.2351,-0.227,-0.227,0.0,0.0,0.0,0.0,0.0,-0.185,-0.185,-0.1759,-0.1742,-0.1559,-0.1535,-0.182,-0.1539,-0.105,-0.0514,-0.0493,-0.0542,-0.078,-0.0685,-0.0649,0.0,0.0,0.0,0.0,0.0,0.0,0.0,0.0,0.0,0.0,0.0,0.0,0.0,0.0,0.0,0.0,0.0,0.0,0.0,0.0,0.0,0.0,0.0,0.0,0.0,0.0,0.0,0.0,-0.1337,-0.1392,-0.1452,-0.1493,-0.1536,0.0,0.0,0.0,0.0,0.0,0.0,-0.1783,-0.204,-0.2185,-0.2213,-0.2483,-0.2643,-0.2562,-0.259,-0.2757,-0.2809,-0.2839,-0.286,-0.2871,-0.2871,-0.2871,-0.2869,-0.286,-0.2854,-0.2843,-0.2808,-0.2842,-0.2694,-0.2786,-0.2643,0.0,-0.2688,-0.267,-0.2656,-0.2621,-0.2473,-0.2539,-0.2739,0.0,-0.2764,-0.2969,0.0,0.0,0.0,0.0,-0.2848,-0.2649,0.0,-0.2551,-0.2556,-0.2536,-0.2518,-0.2324,-0.221,-0.2155,0.0,-0.2,-0.1827,-0.1913,0.0,0.0,0.0,0.0,-0.1796,-0.1625,-0.1625,-0.1537,-0.1361,-0.1339,-0.1237,-0.0978,-0.0946,-0.0691,-0.0076,0.0,-0.014,-0.0337,-0.0396,-0.0377,-0.0288,0.0,0.0,0.0,0.0,0.0,0.0,0.0,0.0,0.0,0.0,0.0,0.0,0.0,0.0,0.0,0.0,0.0,0.0,0.0,0.0,0.0,0.0,0.0,0.0,0.0,0.0,0.0,0.0,0.0,-0.1515,-0.1573,0.0,0.0,0.0,0.0,-0.1786,-0.1816,-0.1847,-0.1877,-0.1907,-0.1925,-0.1926,-0.1956,-0.1985,-0.2014,-0.2015,-0.2046,-0.2105,-0.2106,-0.2123,-0.2284,-0.2284,-0.2284,-0.2283,-0.212,-0.2106,-0.2231,-0.2635,-0.2952,-0.2942,-0.2856,-0.2819,-0.2817,-0.2815,-0.2791,-0.2639,-0.2637,-0.2608,-0.2565,-0.2633,-0.2588,-0.2551,-0.2551,-0.2549,0.0,0.0,-0.2543,-0.2543,-0.2543,-0.2543,-0.2543,-0.2543,-0.2478,-0.2414,-0.2414,-0.2153,-0.1907,0.0,-0.1991,-0.1991,-0.2181,0.0,-0.2028,-0.2028,-0.163,-0.143,-0.143,-0.143,-0.1421,-0.1395,-0.1391,-0.1024,-0.0163,-0.0081,-0.008,-0.0,0.0,-0.0,-0.0,-0.0,-0.0,-0.0,-0.0298,0.0,0.0,0.0,0.0,0.0,0.0,0.0,0.0,0.0,0.0,0.0,0.0,0.0,0.0,0.0,0.0,0.0,0.0,0.0,0.0,0.0,0.0,0.0,0.0,0.0,0.0,0.0,0.0,-0.1483,-0.1654,0.0,0.0,-0.1802,-0.185,-0.188,-0.1892,-0.1911,-0.1943,-0.1936,-0.194,-0.196,-0.1989,-0.2018,-0.2048,-0.2067,-0.2098,-0.2139,-0.2139,-0.2144,-0.2155,-0.2155,-0.2155,-0.2154,-0.2143,-0.2139,-0.2135,-0.1822,-0.1921,-0.2284,-0.2259,-0.2375,-0.2371,-0.2349,-0.2318,-0.2286,-0.2144,-0.2113,-0.2198,-0.2302,-0.2515,-0.2725,-0.2697,-0.2557,-0.2529,-0.2609,-0.258,-0.2451,-0.2238,-0.2238,-0.2238,-0.2027,-0.2007,-0.1988,-0.1883,-0.1761,-0.1745,-0.1745,-0.1679,-0.1718,-0.1718,-0.1707,-0.1605,-0.1226,-0.1031,-0.0933,-0.0933,-0.12,-0.1369,-0.136,-0.0885,-0.0086,0.0851,0.0828,0.0727,0.0397,0.0385,0.0374,0.0364,0.0352,0.034,0.0327,0.0254,0.0185,0.0,0.0,0.0,0.0,0.0,0.0,0.0,0.0,0.0,0.0,0.0,0.0,0.0,0.0,0.0,0.0,0.0,0.0,0.0,0.0,0.0,0.0,0.0,0.0,0.0,0.0,-0.1027,-0.1255,-0.1405,-0.1558,-0.1821,-0.1872,-0.1914,-0.1944,-0.1956,-0.1975,-0.2004,-0.1988,-0.1985,-0.2005,-0.2024,-0.2049,-0.2079,-0.2099,-0.1991,-0.1885,-0.1885,-0.1885,-0.1885,-0.1885,-0.1885,-0.1885,-0.1885,-0.2019,-0.2153,-0.1732,-0.1584,-0.17,-0.1943,-0.2064,-0.2061,-0.2041,-0.2022,-0.2003,-0.1982,-0.1949,-0.1917,-0.2156,-0.2377,-0.2469,-0.2444,-0.2419,-0.2392,-0.2365,-0.2338,-0.2207,-0.2096,-0.1978,-0.1969,-0.1752,-0.1628,-0.1399,-0.1399,-0.1392,-0.1387,-0.16,-0.143,-0.1277,-0.1277,-0.1458,-0.1446,-0.1059,-0.0383,0.0095,0.0095,-0.0471,-0.0932,-0.0925,-0.009,0.0707,0.1307,0.1356,0.1163,0.0824,0.0874,0.0851,0.0844,0.081,0.0783,0.0762,0.0735,0.0707,0.0679,0.0,0.0,0.0,0.0,0.0,0.0,0.0,0.0,0.0,0.0,0.0,0.0,0.0,0.0,0.0,0.0,0.0,0.0,0.0,0.0,0.0,0.0,0.0,0.0,0.0,-0.0212,-0.0669,-0.0786,-0.1025,-0.1764,-0.1915,-0.1947,-0.1977,-0.2007,-0.2035,-0.1935,-0.1935,-0.1935,-0.1935,-0.1936,-0.1949,-0.2109,-0.211,-0.1727,-0.1077,-0.1077,-0.1077,-0.1077,-0.1077,-0.1077,-0.1077,-0.1077,-0.1481,-0.2155,-0.2155,-0.175,-0.1074,-0.1829,-0.2067,-0.2067,-0.2067,-0.2065,-0.2065,-0.1935,-0.2027,-0.1979,-0.1978,-0.1939,-0.1889,-0.1889,-0.1888,-0.1887,-0.1769,-0.1769,-0.1768,-0.1768,-0.1747,-0.1727,-0.1842,-0.1348,-0.0877,-0.0876,-0.0757,-0.0856,-0.1389,-0.1053,-0.0728,-0.0728,-0.1211,-0.1476,-0.1476,0.029,0.0,0.1625,0.0668,0.0095,0.0093,0.0833,0.1366,0.1401,0.1395,0.1381,0.1267,0.1321,0.1291,0.1338,0.1306,0.1273,0.1167,0.1111,0.1118,0.1118,0.0,0.0,0.0,0.0,0.0,0.0,0.0,0.0,0.0,0.0,0.0,0.0,0.0,0.0,0.0,0.0,0.0,0.0,0.0,0.0,0.0,0.0,0.0,0.0,0.0,-0.0109,-0.0224,-0.0229,-0.0352,-0.0479,-0.0982,-0.1255,-0.1273,-0.1279,-0.1419,-0.1309,-0.1297,-0.1289,-0.1289,-0.1303,-0.1312,-0.1318,-0.1865,-0.2146,-0.1885,-0.0808,-0.0269,-0.0269,-0.0269,-0.0269,-0.0269,-0.0269,-0.1077,-0.2155,-0.2155,-0.1481,-0.0403,-0.1068,-0.1331,-0.1331,-0.1331,-0.1323,-0.1308,-0.1294,-0.1283,-0.1272,-0.1259,-0.1248,-0.1237,-0.1224,-0.121,-0.1199,-0.1199,-0.1189,-0.1179,-0.1179,-0.1174,-0.1288,-0.1639,-0.093,0.0,0.0909,0.0678,0.0337,0.0222,0.0327,0.0537,0.1061,0.0519,0.0102,0.0102,0.0,0.0,0.1592,0.1375,0.1167,0.1161,0.1318,0.1382,0.1366,0.1418,0.1389,0.0,0.1351,0.1322,0.1291,0.1261,0.1296,0.1167,0.1151,0.1205,0.0,0.0,0.0,0.0,0.0,0.0,0.0,0.0,0.0,0.0,0.0,0.0,0.0,0.0,0.0,0.0,0.0,0.0,0.0,0.0,0.0,0.0,0.0,0.0,0.0,0.0,0.0,0.0,0.0,0.0,0.0,-0.0371,-0.0631,-0.0644,-0.0645,-0.0651,-0.0664,-0.066,-0.0525,-0.0525,-0.0529,-0.0532,-0.0532,-0.1072,-0.1212,-0.1212,-0.0404,0.0,0.0,0.0,0.0,0.0,0.0,-0.0539,-0.1212,-0.1212,-0.0808,0.0,0.0,0.0,0.0,0.0,-0.0669,-0.0664,-0.0658,-0.0523,-0.052,-0.0645,-0.064,-0.0636,-0.0626,-0.062,-0.0614,-0.061,-0.0121,0.036,0.036,0.012,-0.0238,-0.0595,-0.0118,0.0705,0.163,0.1618,0.1262,0.1249,0.0,0.0,0.1748,0.1495,0.1261,0.1156,0.1138,0.1329,0.0,0.1609,0.1585,0.1573,0.1733,0.1792,0.1761,0.1722,0.0,0.0,0.0,0.1606,0.1653,0.1614,0.0,0.0,0.0,0.1474,0.0,0.0,0.0,0.0,0.0608,0.0412,0.0,0.0,0.0,0.0,0.0,0.0,0.0,0.0,0.0,0.0,0.0,0.0,0.0,0.0,0.0,0.0,0.0,0.0,0.0,0.0,0.0,0.0,0.0,0.0,0.0,0.0,0.0,0.0,0.0,0.0,0.0,0.0,0.0,0.0,0.0,0.0,0.0,0.0,0.0,0.0,0.0,0.0,0.0,0.0,0.0,0.0,0.0,0.0,0.0,0.0,0.0,0.0,0.0,0.0,0.0,0.0,0.0,0.0,0.0,0.0,0.0,0.0264,0.0131,0.0129,0.0127,0.0127,0.0126,0.0125,0.0992,0.1858,0.1982,0.1592,0.1089,0.1089,0.1078,0.1303,0.1892,0.1869,0.1849,0.1842,0.1932,0.1912,0.1908,0.1858,0.1819,0.1712,0.1792,0.0,0.1662,0.1639,0.161,0.1777,0.0,0.0,0.2243,0.2232,0.221,0.2165,0.2114,0.2067,0.2112,0.2063,0.2021,0.1903,0.1862,0.1822,0.1855,0.1855,0.1707,0.1558,0.1327,0.1029,0.0,0.0,0.0,0.0,0.0,0.0,0.0,0.0,0.0,0.0,0.0,0.0,0.0,0.0,0.0,0.0765,0.0336,0.0,0.0,0.0,0.0,0.0,0.0,0.0,0.0,0.0,0.0,0.0,0.0,0.0,0.0,0.0,0.0,0.0,0.0,0.0,0.0,0.0,0.0,0.0,0.0,0.0,0.0,0.0,0.0,0.0,0.0,0.0,0.0,0.0,0.0,0.0,0.0,0.0,0.0,0.0,0.0,0.0,0.0,0.0806,0.174,0.172,0.1316,0.0916,0.0903,0.0899,0.0,0.0896,0.1015,0.1258,0.1888,0.1866,0.1844,0.1844,0.184,0.183,0.1928,0.2156,0.2253,0.2197,0.2408,0.262,0.2586,0.2317,0.2069,0.2069,0.2252,0.2215,0.1663,0.1654,0.1946,0.2816,0.2971,0.2935,0.2525,0.2391,0.2257,0.2212,0.2132,0.2081,0.2073,0.2112,0.2085,0.2076,0.2066,0.2057,0.2049,0.2049,0.2049,0.1965,0.1499,0.1239,0.0,0.0,0.0,0.0,0.0,0.0,0.0,0.0,0.0,0.0,0.0,0.1688,0.1703,0.0,0.1795,0.1458,0.1145,0.0817,0.0588,0.0239,0.0,0.0,0.0,0.0,0.0,0.0,0.0,0.0,0.0,0.0,0.0,0.0,0.0,0.0,0.0,0.0,0.0,0.0,0.0,0.0,0.0,0.0,0.0,0.0,0.0,0.0,0.0,0.0,0.0,0.0,0.0,0.0,0.0,0.0,0.0,0.0,0.0404,0.1077,0.1077,0.1346,0.1748,0.2136,0.1999,0.1594,0.1703,0.1695,0.1693,0.168,0.154,0.1657,0.1898,0.2135,0.2244,0.2225,0.2346,0.2464,0.2445,0.2546,0.2639,0.2599,0.2672,0.275,0.2729,0.2688,0.2658,0.2438,0.2512,0.2475,0.224,0.2097,0.2273,0.3073,0.3221,0.3073,0.2848,0.2796,0.2754,0.2821,0.2739,0.278,0.2869,0.2869,0.2733,0.2562,0.2537,0.2524,0.244,0.244,0.2354,0.227,0.1995,0.1726,0.0,0.0,0.0,0.0,0.0,0.0,0.0,0.0,0.1651,0.1682,0.173,0.177,0.1775,0.1816,0.1849,0.1849,0.1874,0.1784,0.1204,0.0726,0.0242,0.0,0.0,0.0,0.0,0.0,0.0,0.0,0.0,0.0,0.0,0.0,0.0,0.0,0.0,0.0,0.0,0.0,0.0,0.0,0.0,0.0,0.0,0.0,0.0,0.0,0.0,0.0,0.0,0.0269,0.0404,0.0404,0.0269,0.0269,0.0269,0.0404,0.1077,0.2019,0.2154,0.175,0.1346,0.2019,0.2155,0.215,0.2258,0.2251,0.2245,0.2219,0.2207,0.2196,0.217,0.2407,0.2642,0.261,0.2843,0.296,0.296,0.3054,0.3024,0.3015,0.3069,0.3125,0.3105,0.3295,0.3263,0.2807,0.2773,0.2855,0.2846,0.2775,0.2822,0.3322,0.3377,0.3324,0.3259,0.3294,0.3352,0.3547,0.348,0.3536,0.3721,0.3605,0.3452,0.3273,0.3222,0.3108,0.2935,0.2935,0.2849,0.2677,0.2637,0.2357,0.2839,0.2746,0.2553,0.2129,0.1975,0.1913,0.0,0.0,0.1744,0.1774,0.1806,0.1839,0.1865,0.1876,0.188,0.188,0.1906,0.1928,0.181,0.1833,0.1355,0.0123,0.0,0.0,0.0,0.0,0.0,0.0,0.0,0.0,0.0,0.0,0.0,0.0,0.0,0.0,0.0,0.0,0.0,0.0,0.0,0.0,0.0,0.0,0.0,0.0,0.0,0.0,0.0135,0.1481,0.2019,0.1885,0.1212,0.0943,0.1077,0.175,0.1616,0.1346,0.2019,0.2154,0.2154,0.2154,0.2155,0.2154,0.215,0.215,0.2283,0.2548,0.2656,0.2629,0.3019,0.3089,0.3028,0.3024,0.2991,0.296,0.296,0.3204,0.3434,0.3386,0.3725,0.4038,0.3928,0.4246,0.4104,0.3145,0.3357,0.3448,0.3504,0.3485,0.3543,0.3849,0.3933,0.3898,0.3927,0.3854,0.3811,0.3811,0.384,0.3803,0.3898,0.388,0.387,0.3776,0.3769,0.3765,0.3765,0.3765,0.3765,0.3765,0.349,0.2959,0.3011,0.292,0.0,0.0,0.2365,0.2101,0.2053,0.1868,0.179,0.1838,0.1858,0.187,0.1883,0.19,0.1913,0.0,0.1937,0.1958,0.1958,0.1969,0.1853,0.1235,0.0498,0.0,0.0,0.0,0.0,0.0,0.0,0.0,0.0,0.0,0.0,0.0,0.0,0.0,0.0,0.0,0.0,0.0,0.0,0.0,0.0,0.0,0.0404,0.1346,0.1346,0.1077,0.0673,0.1346,0.175,0.2154,0.1885,0.175,0.175,0.2019,0.2019,0.175,0.2154,0.2155,0.2155,0.2155,0.2155,0.2155,0.2155,0.229,0.2559,0.2694,0.2816,0.2929,0.3171,0.3267,0.3479,0.3295,0.3515,0.3616,0.383,0.3946,0.4063,0.4282,0.4488,0.4548,0.4448,0.4508,0.4452,0.393,0.3921,0.391,0.3661,0.3957,0.4206,0.4268,0.4147,0.4116,0.4038,0.4004,0.3987,0.4185,0.4114,0.4168,0.4365,0.4315,0.4193,0.4098,0.4095,0.4003,0.3912,0.3912,0.3912,0.3912,0.3813,0.3518,0.3299,0.0,0.0,0.2962,0.2677,0.2399,0.2258,0.2055,0.196,0.1889,0.1904,0.1911,0.1911,0.1929,0.1944,0.1944,0.1962,0.1977,0.1977,0.1977,0.1979,0.1988,0.1129,0.038,0.0,0.0,0.0,0.0,0.0,0.0,0.0,0.0,0.0,0.0,0.0,0.0,0.0,0.0,0.0,0.0,0.0,0.0269,0.0673,0.0673,0.1077,0.1885,0.2154,0.1885,0.1346,0.1346,0.175,0.2155,0.2155,0.2155,0.2155,0.2155,0.2155,0.2155,0.2155,0.2155,0.2155,0.2155,0.229,0.229,0.229,0.2559,0.2827,0.2963,0.323,0.3356,0.3457,0.3701,0.3929,0.3832,0.4049,0.4395,0.4453,0.4564,0.4564,0.481,0.4889,0.4948,0.4868,0.4907,0.4829,0.4859,0.4718,0.4365,0.3918,0.4416,0.4766,0.4748,0.459,0.4538,0.4373,0.4448,0.4533,0.4738,0.4678,0.4741,0.4937,0.4873,0.4739,0.4546,0.4546,0.445,0.4261,0.4164,0.4164,0.4164,0.4068,0.3999,0.3493,0.0,0.3329,0.3105,0.3131,0.2937,0.2453,0.238,0.2286,0.1929,0.1954,0.1974,0.1974,0.1974,0.1975,0.1975,0.1975,0.1977,0.1977,0.1977,0.1986,0.2014,0.202,0.1405,0.0,0.0,0.0,0.0,0.0,0.0,0.0,0.0,0.0,0.0,0.0,0.0,0.0,0.0,0.0,0.0,0.0,0.0808,0.2154,0.2154,0.175,0.1212,0.1885,0.2155,0.2154,0.2154,0.2155,0.2155,0.2155,0.2155,0.2155,0.2155,0.2155,0.2155,0.2155,0.2155,0.2155,0.2155,0.2425,0.2694,0.2694,0.2961,0.3228,0.3633,0.3768,0.3902,0.4171,0.4528,0.4729,0.4658,0.4842,0.5022,0.495,0.4933,0.4933,0.4933,0.5176,0.5391,0.5305,0.5463,0.561,0.5864,0.5656,0.515,0.4592,0.497,0.5352,0.5239,0.529,0.5386,0.5386,0.5496,0.5536,0.5536,0.5532,0.5532,0.5532,0.5527,0.5527,0.5527,0.5331,0.5131,0.5131,0.4926,0.4726,0.4726,0.4529,0.4433,0.3622,0.0,0.3608,0.3572,0.3359,0.3146,0.3096,0.2883,0.2659,0.2321,0.2336,0.2222,0.21,0.1977,0.1977,0.1977,0.1977,0.1984,0.2001,0.2004,0.2015,0.2045,0.2067,0.0,0.0,0.0,0.0,0.0,0.0,0.0,0.0,0.0,0.0,0.0,0.0,0.0,0.0,0.0,0.0,0.0,0.0943,0.175,0.2155,0.2155,0.2019,0.1885,0.2154,0.2155,0.2155,0.2155,0.2155,0.2155,0.2155,0.2155,0.2155,0.2155,0.2155,0.2155,0.2155,0.2155,0.229,0.2425,0.2559,0.2694,0.2961,0.3365,0.3633,0.3768,0.4171,0.4437,0.4574,0.4961,0.5192,0.5119,0.5171,0.5224,0.5397,0.5339,0.5298,0.5548,0.579,0.6006,0.603,0.6231,0.6391,0.6221,0.5769,0.5485,0.5712,0.5908,0.5973,0.5796,0.5836,0.5873,0.5807,0.5803,0.5741,0.5741,0.5675,0.5636,0.5636,0.5636,0.5636,0.5636,0.5536,0.5436,0.5436,0.5336,0.5336,0.5336,0.5103,0.5035,0.3748,0.3681,0.3725,0.3788,0.3683,0.3458,0.3393,0.3282,0.3047,0.2708,0.259,0.2467,0.2222,0.2099,0.1979,0.199,0.1992,0.2001,0.2031,0.2034,0.2046,0.2076,0.2097,0.0,0.0,0.0,0.0,0.0,0.0,0.0,0.0,0.0,0.0,0.0,0.0,0.0,0.0,0.0,0.0269,0.0808,0.175,0.2155,0.2155,0.2155,0.2155,0.2155,0.2155,0.2155,0.2155,0.2155,0.2155,0.2155,0.2155,0.2155,0.2155,0.2155,0.2155,0.2155,0.2155,0.229,0.2425,0.2694,0.2828,0.3098,0.3365,0.3633,0.4037,0.4171,0.4437,0.4839,0.4977,0.5245,0.5626,0.5551,0.5469,0.5646,0.569,0.5729,0.579,0.6039,0.6407,0.6508,0.6566,0.6736,0.6744,0.6331,0.6106,0.6154,0.6614,0.6502,0.6362,0.6179,0.6245,0.6192,0.6231,0.6123,0.6162,0.6162,0.6097,0.6057,0.6057,0.6057,0.6057,0.6057,0.595,0.5848,0.5848,0.5751,0.5751,0.5751,0.5615,0.5647,0.3992,0.3774,0.3788,0.385,0.3864,0.388,0.3566,0.3579,0.3455,0.3086,0.2714,0.259,0.0,0.0,0.1986,0.2014,0.2019,0.203,0.2061,0.2067,0.2078,0.0,0.0,0.0,0.0,0.0,0.0,0.0,0.0,0.0,0.0,0.0,0.0,0.0,0.0,0.0,0.0,0.0,0.0808,0.2155,0.2155,0.2155,0.2155,0.2155,0.2155,0.2155,0.2155,0.2155,0.2155,0.2155,0.2155,0.2155,0.2155,0.2155,0.2155,0.2155,0.2155,0.229,0.229,0.2425,0.2694,0.2694,0.323,0.3768,0.3768,0.4037,0.444,0.4708,0.4839,0.4973,0.5379,0.5647,0.5893,0.5818,0.5996,0.6166,0.608,0.6234,0.6407,0.6403,0.6653,0.6898,0.6898,0.6971,0.6905,0.6446,0.6904,0.7276,0.7182,0.6842,0.6614,0.6386,0.6508,0.6552,0.6552,0.677,0.6812,0.6812,0.6806,0.6801,0.6801,0.6801,0.6801,0.6801,0.6585,0.6479,0.6479,0.6167,0.6061,0.6061,0.6066,0.6071,0.4294,0.4073,0.3853,0.3913,0.3927,0.3932,0.3822,0.3828,0.3704,0.3455,0.3332,0.3086,0.0,0.0,0.0,0.2014,0.2019,0.0,0.209,0.2098,0.0,0.0,0.0,0.2146,0.2154,0.1885,0.0,0.0,0.0,0.0,0.0,0.0,0.0,0.0,0.0,0.0,0.0,0.0,0.0808,0.2155,0.2155,0.2155,0.2155,0.2155,0.2155,0.2155,0.2155,0.2155,0.2155,0.2155,0.2155,0.2155,0.2155,0.2155,0.2155,0.2155,0.2425,0.2559,0.2559,0.2694,0.2828,0.3365,0.3633,0.3902,0.4037,0.444,0.4705,0.4839,0.5242,0.5644,0.5778,0.6049,0.6313,0.6293,0.6485,0.6653,0.6558,0.671,0.6864,0.6789,0.7021,0.7388,0.7627,0.7512,0.7375,0.7248,0.7475,0.7595,0.7282,0.716,0.716,0.7271,0.7243,0.7442,0.7552,0.7654,0.7576,0.7576,0.7493,0.744,0.744,0.744,0.744,0.744,0.7118,0.7006,0.7006,0.6695,0.659,0.659,0.646,0.6393,0.4364,0.414,0.3907,0.3943,0.3951,0.3951,0.3951,0.3951,0.3828,0.3704,0.3579,0.0,0.296,0.0,0.0,0.0,0.0,0.0,0.2102,0.2121,0.2135,0.0,0.2155,0.0,0.2155,0.2155,0.1885,0.0,0.0404,0.0,0.0,0.0,0.0,0.0,0.0,0.0,0.0,0.0673,0.1212,0.175,0.2019,0.2155,0.2155,0.2155,0.2155,0.2155,0.0,0.2155,0.2155,0.2155,0.2155,0.2155,0.2155,0.2155,0.2155,0.2425,0.2559,0.2694,0.3098,0.3232,0.323,0.3633,0.3902,0.4037,0.444,0.4708,0.4839,0.5242,0.5644,0.5912,0.6183,0.6451,0.6719,0.6719,0.6916,0.708,0.6974,0.7126,0.7271,0.7286,0.7505,0.775,0.8122,0.7895,0.7671,0.7713,0.802,0.8225,0.7927,0.775,0.7604,0.7715,0.7826,0.7826,0.7931,0.7974,0.7932,0.7932,0.7864,0.7822,0.7822,0.7822,0.7822,0.7822,0.7606,0.76,0.76,0.739,0.7283,0.7283,0.7138,0.6947,0.4545,0.4195,0.3951,0.3951,0.3951,0.3951,0.3951,0.3951,0.3951,0.3951,0.0,0.3579,0.3455,0.3083,0.2603,0.2517,0.0,0.2205,0.2105,0.2135,0.2155,0.2155,0.2155,0.2155,0.2155,0.2155,0.2155,0.2155,0.0943,0.0135,0.0,0.0,0.0,0.0,0.0,0.0,0.0,0.1481,0.1885,0.1212,0.1885,0.2155,0.2155,0.2155,0.2155,0.2155,0.0,0.0,0.2155,0.2155,0.2155,0.2155,0.2155,0.229,0.229,0.2559,0.2828,0.2963,0.3633,0.3768,0.3902,0.3902,0.4037,0.4308,0.4705,0.4839,0.4973,0.5644,0.5912,0.6049,0.6451,0.6719,0.6987,0.7121,0.7322,0.7491,0.7379,0.7516,0.777,0.7894,0.7994,0.8116,0.8366,0.8274,0.8068,0.8039,0.8567,0.899,0.895,0.8357,0.8048,0.8048,0.8048,0.8048,0.8159,0.8159,0.8159,0.8159,0.8159,0.8159,0.8159,0.8159,0.8159,0.8159,0.8048,0.8048,0.8048,0.8048,0.8048,0.8042,0.7715,0.7604,0.4807,0.4318,0.3951,0.3951,0.3951,0.3951,0.3951,0.3951,0.0,0.0,0.3828,0.3704,0.3579,0.3455,0.3101,0.2644,0.0,0.0,0.0,0.0,0.2155,0.0,0.0,0.0,0.0,0.0,0.0,0.0,0.0,0.0,0.0,0.0,0.0,0.0,0.0,0.0,0.0,0.1481,0.2154,0.2019,0.2154,0.2155,0.2155,0.2155,0.2155,0.2155,0.0,0.0,0.2155,0.2155,0.2155,0.2155,0.2155,0.2425,0.2559,0.2694,0.3096,0.3633,0.3768,0.4037,0.4174,0.4174,0.4308,0.4308,0.4705,0.4977,0.5379,0.5778,0.6183,0.6451,0.6853,0.6987,0.7121,0.7393,0.7646,0.7995,0.7752,0.7954,0.8019,0.8267,0.8366,0.8366,0.8732,0.8714,0.8775,0.8778,0.9202,0.9442,0.8957,0.8351,0.8152,0.8374,0.8374,0.8491,0.8719,0.8719,0.8719,0.8719,0.8719,0.8719,0.8719,0.8719,0.8719,0.8719,0.8491,0.8374,0.8374,0.8152,0.8048,0.8048,0.7937,0.7937,0.4933,0.4444,0.3951,0.3951,0.3951,0.3951,0.3951,0.0,0.0,0.0,0.3902,0.3902,0.378,0.3559,0.0,0.3115,0.2779,0.0,0.0,0.0,0.0,0.0,0.0,0.0,0.0,0.0,0.0,0.0,0.0,0.0,0.0,0.0,0.0,0.0,0.0,0.0,0.0,0.1077,0.1885,0.2155,0.2155,0.2155,0.2155,0.2155,0.2155,0.2155,0.0,0.0,0.2155,0.2155,0.2155,0.2155,0.2425,0.2559,0.2694,0.3098,0.3499,0.3768,0.4037,0.4174,0.4308,0.4308,0.4308,0.4442,0.4977,0.5245,0.5513,0.6049,0.6317,0.6585,0.6853,0.7121,0.7388,0.766,0.8015,0.8223,0.8165,0.822,0.8284,0.8476,0.8535,0.8732,0.897,0.897,0.9067,0.9359,0.9659,0.9801,0.9641,0.9184,0.8792,0.8719,0.8823,0.9044,0.9161,0.9272,0.9375,0.9375,0.9375,0.9375,0.9375,0.9375,0.9375,0.9375,0.9154,0.8933,0.8933,0.8602,0.8491,0.8491,0.838,0.8263,0.4909,0.4432,0.3948,0.3951,0.394,0.3932,0.3932,0.3886,0.0,0.3839,0.3839,0.3845,0.3858,0.0,0.3566,0.0,0.2999,0.2664,0.2575,0.2351,0.212,0.0,0.0,0.0,0.0,0.0,0.0,0.0,0.0,0.0,0.0,0.0,0.0,0.0,0.0,0.0135,0.0404,0.0943,0.1481,0.2155,0.2155,0.2155,0.2155,0.2155,0.2155,0.2155,0.0,0.0,0.0,0.2155,0.229,0.229,0.2559,0.2828,0.2963,0.3633,0.3902,0.3902,0.4174,0.4308,0.4308,0.4308,0.4308,0.4574,0.5248,0.5513,0.5647,0.6317,0.6455,0.6585,0.6987,0.7254,0.766,0.8056,0.8387,0.8579,0.8552,0.8625,0.8705,0.8682,0.8817,0.9098,0.9335,0.9207,0.9329,0.9943,0.9975,1.013,1.0332,0.9975,0.9646,0.9273,0.9418,0.9485,0.9485,0.9706,0.9816,0.9816,0.9816,0.9816,0.9816,0.9816,0.9816,0.9816,0.9596,0.9485,0.9485,0.9265,0.9051,0.9051,0.885,0.8752,0.4951,0.4635,0.4318,0.3948,0.391,0.3869,0.3869,0.0,0.3777,0.3777,0.3777,0.3796,0.385,0.3864,0.0,0.0,0.3249,0.2917,0.2575,0.2351,0.212,0.2151,0.0,0.0,0.0,0.0,0.0,0.0,0.0,0.0,0.0,0.0,0.0,0.0,0.0,0.0673,0.2019,0.1346,0.1481,0.2155,0.2155,0.2155,0.2155,0.2155,0.2155,0.2155,0.0,0.0,0.0,0.2155,0.2425,0.2694,0.2694,0.3098,0.3768,0.3768,0.4037,0.4308,0.4308,0.4308,0.4308,0.4308,0.444,0.4842,0.5245,0.5647,0.5912,0.6317,0.6455,0.6589,0.7259,0.7526,0.766,0.8323,0.8845,0.8938,0.883,0.908,0.9323,0.9456,0.9316,0.9335,0.97,0.97,0.9943,1.0565,1.0671,1.0733,1.0703,1.065,1.0442,1.0163,0.9883,0.9816,0.9816,0.9816,0.9816,0.9816,0.9816,0.9816,0.9816,0.9816,0.9816,0.9816,0.9816,0.9816,0.9816,0.9706,0.9706,0.9713,0.9518,0.9469,0.4871,0.4535,0.4196,0.3962,0.3823,0.3807,0.3807,0.3758,0.3714,0.3714,0.3714,0.3733,0.3796,0.3837,0.388,0.3817,0.3475,0.3255,0.2921,0.258,0.2356,0.2124,0.0,0.0,0.0,0.0,0.0,0.0,0.0,0.0,0.0,0.0,0.0404,0.1346,0.1346,0.1346,0.1481,0.175,0.1885,0.2155,0.2155,0.2155,0.2155,0.2155,0.2155,0.2155,0.0,0.0,0.0,0.2425,0.2559,0.2694,0.3232,0.3499,0.3768,0.4037,0.4174,0.4308,0.4308,0.4308,0.4308,0.4308,0.4574,0.4839,0.5245,0.5513,0.5781,0.6317,0.6585,0.6853,0.7393,0.7794,0.8189,0.859,0.8851,0.9105,0.9053,0.9335,0.9716,0.9703,0.9686,0.9808,0.9836,0.9815,1.0058,1.0679,1.1179,1.1277,1.1191,1.0971,1.0878,1.1043,1.0501,1.0189,1.0189,1.0311,1.0366,1.0366,1.0366,1.0366,1.0366,1.0469,1.0524,1.0524,1.0401,1.0447,1.0447,1.022,1.0107,1.0107,1.006,0.9975,0.4791,0.4571,0.4236,0.3886,0.3755,0.3744,0.3744,0.3695,0.3651,0.3651,0.3651,0.3676,0.3755,0.3804,0.3858,0.3937,0.3702,0.3351,0.3024,0.2813,0.2464,0.0,0.0,0.0,0.0,0.0,0.0,0.0,0.0,0.0,0.0,0.0404,0.0943,0.2154,0.2155,0.1885,0.1481,0.1885,0.2155,0.2155,0.2155,0.2155,0.2155,0.2155,0.2155,0.0,0.0,0.0,0.0,0.2559,0.2694,0.2963,0.3499,0.3902,0.4037,0.4174,0.4308,0.4308,0.4308,0.4308,0.4308,0.4308,0.444,0.4708,0.5245,0.5513,0.5647,0.6317,0.6853,0.7254,0.7526,0.8189,0.8584,0.8723,0.8984,0.925,0.9383,0.9808,1.0071,0.9967,1.0055,1.0019,0.9781,0.9964,1.0301,1.105,1.1542,1.1663,1.1526,1.1295,1.1343,1.1581,1.1189,1.0874,1.0705,1.0811,1.085,1.085,1.085,1.085,1.085,1.0972,1.1045,1.1045,1.0938,1.0878,1.0878,1.0647,1.0532,1.0532,1.0585,1.0514,0.4711,0.4651,0.4591,0.4004,0.3725,0.3679,0.3679,0.3632,0.3589,0.3589,0.3589,0.3624,0.3747,0.3771,0.3809,0.3932,0.3702,0.3351,0.3024,0.2813,0.2464,0.0,0.0,0.0,0.0,0.0,0.0,0.0,0.0,0.0,0.0,0.1481,0.1481,0.2155,0.2155,0.2155,0.2155,0.2155,0.2155,0.2155,0.2155,0.2155,0.2155,0.2155,0.0,0.0,0.0,0.0,0.0,0.2559,0.2961,0.3228,0.3633,0.4037,0.4308,0.4308,0.4308,0.4308,0.4308,0.4308,0.4308,0.4308,0.4308,0.4442,0.5111,0.5647,0.5912,0.6451,0.6991,0.7526,0.7927,0.8323,0.8717,0.8984,0.9389,0.9794,1.006,1.034,1.0493,1.0487,1.0249,1.0046,0.9777,1.0407,1.105,1.1655,1.1776,1.1776,1.1776,1.1776,1.1776,1.1776,1.1963,1.177,1.1232,1.1216,1.1216,1.1216,1.1216,1.1216,1.1216,1.1216,1.1224,1.1224,1.1224,1.1224,1.1224,1.1224,1.1224,1.1224,1.1059,1.0875,0.4882,0.4606,0.4438,0.3987,0.3746,0.3616,0.3616,0.3602,0.3589,0.3589,0.3589,0.3624,0.3747,0.3768,0.3809,0.3932,0.3828,0.3598,0.0,0.0,0.0,0.0,0.0,0.0,0.0,0.0,0.0,0.0,0.0,0.0,0.0,0.0,0.2019,0.2155,0.2155,0.2155,0.2155,0.2155,0.2155,0.2155,0.2155,0.2155,0.2155,0.2155,0.0,0.0,0.0,0.0,0.0,0.2961,0.323,0.3633,0.4037,0.4174,0.4308,0.4308,0.4308,0.4308,0.4308,0.4308,0.4308,0.4308,0.4308,0.4442,0.4842,0.5245,0.5781,0.6857,0.7393,0.766,0.8323,0.8717,0.8984,0.9117,0.9522,1.006,1.0193,1.0419,1.0616,1.0514,1.0541,1.0404,0.9935,1.0747,1.1547,1.1792,1.1776,1.1776,1.1776,1.1776,1.1889,1.2001,1.2072,1.2082,1.1779,1.1876,1.1914,1.1914,1.1914,1.1914,1.1914,1.2043,1.2112,1.2112,1.2233,1.2183,1.2183,1.2183,1.2065,1.1827,1.1654,1.135,0.4859,0.4709,0.455,0.4107,0.3907,0.3701,0.3589,0.3589,0.3589,0.3589,0.3589,0.3624,0.3747,0.3768,0.3809,0.3932,0.3951,0.0,0.0,0.0,0.0,0.0,0.0,0.0,0.0,0.0,0.0,0.0,0.0,0.0,0.0,0.0,0.2155,0.2155,0.2155,0.2155,0.2155,0.2155,0.2155,0.2155,0.2155,0.2155,0.2155,0.2155,0.0,0.0,0.0,0.0,0.0,0.323,0.3633,0.3768,0.4174,0.4308,0.4308,0.4308,0.4308,0.4308,0.4308,0.4308,0.4308,0.4308,0.444,0.4574,0.4977,0.5245,0.5915,0.7125,0.7526,0.766,0.8456,0.8851,0.9117,0.9256,0.9788,1.0193,1.0326,1.0585,1.069,1.0595,1.0658,1.0677,1.0615,1.1245,1.188,1.189,1.1817,1.1897,1.1889,1.201,1.2001,1.2354,1.2475,1.2551,1.2438,1.2434,1.2363,1.2363,1.2363,1.2363,1.2363,1.2487,1.2548,1.2548,1.2662,1.2724,1.2724,1.2724,1.2595,1.2354,1.2122,1.1881,0.0,0.4729,0.4687,0.415,0.3984,0.3918,0.3698,0.3589,0.0,0.3589,0.3591,0.363,0.3747,0.3774,0.3815,0.3932,0.0,0.0,0.0,0.0,0.0,0.0,0.0,0.0,0.0,0.0,0.0,0.0,0.0,0.0,0.0,0.0,0.2155,0.2155,0.2155,0.2155,0.2155,0.2155,0.2155,0.2155,0.2155,0.2155,0.2155,0.2155,0.0,0.0,0.0,0.0,0.0,0.3499,0.3768,0.3902,0.4174,0.4308,0.4308,0.4308,0.4308,0.4308,0.4308,0.4308,0.4308,0.4308,0.4574,0.4842,0.5245,0.5647,0.618,0.7259,0.7526,0.766,0.8456,0.8851,0.925,0.9661,0.9927,1.0326,1.0585,1.0717,1.0717,1.0717,1.0733,1.0883,1.1667,1.1791,1.1945,1.2036,1.202,1.1905,1.2122,1.2234,1.2354,1.2724,1.2964,1.3204,1.3204,1.2964,1.2724,1.2724,1.2724,1.2724,1.2724,1.2724,1.2724,1.2724,1.2724,1.2724,1.2724,1.2724,1.2724,1.2715,1.2354,1.2234,0.4774,0.0,0.4725,0.4571,0.4385,0.4195,0.0,0.3924,0.3813,0.3589,0.3624,0.3679,0.3755,0.3807,0.3864,0.0,0.0,0.0,0.0,0.0,0.0,0.0,0.0,0.0,0.0,0.0,0.0,0.0,0.0,0.0,0.0,0.0,0.2155,0.2155,0.2155,0.2155,0.2155,0.2155,0.2155,0.2155,0.2155,0.2155,0.2155,0.2155,0.0,0.0,0.0,0.0,0.3094,0.3633,0.3902,0.4174,0.4308,0.4308,0.4308,0.4308,0.4308,0.4308,0.4308,0.4308,0.4308,0.4308,0.4308,0.4574,0.5248,0.5647,0.618,0.7259,0.7526,0.7794,0.8717,0.9256,0.9661,1.006,1.0326,1.0585,1.0717,1.0717,1.0717,1.0711,1.067,1.0864,1.1667,1.2234,1.248,1.2201,1.2242,1.2289,1.2259,1.2475,1.2724,1.3084,1.3204,1.3324,1.3564,1.3564,1.3444,1.3444,1.3444,1.3444,1.3444,1.3444,1.3444,1.3444,1.3444,1.3444,1.3444,1.3204,1.3084,1.3084,1.2724,1.2595,0.481,0.4834,0.4853,0.4729,0.4669,0.4501,0.4244,0.4257,0.4155,0.4073,0.3996,0.3937,0.403,0.3956,0.0,0.0,0.0,0.0,0.0,0.0,0.0,0.0,0.0,0.0,0.0,0.0,0.0,0.0,0.0,0.0,0.0,0.0,0.2155,0.2155,0.2155,0.2155,0.2155,0.2155,0.2155,0.2155,0.2155,0.2155,0.2155,0.2155,0.0,0.0,0.0,0.0,0.3228,0.3768,0.4174,0.4308,0.4308,0.4308,0.4308,0.4308,0.4308,0.4308,0.4308,0.4308,0.4308,0.4308,0.4308,0.4442,0.4977,0.5379,0.5915,0.7125,0.7526,0.7789,0.8851,0.9389,0.9794,1.006,1.0459,1.0717,1.0717,1.0717,1.0711,1.0704,1.069,1.1059,1.2049,1.2499,1.2636,1.243,1.2383,1.2488,1.2508,1.2776,1.3084,1.3444,1.3444,1.3444,1.3684,1.3813,1.3813,1.3693,1.3693,1.3693,1.3693,1.3693,1.3693,1.3693,1.3693,1.3693,1.3693,1.3564,1.3444,1.3444,1.3084,1.2964,0.4794,0.4892,0.4994,0.4767,0.484,0.4811,0.4571,0.4599,0.4627,0.4579,0.0,0.4205,0.4315,0.4108,0.0,0.0,0.0,0.0,0.0,0.0,0.0,0.0,0.0,0.0,0.0,0.0,0.0,0.0,0.0,0.0,0.0,0.0,0.0,0.2155,0.2155,0.2155,0.2155,0.2155,0.2155,0.2155,0.2155,0.2155,0.2155,0.2155,0.0,0.0,0.0,0.0,0.3228,0.4037,0.4308,0.4308,0.4308,0.4308,0.4308,0.4308,0.4308,0.4308,0.4308,0.444,0.444,0.444,0.444,0.444,0.4708,0.5111,0.5647,0.6991,0.7393,0.7794,0.8851,0.9389,0.9794,1.0193,1.0452,1.0717,1.0717,1.0711,1.0704,1.0836,1.0822,1.1212,1.2584,1.2849,1.2734,1.2701,1.2683,1.2721,1.3066,1.3256,1.337,1.374,1.3712,1.3693,1.3813,1.4052,1.4052,1.3813,1.3813,1.3813,1.3813,1.3813,1.3813,1.3813,1.3813,1.3813,1.3813,1.3693,1.3693,1.3684,1.3444,1.3324,0.4704,0.4847,0.4994,0.5084,0.501,0.5066,0.4893,0.487,0.4925,0.4707,0.0,0.0,0.0,0.4261,0.0,0.0,0.0,0.0,0.0,0.0,0.0,0.0,0.0,0.0,0.0,0.0,0.0,0.0,0.0,0.0,0.0,0.0,0.0,0.2155,0.2155,0.2155,0.2155,0.2155,0.2155,0.2155,0.2155,0.2155,0.2155,0.2155,0.2155,0.0,0.0,0.3228,0.3228,0.4037,0.4308,0.4308,0.4308,0.4308,0.4308,0.4308,0.4308,0.4308,0.4574,0.4708,0.4708,0.4708,0.4708,0.4705,0.4839,0.5111,0.5513,0.6455,0.7125,0.7794,0.9262,0.9661,0.9794,1.0452,1.0717,1.0717,1.0717,1.0711,1.0836,1.1512,1.163,1.1894,1.2708,1.2816,1.2873,1.2976,1.3294,1.3444,1.3653,1.3834,1.3958,1.3958,1.3797,1.3813,1.4052,1.4172,1.4291,1.4411,1.4411,1.4411,1.4411,1.4411,1.4411,1.4411,1.4291,1.4172,1.4172,1.3813,1.3693,1.3693,1.3684,1.3573,0.4683,0.4839,0.4994,0.5084,0.5145,0.5118,0.5182,0.5252,0.5307,0.5284,0.0,0.0,0.0,0.0,0.0,0.0,0.0,0.0,0.0,0.0,0.0,0.0,0.0,0.0,0.0,0.0,0.0,0.0,0.0,0.0,0.0,0.0,0.0,0.0,0.2155,0.2155,0.2155,0.2155,0.2155,0.2155,0.2155,0.2155,0.2155,0.2155,0.2155,0.229,0.0,0.3228,0.3228,0.4037,0.4308,0.4308,0.4308,0.4308,0.4308,0.4308,0.4308,0.4308,0.4705,0.4839,0.4839,0.5111,0.5111,0.5111,0.5111,0.5245,0.5517,0.6321,0.6991,0.7794,0.8989,0.9528,0.9927,1.0585,1.0717,1.0717,1.0711,1.0704,1.0829,1.1087,1.1762,1.2437,1.2708,1.2972,1.321,1.3248,1.3664,1.3952,1.3988,1.4048,1.4175,1.4423,1.4231,1.4217,1.459,1.471,1.465,1.465,1.465,1.465,1.465,1.465,1.465,1.465,1.453,1.4411,1.4411,1.4172,1.3933,1.3933,1.3927,1.3863,0.4659,0.4839,0.5018,0.5092,0.5177,0.5292,0.5467,0.5524,0.559,0.0,0.0,0.0,0.0,0.0,0.0,0.0,0.0,0.0,0.0,0.0,0.0,0.0,0.0,0.0,0.0,0.0,0.0,0.0,0.0,0.0,0.0,0.0,0.0,0.0,0.2155,0.2155,0.2155,0.2155,0.2155,0.2155,0.2155,0.2155,0.2155,0.2155,0.229,0.229,0.2961,0.3228,0.3362,0.4037,0.4308,0.4308,0.4308,0.4308,0.4308,0.4308,0.4308,0.444,0.4842,0.4973,0.5108,0.5379,0.5513,0.5513,0.5383,0.5379,0.5517,0.6321,0.6991,0.7655,0.8851,0.9389,0.9927,1.0585,1.0717,1.0717,1.0704,1.0829,1.0955,1.067,1.1886,1.284,1.284,1.3235,1.3507,1.3498,1.3891,1.4189,1.4318,1.4388,1.4509,1.4886,1.469,1.4666,1.5105,1.5183,1.5178,1.4898,1.4888,1.4888,1.4888,1.4888,1.4888,1.4888,1.4769,1.4769,1.4769,1.4461,1.437,1.425,1.4231,1.4204,0.4581,0.4834,0.51,0.5104,0.5177,0.5292,0.5467,0.5573,0.0,0.5872,0.0,0.0,0.0,0.0,0.0,0.0,0.0,0.0,0.0,0.0,0.0,0.0,0.0,0.0,0.0,0.0,0.0,0.0,0.0,0.0,0.0,0.0,0.0,0.0,0.0,0.2155,0.2155,0.2155,0.2155,0.2155,0.2155,0.2155,0.2155,0.2155,0.2425,0.2694,0.3096,0.3362,0.3768,0.4174,0.4308,0.4308,0.4308,0.4308,0.4308,0.4308,0.444,0.4839,0.5245,0.5513,0.5778,0.5912,0.5912,0.5778,0.5513,0.5379,0.5517,0.6321,0.6719,0.7383,0.8717,0.9389,0.9927,1.0585,1.0717,1.0717,1.0704,1.124,1.1505,1.0809,1.1886,1.284,1.284,1.3104,1.3498,1.3875,1.4128,1.4511,1.4782,1.4733,1.4738,1.4983,1.4915,1.4958,1.537,1.5693,1.5828,1.5493,1.5483,1.5483,1.5483,1.5483,1.5483,1.5483,1.5235,1.5116,1.5116,1.4973,1.4831,1.4465,1.469,1.4538,0.4668,0.4834,0.5108,0.5108,0.5259,0.0,0.0,0.5708,0.5851,0.5978,0.6072,0.0,0.0,0.0,0.0,0.0,0.0,0.0,0.0,0.0,0.0,0.0,0.0,0.0,0.0,0.0,0.0,0.0,0.0,0.0,0.0,0.0,0.0,0.0,0.0,0.2155,0.2155,0.2155,0.2155,0.2155,0.2155,0.2155,0.2155,0.2155,0.2425,0.2694,0.3096,0.3362,0.3768,0.4174,0.4308,0.4308,0.4308,0.4308,0.4308,0.4308,0.4574,0.4839,0.5245,0.5647,0.5912,0.6183,0.6317,0.6183,0.6183,0.6053,0.6183,0.6719,0.7116,0.765,0.8851,0.9389,0.9927,1.0585,1.0717,1.0717,1.0697,1.124,1.1776,1.2025,1.2429,1.2972,1.3384,1.363,1.3884,1.4137,1.4539,1.48,1.4931,1.5005,1.5336,1.5584,1.5905,1.593,1.5958,1.606,1.614,1.6054,1.5763,1.5601,1.5601,1.5601,1.5601,1.5601,1.5622,1.5686,1.5696,1.5565,1.5432,1.5309,1.5031,1.4886,0.4759,0.4935,0.5116,0.5145,0.0,0.0,0.5704,0.5827,0.5949,0.6068,0.6058,0.0,0.0,0.0,0.0,0.0,0.0,0.0,0.0,0.0,0.0,0.0,0.0,0.0,0.0,0.0,0.0,0.0,0.0,0.0,0.0,0.0,0.0,0.0,0.0,0.0,0.2155,0.2155,0.2155,0.2155,0.2155,0.2155,0.2155,0.2155,0.2423,0.2827,0.3094,0.3497,0.4037,0.4174,0.4308,0.4308,0.4308,0.4308,0.4308,0.4308,0.4574,0.4977,0.5245,0.5647,0.6183,0.6451,0.6455,0.6455,0.6585,0.6585,0.6585,0.7254,0.7517,0.7917,0.8984,0.9522,0.9927,1.0585,1.0717,1.0711,1.069,1.1094,1.1769,1.2568,1.284,1.2972,1.3787,1.3892,1.4006,1.4408,1.467,1.4931,1.5062,1.5332,1.5724,1.6104,1.6476,1.6678,1.6441,1.642,1.6398,1.6323,1.6011,1.5828,1.5828,1.5828,1.5828,1.5828,1.5978,1.6064,1.6064,1.6053,1.6045,1.5919,1.5513,1.5357,0.4944,0.5031,0.5128,0.5222,0.0,0.0,0.5876,0.5916,0.597,0.6145,0.0,0.5379,0.0,0.0,0.0,0.0,0.0,0.0,0.0,0.0,0.0,0.0,0.0,0.0,0.0,0.0,0.0,0.0,0.0,0.0,0.0,0.0,0.0,0.0,0.0,0.0,0.2155,0.2155,0.2155,0.2155,0.2155,0.2155,0.2155,0.2155,0.2558,0.3228,0.3228,0.3633,0.4308,0.4308,0.4308,0.4308,0.4308,0.4308,0.4308,0.4308,0.4711,0.5379,0.5379,0.5919,0.6455,0.6455,0.6455,0.6589,0.6853,0.6719,0.6723,0.7794,0.8061,0.8328,0.9401,0.9667,0.9933,1.0591,1.0711,1.0697,1.069,1.0677,1.1073,1.2561,1.284,1.2972,1.3787,1.3892,1.4006,1.4408,1.467,1.5071,1.5463,1.5473,1.5724,1.6374,1.6753,1.6915,1.6689,1.6667,1.6571,1.6334,1.6323,1.6323,1.6312,1.6312,1.6312,1.6312,1.6312,1.6312,1.6312,1.6549,1.653,1.6149,1.5992,1.5844,0.5232,0.5236,0.0,0.5435,0.0,0.0,0.0,0.6014,0.0,0.0,0.5882,0.0,0.0,0.0,0.0,0.0,0.0,0.0,0.0,0.0,0.0,0.0,0.0,0.0,0.0,0.0,0.0,0.0,0.0,0.0,0.0,0.0,0.0,0.0,0.0,0.0,0.2155,0.2155,0.2155,0.2155,0.2155,0.2155,0.2155,0.2155,0.2423,0.2827,0.3094,0.3497,0.3902,0.4174,0.4308,0.4308,0.4308,0.4308,0.4308,0.4308,0.4711,0.5379,0.5379,0.5919,0.6455,0.6455,0.6719,0.6866,0.7066,0.7364,0.7786,0.8549,0.8845,0.9257,1.0073,1.0353,1.0438,1.0638,1.0711,1.0836,1.1372,1.1087,1.1073,1.2561,1.3244,1.3638,1.3892,1.4146,1.4408,1.467,1.48,1.5192,1.5714,1.6114,1.6374,1.6753,1.7001,1.698,1.6904,1.6904,1.6872,1.6807,1.6797,1.6657,1.6334,1.6312,1.6312,1.6312,1.6474,1.656,1.656,1.6786,1.6904,1.6765,1.6193,1.5974,0.5521,0.5536,0.0,0.576,0.5895,0.6064,0.6337,0.0,0.0,0.0,0.0,0.0,0.0,0.0,0.0,0.0,0.0,0.0,0.0,0.0,0.0,0.0,0.0,0.0,0.0,0.0,0.0,0.0,0.0,0.0,0.0,0.0,0.0,0.0,0.0,0.0,0.2155,0.2155,0.2155,0.2155,0.2155,0.2155,0.2155,0.2155,0.2425,0.2694,0.323,0.3633,0.4037,0.4174,0.4308,0.4308,0.4308,0.4308,0.4308,0.4308,0.4708,0.5245,0.5379,0.5781,0.6317,0.6451,0.6745,0.7053,0.7387,0.7844,0.8443,0.9071,0.9504,0.992,1.0474,1.075,1.0842,1.0941,1.0745,1.0867,1.1694,1.168,1.1784,1.268,1.3203,1.3584,1.4173,1.4277,1.4399,1.48,1.5192,1.5583,1.6104,1.6494,1.6753,1.7001,1.7001,1.7001,1.7001,1.7141,1.7141,1.7141,1.7141,1.7011,1.6729,1.6592,1.6592,1.6592,1.6732,1.6797,1.6797,1.6937,1.7001,1.7001,1.6364,1.5974,0.5711,0.5837,0.0,0.6089,0.6365,0.0,0.0,0.0,0.0,0.0,0.0,0.0,0.0,0.0,0.0,0.0,0.0,0.0,0.0,0.0,0.0,0.0,0.0,0.0,0.0,0.0,0.0,0.0,0.0,0.0,0.0,0.0,0.0,0.0,0.0,0.0,0.2155,0.2155,0.2155,0.0,0.2155,0.2155,0.2155,0.2155,0.2425,0.2694,0.3499,0.3902,0.4308,0.4308,0.4308,0.4308,0.4308,0.4308,0.4308,0.4308,0.4574,0.4839,0.5245,0.5647,0.5912,0.6317,0.6783,0.7269,0.7688,0.804,0.8686,0.9393,0.9817,1.0234,1.0651,1.0928,1.1206,1.1344,1.102,1.0987,1.1696,1.2383,1.2893,1.2871,1.2823,1.3311,1.4658,1.4585,1.4417,1.48,1.5583,1.6104,1.6504,1.6753,1.7001,1.7001,1.7001,1.7001,1.7001,1.7271,1.7529,1.7529,1.7529,1.7529,1.7529,1.7141,1.7001,1.7001,1.7001,1.7001,1.7001,1.7001,1.7001,1.7001,1.6364,1.5974,0.5994,0.6142,0.0,0.0,0.6589,0.6898,0.715,0.0,0.0,0.0,0.0,0.0,0.0,0.0,0.0,0.0,0.0,0.0,0.0,0.0,0.0,0.0,0.0,0.0,0.0,0.0,0.0,0.0,0.0,0.0,0.0,0.0,0.0,0.0,0.0,0.2155,0.2155,0.2155,0.2155,0.0,0.2155,0.2155,0.2155,0.2155,0.2425,0.2694,0.3096,0.3499,0.3902,0.4174,0.4308,0.4308,0.4308,0.4308,0.4308,0.4308,0.4574,0.4839,0.4839,0.5376,0.5912,0.6046,0.6779,0.7693,0.7774,0.8433,0.9111,1.0054,1.037,1.0513,1.1233,1.1518,1.1525,1.1952,1.1888,1.1833,1.2109,1.2956,1.3642,1.3609,1.3142,1.3246,1.462,1.4879,1.4837,1.4941,1.5714,1.6244,1.6364,1.6742,1.7001,1.7001,1.7001,1.7001,1.7001,1.7271,1.7529,1.7529,1.7787,1.7787,1.7529,1.7141,1.7001,1.7001,1.7001,1.7001,1.7001,1.7001,1.7001,1.7001,1.6364,1.5974,0.6072,0.0,0.0,0.6927,0.0,0.7383,0.7658,0.0,0.0,0.0,0.0,0.0,0.0,0.0,0.0,0.0,0.0,0.0,0.0,0.0,0.0,0.0,0.0,0.0,0.0,0.0,0.0,0.0,0.0,0.0,0.0,0.0,0.0,0.0,0.2155,0.2155,0.2155,0.2155,0.2155,0.2155,0.2155,0.2155,0.2155,0.2155,0.2425,0.2694,0.2827,0.323,0.3499,0.3768,0.3902,0.4037,0.4037,0.4174,0.4308,0.4308,0.444,0.4574,0.4705,0.5108,0.5376,0.5778,0.6673,0.7626,0.7817,0.8651,0.9655,1.0293,1.0599,1.0894,1.1476,1.1619,1.1763,1.233,1.2484,1.264,1.2485,1.32,1.3891,1.3955,1.3612,1.3838,1.5329,1.5115,1.4911,1.4922,1.5633,1.6234,1.6613,1.6872,1.7001,1.7001,1.7001,1.7141,1.7271,1.7529,1.7787,1.8056,1.8173,1.8173,1.7787,1.74,1.7141,1.7001,1.7001,1.7001,1.7001,1.7001,1.7001,1.7001,1.6364,1.5974,0.6051,0.0,0.6779,0.7323,0.7562,0.0,0.8095,0.8285,0.0,0.0,0.0,0.0,0.0,0.0,0.0,0.0,0.0,0.0,0.0,0.0,0.0,0.0,0.0,0.0,0.0,0.0,0.0,0.0,0.0,0.0,0.0,0.0,0.2155,0.2155,0.2155,0.2155,0.2155,0.2155,0.2155,0.2155,0.2155,0.2155,0.2155,0.2155,0.229,0.2559,0.2694,0.2827,0.3094,0.3228,0.3362,0.3633,0.3633,0.3902,0.4171,0.4174,0.4174,0.4305,0.4574,0.4705,0.4973,0.5644,0.6437,0.7279,0.7697,0.8829,0.9879,1.0311,1.075,1.1044,1.1476,1.1619,1.1763,1.261,1.2896,1.3039,1.3024,1.346,1.3863,1.3866,1.4089,1.4727,1.5981,1.5624,1.5022,1.492,1.559,1.6416,1.6882,1.7001,1.7001,1.7001,1.7001,1.7141,1.768,1.7916,1.8173,1.8571,1.8699,1.8442,1.8033,1.7787,1.74,1.7001,1.7001,1.7001,1.7001,1.7001,1.7001,1.7001,1.6364,1.5974,0.6051,0.0,0.6844,0.0,0.7372,0.7611,0.0,0.0,0.0,0.0,0.0,0.0,0.0,0.0,0.0,0.0,0.0,0.0,0.0,0.0,0.0,0.0,0.0,0.0,0.0,0.0,0.0,0.0,0.0,0.0,0.0,0.2155,0.2155,0.2155,0.2155,0.2155,0.2155,0.2155,0.2155,0.2155,0.2155,0.2155,0.2155,0.2155,0.229,0.229,0.2559,0.2694,0.2828,0.3094,0.3228,0.3228,0.3228,0.3362,0.3362,0.3768,0.3902,0.3902,0.4305,0.4574,0.4839,0.5379,0.6164,0.6996,0.7697,0.8545,0.959,1.0311,1.075,1.1044,1.1476,1.1619,1.1763,1.261,1.2602,1.2745,1.3611,1.3904,1.3888,1.3855,1.5,1.5943,1.6163,1.6096,1.5786,1.4967,1.6012,1.6886,1.7033,1.7001,1.7001,1.7001,1.7001,1.7141,1.768,1.7916,1.8173,1.8571,1.8828,1.8688,1.8033,1.7905,1.7647,1.7001,1.7001,1.7001,1.7001,1.7001,1.7001,1.7001,1.6364,1.5974,0.6121,0.6491,0.6861,0.0,0.7285,0.7497,0.7801,0.0,0.0,0.0,0.0,0.0,0.0,0.0,0.0,0.0,0.0,0.0,0.0,0.0,0.0,0.0,0.0,0.0,0.0,0.0,0.0,0.0,0.0,0.0,0.2827,0.2827,0.2827,0.2827,0.2827,0.2827,0.2827,0.2558,0.2425,0.2155,0.2155,0.2155,0.2155,0.2155,0.2155,0.2155,0.229,0.2425,0.2425,0.2558,0.2692,0.2961,0.2961,0.3096,0.3228,0.3362,0.3497,0.3497,0.3633,0.3902,0.4305,0.4708,0.5587,0.6513,0.7261,0.8505,0.9644,1.0287,1.0894,1.1332,1.1619,1.1619,1.1756,1.2459,1.2602,1.2888,1.3753,1.3904,1.4189,1.5061,1.5781,1.6169,1.6206,1.6231,1.6077,1.571,1.6469,1.697,1.6954,1.6957,1.7001,1.7001,1.7001,1.713,1.726,1.7916,1.8185,1.8302,1.8571,1.8431,1.7787,1.7787,1.7529,1.7001,1.7001,1.7001,1.7001,1.7001,1.7001,1.7001,1.6364,1.5974,0.0,0.0,0.6806,0.7013,0.7176,0.7366,0.0,0.0,0.0,0.0,0.0,0.0,0.0,0.0,0.0,0.0,0.0,0.0,0.0,0.0,0.0,0.0,0.0,0.0,0.0,0.0,0.0,0.0,0.0,0.0,0.3228,0.3228,0.3228,0.3228,0.3228,0.3228,0.3228,0.2961,0.2692,0.2423,0.2423,0.2423,0.2423,0.2423,0.2423,0.2423,0.2289,0.2155,0.2155,0.2155,0.229,0.2559,0.2559,0.2692,0.2961,0.3096,0.3096,0.3094,0.3228,0.3362,0.3768,0.4037,0.4888,0.6054,0.6831,0.8324,0.9712,1.0275,1.1038,1.1619,1.1619,1.1619,1.1756,1.2166,1.2309,1.2745,1.3753,1.3896,1.434,1.596,1.6226,1.6197,1.6188,1.6196,1.6202,1.6254,1.6848,1.7294,1.697,1.6933,1.6936,1.7012,1.7001,1.699,1.698,1.7787,1.8056,1.8033,1.8302,1.8185,1.7529,1.7529,1.74,1.7001,1.7001,1.7001,1.7001,1.7001,1.7001,1.6872,1.6234,1.5974,0.6089,0.6355,0.0,0.679,0.6991,0.0,0.0,0.0,0.0,0.0,0.0,0.0,0.0,0.0,0.0,0.0,0.0,0.0,0.0,0.0,0.0,0.0,0.0,0.0,0.0,0.0,0.0,0.0,0.0,0.0,0.3228,0.3228,0.3228,0.3228,0.3228,0.3228,0.3228,0.3228,0.3228,0.3094,0.3094,0.3094,0.3094,0.3094,0.3094,0.3094,0.2423,0.2155,0.2155,0.2155,0.2155,0.229,0.229,0.229,0.2289,0.2559,0.2694,0.2828,0.3094,0.3228,0.3362,0.3633,0.4346,0.523,0.6414,0.7902,0.9433,1.0275,1.1038,1.1619,1.1619,1.1619,1.1613,1.1579,1.1715,1.2008,1.3611,1.3888,1.4324,1.5951,1.6226,1.6197,1.6188,1.6169,1.6234,1.6144,1.741,1.7959,1.7156,1.6939,1.6986,1.7023,1.7001,1.699,1.698,1.7389,1.7658,1.8033,1.8033,1.7916,1.7529,1.7529,1.74,1.7001,1.7001,1.7001,1.7001,1.7001,1.6882,1.6504,1.6104,1.5844,0.6083,0.0,0.0,0.6676,0.6866,0.7078,0.0,0.0,0.0,0.0,0.0,0.0,0.0,0.0,0.0,0.0,0.0,0.0,0.0,0.0,0.0,0.0,0.0,0.0,0.0,0.0,0.0,0.0,0.0,0.0,0.4574,0.4574,0.4574,0.4574,0.4574,0.444,0.4168,0.4037,0.3768,0.3633,0.3362,0.3228,0.3228,0.3228,0.3228,0.3228,0.2961,0.2827,0.2827,0.2827,0.2827,0.2827,0.2827,0.2827,0.2827,0.2961,0.2961,0.3096,0.3094,0.3362,0.3633,0.3497,0.4184,0.5444,0.6256,0.7715,0.9187,0.9959,1.0887,1.1619,1.1619,1.1619,1.1907,1.2904,1.3047,1.3182,1.3761,1.3888,1.4022,1.4608,1.5479,1.6197,1.6188,1.6178,1.6141,1.6167,1.7524,1.8331,1.7937,1.7331,1.6997,1.7023,1.7001,1.7001,1.699,1.74,1.754,1.7389,1.7529,1.7529,1.7141,1.7141,1.7141,1.7001,1.7001,1.7001,1.7001,1.7001,1.6882,1.6504,1.6104,1.5844,0.6178,0.6317,0.6567,0.0,0.0,0.6904,0.0,0.0,0.0,0.0,0.0,0.0,0.0,0.0,0.0,0.0,0.0,0.0,0.0,0.0,0.0,0.0,0.0,0.0,0.0,0.0,0.0,0.0,0.0,0.0,0.5781,0.5647,0.5513,0.5379,0.5379,0.5245,0.4977,0.4842,0.4585,0.4335,0.4065,0.3937,0.3954,0.3954,0.3954,0.3954,0.3954,0.3663,0.3228,0.3228,0.3228,0.3228,0.3228,0.3228,0.3228,0.3228,0.3228,0.3228,0.3228,0.3362,0.3633,0.3497,0.4184,0.544,0.6252,0.7571,0.9035,0.981,1.0887,1.1619,1.1619,1.1613,1.19,1.3205,1.3777,1.392,1.3904,1.3896,1.403,1.4164,1.5337,1.6216,1.6188,1.6178,1.6169,1.6263,1.7487,1.8313,1.8226,1.7449,1.6949,1.7033,1.7001,1.7001,1.7001,1.7271,1.7271,1.7001,1.7271,1.7271,1.7001,1.7001,1.7001,1.7001,1.7001,1.7001,1.6882,1.6882,1.6623,1.6364,1.5974,1.5593,0.0,0.0,0.0,0.0,0.0,0.0,0.0,0.0,0.0,0.0,0.0,0.0,0.0,0.0,0.0,0.0,0.0,0.0,0.0,0.0,0.0,0.0,0.0,0.0,0.0,0.0,0.0,0.0,0.0,0.6451,0.6451,0.6183,0.5781,0.5513,0.5513,0.5517,0.5517,0.5517,0.5423,0.5498,0.5498,0.5532,0.56,0.56,0.56,0.56,0.56,0.469,0.3232,0.3232,0.3232,0.3232,0.3232,0.3232,0.3232,0.3232,0.3232,0.3232,0.3232,0.3232,0.3367,0.3773,0.4349,0.5234,0.6414,0.7622,0.8708,0.9833,1.0887,1.1619,1.1619,1.1613,1.1749,1.261,1.334,1.392,1.3904,1.3904,1.4047,1.4768,1.5648,1.6235,1.6188,1.6178,1.6169,1.6141,1.747,1.8186,1.7695,1.7307,1.6963,1.7055,1.7001,1.7001,1.7001,1.7001,1.7001,1.7001,1.7001,1.7001,1.7001,1.7001,1.7001,1.7001,1.7001,1.6882,1.6504,1.6504,1.6364,1.5974,1.5593,1.5332,0.6882,0.0,0.0,0.0,0.0,0.0,0.0,0.6812,0.0,0.0,0.0,0.0,0.0,0.0,0.0,0.0,0.0,0.0,0.0,0.0,0.0,0.0,0.0,0.0,0.0,0.0,0.0,0.0,0.7012,0.7044,0.7254,0.7125,0.6991,0.6857,0.6857,0.7022,0.7088,0.6821,0.6731,0.6823,0.6545,0.6279,0.6023,0.6023,0.588,0.56,0.56,0.5298,0.4983,0.4983,0.4983,0.4983,0.4983,0.4983,0.4983,0.4983,0.4983,0.4983,0.4983,0.4983,0.4845,0.4848,0.5414,0.6418,0.679,0.7823,0.9144,1.0126,1.1044,1.1626,1.1619,1.1619,1.1756,1.261,1.3047,1.3484,1.3761,1.3904,1.3896,1.4173,1.5212,1.6245,1.6207,1.6188,1.6169,1.6141,1.6574,1.7007,1.7559,1.7328,1.6995,1.7055,1.7001,1.7001,1.7001,1.7001,1.7001,1.7001,1.7001,1.7001,1.7001,1.7001,1.7001,1.7001,1.6753,1.6623,1.6504,1.6504,1.6244,1.5593,1.5202,1.4931,0.7233,0.7236,0.7135,0.7042,0.0,0.0,0.6918,0.6987,0.0,0.0,0.0,0.0,0.0,0.0,0.0,0.0,0.0,0.0,0.0,0.0,0.0,0.0,0.0,0.0,0.0,0.0,0.0,0.0,0.7692,0.7606,0.772,0.7769,0.766,0.7526,0.7526,0.7555,0.7612,0.7519,0.7456,0.7557,0.7318,0.7217,0.6977,0.6831,0.6689,0.6402,0.626,0.6122,0.6122,0.6122,0.594,0.56,0.56,0.574,0.588,0.588,0.6019,0.6159,0.6159,0.6159,0.6159,0.6023,0.6465,0.7204,0.7402,0.8017,0.8918,1.0144,1.1044,1.1626,1.1619,1.1619,1.1763,1.233,1.276,1.3047,1.3611,1.3761,1.3896,1.4181,1.5061,1.579,1.5914,1.6046,1.6178,1.616,1.6225,1.647,1.712,1.7109,1.7023,1.7044,1.7001,1.7001,1.7001,1.7001,1.7001,1.7001,1.7001,1.7001,1.7001,1.7001,1.7001,1.7001,1.6623,1.6374,1.6114,1.6114,1.5854,1.5202,1.5062,1.467,0.7459,0.7346,0.7235,0.0,0.0,0.0,0.7394,0.7418,0.7461,0.0,0.0,0.0,0.0,0.0,0.0,0.0,0.0,0.0,0.0,0.0,0.0,0.0,0.0,0.0,0.0,0.0,0.8062,0.8187,0.822,0.8151,0.7992,0.8112,0.7907,0.7641,0.7655,0.7665,0.7675,0.7767,0.7873,0.799,0.8091,0.8193,0.815,0.786,0.7566,0.7566,0.7135,0.699,0.699,0.699,0.6463,0.5764,0.5764,0.6045,0.6329,0.6329,0.6609,0.689,0.689,0.689,0.703,0.7314,0.7508,0.7718,0.8287,0.8351,0.8564,1.0167,1.1038,1.1476,1.1619,1.1619,1.1763,1.2051,1.2474,1.2896,1.3182,1.3611,1.3904,1.4332,1.4768,1.5044,1.5461,1.5895,1.6178,1.6178,1.6279,1.6343,1.6536,1.6717,1.6876,1.6904,1.7001,1.7001,1.7001,1.7001,1.7001,1.7001,1.7001,1.7001,1.7001,1.7001,1.7001,1.7001,1.6623,1.6114,1.5463,1.5463,1.5202,1.4931,1.48,1.4679,0.0,0.0,0.0,0.0,0.0,0.0,0.7272,0.7278,0.7315,0.0,0.0,0.0,0.0,0.0,0.0,0.0,0.0,0.0,0.0,0.0,0.0,0.0,0.0,0.0,0.0,0.0,0.8055,0.7932,0.8122,0.8242,0.814,0.8253,0.8322,0.8191,0.8275,0.8504,0.8601,0.8622,0.874,0.8818,0.8839,0.8765,0.8584,0.815,0.786,0.7566,0.7135,0.699,0.699,0.699,0.6825,0.6793,0.6793,0.6933,0.7365,0.7365,0.7513,0.7801,0.7801,0.7801,0.7801,0.7944,0.8246,0.8405,0.8549,0.8703,0.9446,1.0906,1.1188,1.1038,1.1476,1.1619,1.1763,1.2051,1.2194,1.2474,1.3182,1.3325,1.3468,1.3904,1.4332,1.4768,1.5044,1.547,1.5895,1.6178,1.6139,1.6067,1.6138,1.6315,1.6491,1.6525,1.6882,1.7001,1.7001,1.7001,1.7001,1.7001,1.7001,1.7001,1.7001,1.6753,1.6623,1.6623,1.5984,1.5463,1.5062,1.5062,1.4931,1.4931,1.467,1.4358,0.0,0.0,0.0,0.7859,0.0,0.0,0.0,0.764,0.7659,0.0,0.0,0.0,0.0,0.0,0.0,0.0,0.0,0.0,0.0,0.0,0.0,0.0,0.0,0.0,0.0,0.0,0.8135,0.8015,0.8071,0.8079,0.8144,0.8263,0.8356,0.8416,0.8475,0.8557,0.8677,0.8742,0.8834,0.8954,0.9014,0.8965,0.8934,0.8504,0.8098,0.786,0.7425,0.7135,0.699,0.699,0.699,0.699,0.699,0.7276,0.7566,0.7856,0.815,0.844,0.8584,0.8729,0.8729,0.8729,0.8874,0.9018,0.8868,0.9157,0.959,1.0612,1.09,1.0894,1.1188,1.1476,1.1619,1.1907,1.2051,1.2338,1.2617,1.3039,1.3325,1.3611,1.3831,1.4231,1.4608,1.5106,1.5466,1.5747,1.5615,1.5643,1.5952,1.5889,1.5974,1.6254,1.6494,1.6753,1.6753,1.6882,1.7001,1.7001,1.7001,1.6872,1.6753,1.6623,1.6374,1.5984,1.5724,1.5332,1.4931,1.467,1.467,1.467,1.464,1.4352,0.0,0.0,0.0,0.0,0.0,0.8038,0.0,0.0,0.0,0.0,0.0,0.0,0.0,0.0,0.0,0.0,0.0,0.0,0.0,0.0,0.0,0.0,0.0,0.0,0.0,0.0,0.8212,0.8124,0.7987,0.7978,0.7981,0.81,0.822,0.8345,0.8394,0.8459,0.8552,0.8677,0.8747,0.8774,0.8867,0.8981,0.9101,0.8692,0.8321,0.8121,0.7706,0.7421,0.699,0.699,0.699,0.699,0.699,0.7276,0.7711,0.8005,0.8295,0.8729,0.9157,0.9302,0.9302,0.9302,0.9302,0.9302,0.9302,0.9296,0.9441,0.9879,1.0462,1.09,1.1044,1.1332,1.1619,1.1619,1.1907,1.2051,1.2194,1.2595,1.3136,1.3278,1.3428,1.3644,1.439,1.4833,1.5117,1.5256,1.5208,1.5233,1.5643,1.56,1.5593,1.5844,1.6234,1.6364,1.6364,1.6623,1.6742,1.6742,1.6742,1.6753,1.6364,1.6374,1.5984,1.5332,1.5332,1.5202,1.4931,1.4539,1.4408,1.4408,1.4485,1.42,0.0,0.0,0.0,0.0,0.814,0.0,0.0,0.0,0.0,0.0,0.0,0.0,0.0,0.0,0.0,0.0,0.0,0.0,0.0,0.0,0.0,0.0,0.0,0.0,0.0,0.0,0.0,0.7985,0.8014,0.7965,0.7736,0.785,0.797,0.8089,0.8307,0.8421,0.8437,0.8552,0.8666,0.8769,0.8785,0.8856,0.8976,0.8656,0.8282,0.8017,0.7675,0.7421,0.699,0.699,0.699,0.699,0.699,0.7276,0.7711,0.8005,0.8295,0.8729,0.9157,0.9302,0.9302,0.9302,0.9302,0.9302,0.9302,0.9302,0.9446,0.9885,1.0311,1.0599,1.09,1.1332,1.1619,1.1619,1.1619,1.1763,1.2051,1.2222,1.2403,1.2966,1.2967,1.3173,1.4047,1.4069,1.4225,1.49,1.4855,1.4842,1.5233,1.5458,1.5463,1.5593,1.5844,1.6104,1.6104,1.6104,1.6104,1.6104,1.6104,1.6104,1.6104,1.5724,1.5463,1.4931,1.4931,1.4931,1.4931,1.4539,1.4408,1.4408,1.3944,1.3722,0.0,0.0,0.0,0.0,0.0,0.0,0.0,0.0,0.7997,0.0,0.0,0.0,0.0,0.0,0.0,0.0,0.0,0.0,0.0,0.0,0.0,0.0,0.0,0.0,0.0,0.0,0.0,0.0,0.0,0.7852,0.7819,0.7829,0.7828,0.7943,0.8117,0.8274,0.8416,0.8465,0.8546,0.8666,0.8666,0.8725,0.8851,0.8756,0.8398,0.7907,0.787,0.7482,0.6913,0.6966,0.699,0.699,0.699,0.7135,0.7276,0.7711,0.8005,0.844,0.8874,0.9157,0.9302,0.9302,0.9302,0.9302,0.9302,0.9302,0.9302,0.9596,0.9879,1.0311,1.0606,1.1038,1.1312,1.1511,1.1491,1.1463,1.1657,1.172,1.1956,1.2234,1.2513,1.2822,1.3166,1.3535,1.3891,1.4153,1.4397,1.4536,1.4658,1.4988,1.5202,1.5202,1.5463,1.5724,1.5724,1.5844,1.5974,1.5974,1.5844,1.5724,1.5724,1.5332,1.5062,1.4931,1.4931,1.48,1.467,1.4394,1.4183,1.3918,1.3848,1.3763,0.8996,0.0,0.0,0.0,0.0,0.0,0.0,0.0,0.0,0.0,0.0,0.0,0.0,0.0,0.0,0.7475,0.0,0.0,0.0,0.0,0.0,0.0,0.0,0.0,0.0,0.0,0.0,0.0,0.0,0.0,0.787,0.7685,0.7703,0.7823,0.7975,0.8138,0.8318,0.8383,0.8459,0.8541,0.8573,0.8633,0.872,0.8753,0.8407,0.7793,0.7902,0.7526,0.6827,0.6917,0.6954,0.6954,0.6978,0.699,0.699,0.7421,0.7711,0.8005,0.8584,0.9018,0.9302,0.9302,0.9302,0.9302,0.9302,0.9302,0.9302,0.9302,0.959,1.0017,1.0269,1.055,1.0805,1.108,1.1188,1.1154,1.1185,1.1406,1.1516,1.1653,1.1932,1.2216,1.2484,1.3027,1.3428,1.3561,1.3839,1.4146,1.4408,1.467,1.48,1.4931,1.5202,1.5332,1.5332,1.5583,1.5714,1.5714,1.5463,1.5332,1.5332,1.5062,1.4931,1.4931,1.48,1.4697,1.449,1.4237,1.3957,1.379,1.3796,1.3792,0.0,0.0,0.0,0.8696,0.0,0.0,0.0,0.0,0.7957,0.0,0.0,0.0,0.0,0.0,0.7156,0.7156,0.7156,0.0,0.0,0.0,0.0,0.0,0.0,0.0,0.0,0.0,0.0,0.0,0.0,0.0,0.761,0.7514,0.7578,0.7703,0.7932,0.8057,0.8068,0.8301,0.8421,0.8426,0.8535,0.859,0.8595,0.8715,0.836,0.7683,0.7793,0.7422,0.6737,0.6823,0.6856,0.6868,0.6954,0.699,0.699,0.7421,0.7566,0.7711,0.844,0.9018,0.9302,0.9302,0.9302,0.9302,0.9302,0.9302,0.9302,0.9302,0.959,0.985,0.9735,0.9989,1.0376,1.0512,1.0618,1.075,1.1165,1.1056,1.109,1.1361,1.1368,1.1519,1.218,1.2584,1.298,1.3375,1.3375,1.363,1.4277,1.4408,1.4539,1.4931,1.4931,1.4931,1.4931,1.4931,1.4931,1.4931,1.4931,1.4931,1.4931,1.4931,1.4931,1.4931,1.4539,1.4499,1.4709,1.404,1.3815,1.417,1.3768,1.3636,0.0,0.0,0.9507,0.9082,0.0,0.0,0.0,0.0,0.0,0.0,0.0,0.0,0.0,0.721,0.7143,0.7143,0.7143,0.7109,0.0,0.0,0.0,0.0,0.0,0.0,0.0,0.0,0.0,0.0,0.0,0.0,0.0,0.7639,0.7601,0.7573,0.7736,0.7894,0.8051,0.8214,0.8339,0.8421,0.8535,0.859,0.859,0.8633,0.8246,0.7583,0.7683,0.7319,0.6643,0.6733,0.677,0.6774,0.6803,0.6851,0.6909,0.711,0.7421,0.7711,0.8435,0.8729,0.9018,0.9157,0.9302,0.9302,0.9302,0.9302,0.9291,0.9215,0.9336,0.945,0.9462,0.9707,0.9817,1.0091,1.0327,1.0444,1.0489,1.0699,1.0799,1.0932,1.115,1.1247,1.1512,1.2041,1.2568,1.2972,1.3235,1.3498,1.3761,1.4146,1.4408,1.4539,1.48,1.4931,1.4931,1.4931,1.4931,1.4931,1.4931,1.4931,1.4931,1.4931,1.48,1.4539,1.4536,1.4379,1.3906,1.4019,1.393,1.3784,1.3475,1.3381,1.0517,1.0258,0.0,0.0,0.9355,0.0,0.8688,0.0,0.0,0.0,0.0,0.0,0.0,0.0,0.7143,0.7143,0.7143,0.7088,0.0,0.6797,0.0,0.0,0.0,0.0,0.0,0.0,0.0,0.0,0.0,0.0,0.0,0.0,0.759,0.7564,0.7616,0.7774,0.7926,0.8089,0.8231,0.8356,0.847,0.8546,0.859,0.859,0.8323,0.766,0.7593,0.7351,0.6681,0.6639,0.668,0.668,0.6713,0.6762,0.6819,0.6909,0.7251,0.7711,0.8145,0.844,0.8729,0.9018,0.9136,0.9242,0.9242,0.9215,0.916,0.909,0.9068,0.9041,0.9192,0.9297,0.9268,0.9543,0.9918,1.0162,1.0212,1.0459,1.0717,1.0717,1.085,1.1115,1.1115,1.1644,1.2173,1.2576,1.2972,1.3235,1.3367,1.3884,1.4277,1.4408,1.467,1.4931,1.4931,1.4931,1.4931,1.4931,1.4931,1.4931,1.4931,1.48,1.4707,1.4517,1.4379,1.4109,1.3832,1.3938,1.3949,1.3742,1.3421,1.3182]}]]